[[{"header":{"parameterUnit":"m.s-1","parameterCategory":1,"la1":30.6,"la2":29.2853,"lo1":-89.7004,"lo2":-87.6739,"dy":0.0162,"dx":0.0183,"nx":112,"ny":82,"refTime":"2023-11-07T06:00:00:Z","depth":0,"parameterNumber":2,"parameterNumberName":"U-component_of_WINDS"},"data":[0.0,0.0,0.0,0.0,0.0,0.0,0.0,0.0,0.0,0.0,0.0,0.0,0.0,0.0,0.0,0.0,0.0,0.0,0.0,0.0,0.0,0.0,0.0,0.0,0.0,0.0,0.0,0.0,0.0,0.0,0.0,0.0,0.0,0.0,0.0,0.0,0.0,0.0,0.0,0.0,0.0,0.0,0.0,0.0,0.0,0.0,0.0,0.0,0.0,0.0,0.0,0.0,0.0,0.0,0.0,0.0,0.0,0.0,0.0,0.0,0.0,0.0,0.0,0.0,0.0,0.0,0.0,0.0,0.0,0.0,0.0,0.0,0.0,0.0,0.0,0.0,0.0,0.0,0.0,0.0,0.0,0.0,0.0,0.0,0.0,0.0,0.0,0.0,0.0,0.0,0.3532,0.3772,0.5011,0.5689,0.5424,0.5619,0.5262,0.414,0.0,0.0,0.0,0.0,0.0,0.0,0.0,0.0,0.0,0.0,0.0,0.0,0.0,0.0,0.0,0.0,0.0,0.0,0.0,0.0,0.0,0.0,0.0,0.0,0.0,0.0,0.0,0.0,0.0,0.0,0.0,0.0,0.0,0.0,0.0,0.0,0.0,0.0,0.0,0.0,0.0,0.0,0.0,0.0,0.0,0.0,0.0,0.0,0.0,0.0,0.0,0.0,0.0,0.0,0.0,0.0,0.0,0.0,0.0,0.0,0.0,0.0,0.0,0.0,0.0,0.0,0.0,0.0,0.0,0.0,0.0,0.0,0.0,0.0,0.0,0.0,0.0,0.0,0.0,0.0,0.0,0.0,0.0,0.0,0.0,0.0,0.0,0.0,0.0,0.0,0.0,0.0,0.0,0.0,0.0,0.0,0.0,0.0,0.0,0.0,0.0,0.0,0.0,0.0,0.3917,0.462,0.5346,0.5689,0.5424,0.5232,0.4909,0.4382,0.0,0.0,0.0,0.0,0.0,0.0,0.0,0.0,0.0,0.0,0.0,0.0,0.0,0.0,0.0,0.0,0.0,0.0,0.0,0.0,0.0,0.0,0.0,0.0,0.0,0.0,0.0,0.0,0.0,0.0,0.0,0.0,0.0,0.0,0.0,0.0,0.0,0.0,0.0,0.0,0.0,0.0,0.0,0.0,0.0,0.0,0.0,0.0,0.0,0.0,0.0,0.0,0.0,0.0,0.0,0.0,0.0,0.0,0.0,0.0,0.0,0.0,0.0,0.0,0.0,0.0,0.0,0.0,0.0,0.0,0.0,0.0,0.0,0.0,0.0,0.0,0.0,0.0,0.0,0.0,0.0,0.0,0.0,0.0,0.0,0.0,0.0,0.0,0.0,0.0,0.0,0.0,0.0,0.0,0.0,0.0,0.0,0.0,0.0,0.0,0.0,0.0,0.0,0.3407,0.3792,0.4316,0.4612,0.4771,0.4806,0.4192,0.3914,0.4166,0.3734,0.0,0.0,0.0,0.0,0.0,0.0,0.0,0.0,0.0,0.0,0.0,0.0,0.0,0.0,0.0,0.0,0.0,0.0,0.0,0.0,0.0,0.0,0.0,0.0,0.0,0.0,0.0,0.0,0.0,0.0,0.0,0.0,0.0,0.0,0.0,0.0,0.0,0.0,0.0,0.0,0.0,0.0,0.0,0.0,0.0,0.0,0.0,0.0,0.0,0.0,0.0,0.0,0.0,0.0,0.0,0.0,0.0,0.0,0.0,0.0,0.0,0.0,0.0,0.0,0.0,0.0,0.0,0.0,0.0,0.0,0.0,0.0,0.0,0.0,0.0,0.0,0.0,0.0,0.0,0.0,0.0,0.0,0.0,0.0,0.0,0.0,0.0,0.0,0.0,0.0,0.0,0.0,0.0,0.0,0.0,0.0,0.0,0.0,0.0,0.0,0.0,0.0,0.3281,0.3541,0.3636,0.3775,0.387,0.3894,0.3291,0.3114,0.3637,0.3216,0.0,0.0,0.0,0.0,0.0,0.0,0.0,0.0,0.0,0.0,0.0,0.0,0.0,0.0,0.0,0.0,0.0,0.0,0.0,0.0,0.0,0.0,0.0,0.0,0.0,0.0,0.0,0.0,0.0,0.0,0.0,0.0,0.0,0.0,0.0,0.0,0.0,0.0,0.0,0.0,0.0,0.0,0.0,0.0,0.0,0.0,0.0,0.0,0.0,0.0,0.0,0.0,0.0,0.0,0.0,0.0,0.0,0.0,0.0,0.0,0.0,0.0,0.0,0.0,0.0,0.0,0.0,0.0,0.0,0.0,0.0,0.0,0.0,0.0,0.0,0.0,0.0,0.0,0.0,0.0,0.0,0.0,0.0,0.0,0.0,0.0,0.0,0.0,0.0,0.0,0.0,0.0,0.0,0.0,0.0,0.0,0.0,0.0,0.0,0.0,0.0,0.0,0.3409,0.3336,0.2931,0.3376,0.3448,0.2781,0.2992,0.3029,0.2719,0.3117,0.0,0.0,0.0,0.0,0.0,0.0,0.0,0.0,0.0,0.0,0.0,0.0,0.0,0.0,0.0,0.0,0.0,0.0,0.0,0.0,0.0,0.0,0.0,0.0,0.0,0.0,0.0,0.0,0.0,0.0,0.0,0.0,0.0,0.0,0.0,0.0,0.0,0.0,0.0,0.0,0.0,0.0,0.0,0.0,0.0,0.0,0.0,0.0,0.0,0.0,0.0,0.0,0.0,0.0,0.0,0.0,0.0,0.0,0.0,0.0,0.0,0.0,0.0,0.0,0.0,0.0,0.0,0.0,0.0,0.0,0.0,0.0,0.0,0.0,0.0,0.0,0.0,0.0,0.0,0.0,0.0,0.0,0.0,0.0,0.0,0.0,0.0,0.0,0.0,0.0,0.0,0.0,0.0,0.0,0.0,0.0,0.0,0.0,0.0,0.0,0.0,0.0,0.2598,0.2779,0.0,0.2723,0.269,0.2486,0.2261,0.2185,0.2284,0.0,0.0,0.0,0.0,0.0,0.0,0.0,0.0,0.0,0.0,0.0,0.0,0.0,0.0,0.0,0.0,0.0,0.0,0.0,0.0,0.0,0.0,0.0,0.0,0.0,0.0,0.0,0.0,0.0,0.0,0.0,0.0,0.0,0.0,0.0,0.0,0.0,0.0,0.0,0.0,0.0,0.0,0.0,0.0,0.0,0.0,0.0,0.0,0.0,0.0,0.0,0.0,0.0,0.0,0.0,0.0,0.0,0.0,0.0,0.0,0.0,0.0,0.0,0.0,0.0,0.0,0.0,0.0,0.0,0.0,0.0,0.0,0.0,0.0,0.0,0.0,0.0,0.0,0.0,0.0,0.0,0.0,0.0,0.0,0.0,0.0,0.0,0.0,0.0,0.0,0.0,0.0,0.0,0.0,0.0,0.0,0.0,0.0,0.0,0.0,0.0,0.0,0.2112,0.2043,0.2078,0.0,0.1969,0.185,0.1836,0.1505,0.1447,0.1788,0.0,0.0,0.0,0.0,0.0,0.0,0.0,0.0,0.0,0.0,0.0,0.0,0.0,0.0,0.0,0.0,0.0,0.0,0.0,0.0,0.0,0.0,0.0,0.0,0.0,0.0,0.0,0.0,0.0,0.0,0.0,0.0,0.0,0.0,0.0,0.0,0.0,0.0,0.0,0.0,0.0,0.0,0.0,0.0,0.0,0.0,0.0,0.0,0.0,0.0,0.0,0.0,0.0,0.0,0.0,0.0,0.0,0.0,0.0,0.0,0.0,0.0,0.0,0.0,0.0,0.0,0.0,0.0,0.0,0.0,0.0,0.0,0.0,0.0,0.0,0.0,0.0,0.0,0.0,0.0,0.0,0.0,0.0,0.0,0.0,0.0,0.0,0.0,0.0,0.0,0.0,0.0,0.0,0.0,0.0,0.0,0.0,0.0,0.0,0.0,0.0,0.0,0.2685,0.188,0.1205,0.1087,0.1072,0.0944,0.0622,0.0781,0.0986,0.0,0.0,0.0,0.0,0.0,0.0,0.0,0.0,0.0,0.0,0.0,0.0,0.0,0.0,0.0,0.0,0.0,0.0,0.0,0.0,0.0,0.0,0.0,0.0,0.0,0.0,0.0,0.0,0.0,0.0,0.0,0.0,0.0,0.0,0.0,0.0,0.0,0.0,0.0,0.0,0.0,0.0,0.0,0.0,0.0,0.0,0.0,0.0,0.0,0.0,0.0,0.0,0.0,0.0,0.0,0.0,0.0,0.0,0.0,0.0,0.0,0.0,0.0,0.0,0.0,0.0,0.0,0.0,0.0,0.0,0.0,0.0,0.0,0.0,0.0,0.0,0.0,0.0,0.0,0.0,0.0,0.0,0.0,0.0,0.0,0.0,0.0,0.0,0.0,0.0,0.0,0.0,0.0,0.0,0.0,0.0,0.0,0.0,0.0,0.0,0.0,0.0,0.0,0.0447,-0.0473,-0.1008,-0.0764,-0.044,-0.0124,0.0151,0.0619,0.0983,0.119,0.0,0.0,0.0,0.0,0.0,0.0,0.0,0.0,0.0,0.0,0.0,0.0,0.0,0.0,0.0,0.0,0.0,0.0,0.0,0.0,0.0,0.0,0.0,0.0,0.0,0.0,0.0,0.0,0.0,0.0,0.0,0.0,0.0,0.0,0.0,0.0,0.0,0.0,0.0,0.0,0.0,0.0,0.0,0.0,0.0,0.0,0.0,0.0,0.0,0.0,0.0,0.0,0.0,0.0,0.0,0.0,0.0,0.0,0.0,0.0,0.0,0.0,0.0,0.0,0.0,0.0,0.0,0.0,0.0,0.0,0.0,0.0,0.0,0.0,0.0,0.0,0.0,0.0,0.0,0.0,0.0,0.0,0.0,0.0,0.0,0.0,0.0,0.0,0.0,0.0,0.0,0.0,0.0,0.0,0.0,0.0,0.0,0.0,0.0,0.0,0.0,0.0,-0.0047,-0.1377,-0.2199,-0.1971,-0.1469,-0.0939,-0.04,0.0193,0.0589,0.0713,0.0,0.0,0.0,0.0,0.0,0.0,0.0,0.0,0.0,0.0,0.0,0.0,0.0,0.0,0.0,0.0,0.0,0.0,0.0,0.0,0.0,0.0,0.0,0.0,0.0,0.0,0.0,0.0,0.0,0.0,0.0,0.0,0.0,0.0,0.0,0.0,0.0,0.0,0.0,0.0,0.0,0.0,0.0,0.0,0.0,0.0,0.0,0.0,0.0,0.0,0.0,0.0,0.0,0.0,0.0,0.0,0.0,0.0,0.0,0.0,0.0,0.0,0.0,0.0,0.0,0.0,0.0,0.0,0.0,0.0,0.0,0.0,0.0,0.0,0.0,0.0,0.0,0.0,0.0,0.0,0.0,0.0,0.0,0.0,0.0,0.0,0.0,0.0,0.0,0.0,0.0,0.0,0.0,0.0,0.0,0.0,0.0,0.0,0.0,0.0,0.0,0.0,0.0279,-0.1628,-0.299,-0.2964,-0.2395,-0.173,-0.0996,-0.041,-0.006,-0.0004,0.0,0.0,0.0,0.0,0.0,0.0,0.0,0.0,0.0,0.0,0.0,0.0,0.0,0.0,0.0,0.0,0.0,0.0,0.0,0.0,0.0,0.0,0.0,0.0,0.0,0.0,0.0,0.0,0.0,0.0,0.0,0.0,0.0,0.0,0.0,0.0,0.0,0.0,0.0,0.0,0.0,0.0,0.0,0.0,0.0,0.0,0.0,0.0,0.0,0.0,0.0,0.0,0.0,0.0,0.0,0.0,0.0,0.0,0.0,0.0,-0.4999,0.0,0.0,0.0,0.0,0.0,0.0,0.0,0.0,0.0,0.0,0.0,0.0,0.0,0.0,0.0,0.0,0.0,0.0,0.0,0.0,0.0,0.0,0.0,0.0,0.0,0.0,0.0,0.0,0.0,0.0,0.0,0.0,0.0,0.0,0.0,0.0,0.0,0.0,0.0,0.0,0.0,-0.2572,-0.4657,-0.5941,-0.5625,-0.4914,-0.3571,-0.1405,-0.0904,-0.0506,-0.0032,0.0294,0.0,0.0,0.0,0.0,0.0,0.0,0.0,0.0,0.0,0.0,0.0,0.0,0.0,0.0,0.0,0.0,0.0,0.0,0.0,0.0,0.0,0.0,0.0,0.0,0.0,0.0,0.0,0.0,0.0,0.0,0.0,0.0,0.0,0.0,0.0,0.0,0.0,0.0,0.0,0.0,0.0,0.0,0.0,0.0,0.0,0.0,0.0,0.0,0.0,0.0,0.0,0.0,0.0,0.0,0.0,0.0,0.0,0.0,0.0,0.0,-0.5195,0.0,0.0,0.0,0.0,0.0,0.0,0.0,0.0,0.0,0.0,0.0,0.0,0.0,0.0,0.0,0.0,0.0,0.0,0.0,0.0,0.0,0.0,0.0,0.0,0.0,0.0,0.0,0.0,0.0,0.0,0.0,0.0,0.0,0.0,0.0,0.0,0.0,0.0,0.0,0.0,-0.3997,-0.5839,-0.6922,-0.6702,-0.6315,-0.5271,-0.3287,-0.1494,-0.0335,-0.0021,0.0,0.0,0.0,0.0,0.0,0.0,0.0,0.0,0.0,0.0,0.0,0.0,0.0,0.0,0.0,0.0,0.0,0.0,0.0,0.0,0.0,0.0,0.0,0.0,0.0,0.0,0.0,0.0,0.0,0.0,0.0,0.0,0.0,0.0,0.0,0.0,0.0,0.0,0.0,0.0,0.0,0.0,0.0,0.0,0.0,0.0,0.0,0.0,0.0,0.0,0.0,0.0,0.0,0.0,-0.9021,-0.9799,-1.0277,-1.0684,-1.0902,-1.0866,-0.8393,-0.7609,-0.7922,-0.64,0.0,0.0,0.0,0.0,0.0,0.0,0.0,0.0,0.0,0.0,0.0,0.0,0.0,0.0,0.0,0.0,0.0,0.0,0.0,0.0,0.0,0.0,0.0,0.0,-0.7451,-0.7117,0.0,0.0,0.0,0.0,0.0,0.0,0.0,0.0,0.0,0.0,0.0,0.0,-0.5389,-0.6727,-0.7439,-0.7416,-0.7272,-0.6603,-0.512,-0.2474,-0.063,-0.0039,0.0,0.0,0.0,0.0,0.0,0.0,0.0,0.0,0.0,0.0,0.0,0.0,0.0,0.0,0.0,0.0,0.0,0.0,0.0,0.0,0.0,0.0,0.0,0.0,0.0,0.0,0.0,0.0,0.0,0.0,0.0,0.0,0.0,0.0,-0.6701,-0.7577,0.0,0.0,0.0,0.0,0.0,0.0,0.0,0.0,0.0,0.0,0.0,0.0,0.0,-0.8582,-1.0091,-1.0125,-1.0569,-1.1411,-1.1942,-1.246,-1.2997,-1.3337,-1.3754,-1.412,-1.2829,0.0,-0.8989,-0.8646,0.0,0.0,0.0,0.0,0.0,0.0,0.0,0.0,0.0,0.0,0.0,0.0,0.0,0.0,0.0,0.0,0.0,0.0,0.0,0.0,0.0,0.0,-0.9934,-0.8364,-0.8586,-0.9138,0.0,-0.7112,-0.5194,-0.441,-0.4336,0.0,0.0,0.0,0.0,0.0,0.0,0.0,-0.8558,-0.9073,-0.92,-0.9017,-0.8379,-0.7044,-0.4781,-0.4484,-0.3172,-0.0185,0.0,0.0,0.0,-0.0145,0.0,0.0,0.0,0.0,0.0,0.0,0.0,0.0,0.0,0.0,0.0,0.0,0.0,0.0,0.0,0.0,0.0,0.0,0.0,0.0,0.0,0.0,0.0,0.0,0.0,0.0,0.0,0.0,0.0,-0.6744,-0.7467,-0.8365,-0.7635,-0.7138,0.0,0.0,0.0,0.0,0.0,0.0,0.0,0.0,0.0,-0.9267,-0.9891,-1.0758,-1.1922,-1.2493,-1.3116,-1.3804,-1.4529,-1.5144,-1.5654,-1.6114,-1.6445,-1.6619,-1.5843,-1.4676,-1.316,-1.1492,-1.0886,-1.0882,0.0,0.0,0.0,0.0,-0.8782,-0.9052,-0.9384,-1.0185,0.0,-1.0601,0.0,0.0,0.0,0.0,0.0,0.0,0.0,0.0,0.0,0.0,-1.0378,-1.04,-1.0139,-0.992,-1.0081,-0.8855,-0.7572,0.0,-0.6973,-0.6409,-0.4489,0.0,0.0,0.0,0.0,-0.7064,-0.9229,-0.9557,-0.9563,-0.9485,-0.9046,-0.7623,-0.4748,-0.3114,-0.1596,-0.0097,0.0,0.0,0.0,0.0,-0.0846,0.0,0.0,0.0,0.0,0.0,0.0,0.0,0.0,0.0,0.0,0.0,0.0,0.0,0.0,0.0,0.0,0.0,0.0,0.0,0.0,0.0,0.0,0.0,0.0,0.0,0.0,0.0,0.0,-0.7718,-0.839,-0.8914,-0.8626,-0.8382,0.0,0.0,0.0,0.0,0.0,0.0,-0.8454,-0.8942,-0.9839,-1.1198,-1.1994,-1.2942,-1.4015,-1.4774,-1.5385,-1.5894,-1.6634,-1.7235,-1.7707,-1.8131,-1.838,-1.8507,-1.8092,-1.7697,-1.7092,-1.4225,-1.3193,-1.3288,-1.2373,-1.1755,-1.1388,-1.1221,-1.1517,-1.1908,-1.1622,-1.2405,-1.3493,-1.3085,-1.3277,-1.349,-1.2539,0.0,0.0,0.0,0.0,-1.028,-1.1417,-1.1271,-1.1104,-1.215,-1.162,-1.0844,-1.0629,-1.0213,-0.9698,0.0,-0.9017,-0.8603,-0.7122,0.0,0.0,0.0,0.0,-0.7781,-0.9491,-0.9753,-0.9767,-0.9719,-0.9607,-0.8323,-0.5312,-0.2759,-0.1309,-0.1309,-0.1309,-0.1309,-0.1309,-0.1309,-0.1619,-0.2316,0.0,0.0,0.0,0.0,0.0,0.0,0.0,0.0,0.0,0.0,0.0,0.0,0.0,0.0,0.0,0.0,0.0,0.0,0.0,0.0,0.0,0.0,0.0,0.0,0.0,0.0,0.0,0.0,0.0,-0.8984,-1.0908,0.0,0.0,0.0,0.0,-0.9147,-0.9601,-1.0083,-1.0451,-1.0973,-1.226,-1.4488,-1.4602,-1.5421,-1.7079,-1.7121,-1.7425,-1.7954,-1.7984,-1.8285,-1.8797,-1.8841,-1.9132,-1.9603,-1.9609,-1.9579,-1.9349,-1.6555,-1.5431,-1.5277,-1.3742,-1.34,-1.387,-1.422,-1.4015,-1.3827,-1.6188,-1.6663,-1.6374,-1.7343,-1.7636,-1.7231,-1.5229,-1.4154,0.0,0.0,-1.2163,-1.2324,-1.2722,-1.325,-1.3545,-1.2987,-1.2873,-1.2481,-1.1095,-1.0854,-1.0625,0.0,-0.9486,-0.9559,-0.9519,0.0,-0.9694,-0.9848,-0.9983,-1.0065,-0.9994,-1.0141,-1.0198,-1.001,-1.0084,-0.9179,-0.6792,-0.5525,-0.4844,-0.4844,-0.4844,-0.4844,-0.4844,-0.4844,-0.6034,-0.8603,-0.5348,0.0,0.0,0.0,0.0,0.0,0.0,0.0,0.0,0.0,0.0,0.0,0.0,0.0,0.0,0.0,0.0,0.0,0.0,0.0,0.0,0.0,0.0,0.0,0.0,0.0,0.0,0.0,0.0,-1.0911,-1.1727,0.0,-1.1514,-1.1954,-1.2052,-1.1547,-1.25,-1.3311,-1.379,-1.4376,-1.5209,-1.6386,-1.7079,-1.772,-1.8323,-1.8672,-1.8936,-1.9132,-1.9132,-1.9244,-1.9406,-1.9406,-1.953,-1.969,-1.969,-1.969,-1.963,-1.8652,-1.7983,-1.75,-1.6494,-1.62,-1.6406,-1.6545,-1.6894,-1.7394,-1.7896,-1.8352,-1.8754,-1.8909,-1.8641,-1.8133,-1.7605,-1.6728,-1.5831,-1.5451,-1.5173,-1.4998,-1.5119,-1.5389,-1.5616,-1.5499,-1.4779,-1.3976,-1.353,-1.2636,-1.1811,-1.1515,-1.0588,-0.9889,-0.9944,-1.0024,-1.0101,-1.0133,-1.0194,-1.0213,-1.0137,-1.0191,-1.0206,-1.0137,-1.017,-0.9868,-0.9016,-0.9587,-0.9551,-0.8516,-0.8437,-0.8437,-0.8437,-0.8437,-0.8899,-0.9853,-0.5843,-0.3344,0.0,0.0,0.0,0.0,0.0,0.0,0.0,0.0,0.0,0.0,0.0,0.0,0.0,0.0,0.0,0.0,0.0,0.0,0.0,0.0,0.0,0.0,0.0,0.0,0.0,0.0,-1.1745,-1.2036,-1.2829,-1.3226,-1.3034,-1.3515,-1.3886,-1.4038,-1.5038,-1.5796,-1.6146,-1.6717,-1.7283,-1.7838,-1.8512,-1.9006,-1.9169,-1.953,-1.969,-1.969,-1.969,-1.969,-1.969,-1.969,-1.969,-1.969,-1.969,-1.9782,-1.9909,-1.9909,-1.9741,-1.94,-1.8639,-1.844,-1.8591,-1.8591,-1.9063,-1.965,-1.939,-1.9935,-2.0688,-2.0218,-1.9734,-1.9352,-1.9406,-1.868,-1.787,-1.8102,-1.7506,-1.691,-1.7275,-1.7085,-1.6895,-1.7298,-1.6295,-1.5188,-1.4971,-1.3866,-1.2844,-1.2674,-1.1445,-1.0377,-1.0173,-0.9926,-0.9673,-0.9394,-0.9353,-0.9362,-0.9349,-0.9847,-1.0195,-1.0195,-1.0719,-1.1043,-1.1047,-1.1499,-1.1582,-1.1142,-1.0557,-1.0499,-1.1085,-1.0538,-0.9679,-0.851,-0.5089,-0.4089,-0.5634,0.0,0.0,0.0,0.0,0.0,0.0,0.0,0.0,0.0,0.0,0.0,0.0,0.0,0.0,0.0,0.0,0.0,0.0,0.0,0.0,0.0,0.0,0.0,-1.0693,-1.2842,-1.3812,-1.235,-1.4287,-1.5515,-1.4972,-1.5429,-1.5968,-1.6529,-1.7051,-1.7348,-1.7372,-1.7866,-1.838,-1.8893,-1.893,-1.9169,-1.969,-1.969,-1.969,-1.969,-1.969,-1.969,-1.969,-1.969,-1.969,-1.969,-1.969,-1.9945,-2.0314,-2.0314,-2.0583,-2.091,-2.0085,-1.9965,-2.0314,-2.0314,-2.0348,-2.0416,-2.0894,-2.1584,-2.2192,-2.1465,-2.1237,-2.1155,-2.0701,-1.9992,-1.9495,-2.0062,-1.9037,-1.8039,-1.9078,-1.8342,-1.7496,-1.8292,-1.7413,-1.617,-1.53,-1.4539,-1.3787,-1.2974,-1.2054,-1.1173,-1.0401,-0.9557,-0.8728,-0.7967,-0.783,0.0,-0.7857,-0.9267,-1.0248,-1.0191,-1.1683,-1.2676,-1.26,-1.1068,-1.0822,-1.2503,-1.113,-1.1011,-1.2697,-1.1144,-0.8637,-0.5191,-0.3442,-0.6094,-1.3214,0.0,0.0,0.0,0.0,0.0,0.0,0.0,0.0,0.0,0.0,0.0,0.0,0.0,0.0,0.0,0.0,0.0,0.0,0.0,0.0,0.0,0.0,-1.273,-1.3374,-1.4198,-1.5172,-1.6373,-1.6742,-1.7002,-1.7244,-1.7008,-1.722,-1.8175,-1.8384,-1.8633,-1.9031,-1.9192,-1.9332,-1.9479,-1.9479,-1.9566,-1.969,-1.969,-1.969,-1.969,-1.969,-1.969,-1.969,-1.969,-1.969,-1.969,-1.969,-1.9945,-2.0314,-2.0314,-2.0583,-2.0959,-2.0747,-2.0698,-2.0797,-2.0797,-2.0975,-2.129,-2.1781,-2.2106,-2.2276,-2.2073,-2.2006,-2.1993,-2.2074,-2.1697,-2.1207,-2.105,-2.039,-1.9797,-2.0099,-1.9871,-1.9715,-2.0176,-1.9522,-1.86,-1.8033,-1.724,-1.6424,-1.566,-1.4778,-1.369,-1.2328,-1.1364,-1.0917,-1.1347,-1.0829,0.0,-1.1242,-1.1632,-1.1408,-1.0178,-1.1473,-1.192,-1.0709,-1.1825,-1.2014,-1.062,-1.2577,-1.3961,-1.4287,-1.3821,-1.2437,-1.0015,-1.0635,-1.0411,0.0,0.0,0.0,0.0,0.0,0.0,0.0,0.0,0.0,0.0,0.0,0.0,0.0,0.0,0.0,0.0,0.0,0.0,0.0,0.0,0.0,0.0,-1.3093,-1.4707,-1.6182,-1.6123,-1.66,-1.8349,-1.8292,-1.8432,-1.9261,-1.8741,-1.8747,-1.9593,-1.9405,-1.9369,-1.969,-1.969,-1.969,-1.969,-1.969,-1.969,-1.969,-1.9974,-2.0124,-2.0124,-2.0393,-2.0528,-2.0528,-2.0528,-2.0662,-2.0853,-2.0853,-2.1217,-2.1772,-2.1453,-2.1569,0.0,0.0,0.0,0.0,0.0,-2.1538,-2.1899,-2.1974,-2.2215,-2.2436,-2.2349,-2.2388,-2.2527,-2.2815,-2.2494,-2.2012,-2.2018,-2.1534,-2.096,-2.0576,-2.0594,-2.0676,-2.0521,-1.9934,-1.9326,-1.9058,-1.8333,-1.7614,-1.7218,-1.669,0.0,-1.4648,-1.2787,-1.1515,-1.1691,-1.1225,-1.103,-1.1545,-1.2174,-1.2205,-1.1245,-1.2516,-1.3043,-1.2052,-1.2613,0.0,0.0,0.0,-1.3891,-1.3772,-1.4082,0.0,0.0,0.0,-1.2535,-1.0971,0.0,0.0,0.0,-0.9129,-0.769,0.0,0.0,0.0,0.0,0.0,0.0,0.0,0.0,0.0,0.0,0.0,0.0,0.0,0.0,0.0,0.0,-1.4325,-1.6174,-1.8765,-1.8273,-1.806,-1.9068,-1.912,-1.952,-2.0683,-2.0189,-2.0021,-2.0565,-2.0034,-1.969,-1.969,0.0,0.0,0.0,0.0,-1.9765,-1.969,-2.0438,-2.0782,-2.0722,-2.138,-2.1695,-2.1695,-2.1695,-2.1925,-2.2322,-2.2359,-2.2961,-2.3753,-2.311,-2.3079,-2.3249,-2.174,-2.1368,-2.1688,-2.1688,-2.1928,-2.2237,-2.1823,0.0,0.0,-2.2426,-2.2527,-2.2822,-2.3141,-2.2774,-2.2313,-2.2847,-2.2501,-2.18,-2.1011,-2.0974,-2.0966,-2.0266,-1.9678,-1.9227,-1.9165,-1.8583,-1.8077,-1.8045,-1.8034,-1.779,-1.6976,-1.4065,-1.1601,-1.0872,-1.0633,-1.0556,-1.0652,-1.2017,-1.2877,-1.268,0.0,0.0,-1.4677,-1.333,-1.3169,-1.4738,-1.343,-1.2604,-1.2622,-1.3486,-1.3194,-1.1564,-1.2339,-1.3821,-1.5926,-1.5579,-1.65,-1.8587,-1.8095,-1.7795,0.0,0.0,0.0,0.0,0.0,0.0,0.0,0.0,0.0,0.0,0.0,0.0,0.0,0.0,0.0,-1.4121,-1.6076,-1.8075,-1.9616,-1.9612,-1.9534,-1.966,-1.9257,-1.9293,-1.9956,-1.9478,-1.9322,-1.9833,-1.9765,-1.969,-1.969,-1.969,-1.969,-1.969,-2.0228,-2.0243,-1.9726,-2.0902,-2.1246,-2.0722,0.0,0.0,-2.1695,-2.1695,-2.1759,-2.1862,-2.224,-2.2744,-2.3278,-2.3555,-2.3562,-2.3325,-2.2392,-2.2106,-2.2163,-2.2163,-2.2209,-2.2282,-2.2209,-2.2419,-2.2695,-2.2634,-2.2822,-2.3165,-2.35,-2.348,0.0,-2.3069,-2.301,-2.2975,-2.2808,-2.2416,-2.2042,-2.1992,-2.1363,-2.0633,-2.0153,-1.9922,-1.9632,-1.899,-1.8906,-1.8671,-1.7828,-1.5924,-1.4484,-1.4345,-1.3658,-1.342,-1.4113,-1.4405,-1.4003,-1.2533,-1.3906,-1.4276,-1.2706,-1.3597,-1.4322,-1.4571,-1.4858,-1.5076,-1.5187,-1.6634,-1.7195,-1.6675,-1.7612,-1.8273,-1.8559,-1.8483,-1.8904,-1.9757,-1.8691,-1.8228,0.0,0.0,0.0,0.0,0.0,0.0,0.0,0.0,0.0,0.0,0.0,-1.1995,0.0,0.0,-1.5803,-1.6635,-1.8009,-1.9345,-2.0244,-2.0064,-2.0221,-2.1121,-2.1014,-2.1066,-2.1642,-2.1143,-2.0922,-2.1186,-2.0872,-2.0692,-2.0692,-2.0692,-2.0692,-2.0692,-2.1021,-2.1036,-2.0692,-2.168,-2.2024,-2.171,-2.2338,-2.2652,-2.2652,-2.2652,-2.2802,-2.3071,-2.3576,-2.4106,-2.4577,-2.4696,-2.4423,-2.39,-2.3528,-2.2953,-2.231,-2.231,-2.231,-2.231,-2.231,-2.2598,-2.2923,-2.2746,-2.3045,-2.3477,-2.3649,-2.3692,-2.3684,-2.3618,-2.3747,-2.3822,-2.3412,-2.3173,-2.298,-2.2631,-2.2276,-2.1799,-2.1065,-2.0925,-2.0718,-1.9908,-1.9786,-1.953,-1.8698,-1.7804,-1.6914,-1.6028,-1.5507,-1.5189,-1.5189,-1.514,-1.4724,-1.3757,-1.439,-1.4475,-1.3446,-1.4489,-1.5169,-1.5105,-1.5857,-1.6323,-1.6399,-1.7588,-1.8195,-1.8096,-1.8904,-1.9364,-1.9506,-1.9362,-1.9562,-2.0044,-1.944,-1.9046,0.0,0.0,0.0,0.0,0.0,0.0,0.0,0.0,-1.183,-1.289,-1.3508,-1.4138,-1.52,-1.6442,-1.7811,-1.9306,-1.9889,-2.0424,-2.1199,-2.0759,-2.1015,-2.268,-2.2534,-2.2552,-2.3185,-2.2805,-2.2529,-2.2529,-2.1994,-2.1695,-2.1695,-2.1695,-2.1695,-2.1695,-2.1814,-2.1829,-2.1695,-2.2473,-2.2843,-2.2724,-2.3295,-2.3595,-2.3595,-2.3595,-2.3837,-2.4266,-2.4934,-2.5486,-2.5999,-2.5883,-2.5372,-2.4695,-2.4695,-2.39,-2.2733,-2.2733,-2.2547,-2.2344,-2.2632,-2.2901,-2.3087,-2.3022,-2.3313,-2.3714,-2.3774,-2.3795,-2.3837,-2.4113,-2.4375,-2.4412,-2.3755,-2.3712,-2.3689,-2.3061,-2.2844,-2.2615,-2.1916,-2.1828,-2.1685,-2.1025,-2.0779,-2.0468,-1.9792,-1.9502,-1.8758,-1.7003,-1.6599,-1.6253,-1.5541,-1.5305,-1.514,-1.4992,-1.4942,-1.4915,-1.4941,-1.5402,-1.5766,-1.5912,-1.6688,-1.7128,-1.7128,-1.7913,-1.8408,-1.8574,-1.9043,-1.9525,-2.0007,-1.9784,-1.9895,-2.0306,-2.0306,-2.0025,-0.9167,-0.9231,-0.969,-0.9785,-1.0612,-1.2183,0.0,0.0,-1.6046,-1.7812,-1.8607,-1.8894,-1.857,-1.9459,-2.0512,-2.134,-2.1419,-2.188,-2.3186,-2.2804,-2.2634,-2.3421,-2.2042,-2.1268,-2.1859,-2.1872,-2.1799,-2.1799,-2.1739,-2.1695,-2.1695,-2.1695,-2.1695,-2.1695,-2.2263,-2.2278,-2.1695,-2.2892,-2.3221,-2.2724,-2.3295,-2.3595,-2.3595,-2.3595,-2.3638,-2.3767,-2.4736,-2.5486,-2.6033,-2.6421,-2.6133,-2.549,-2.549,-2.4983,-2.4239,-2.4239,-2.341,-2.2496,-2.3799,-2.3613,-2.2902,-2.3829,-2.3916,-2.3774,-2.4036,-2.4151,-2.4151,-2.419,-2.4478,-2.4756,-2.4662,-2.4345,-2.4053,-2.3957,-2.3388,-2.2842,-2.2684,-2.2753,-2.2814,-2.2726,-2.212,-2.1598,-2.1455,-2.078,-1.9648,-1.7844,-1.6965,-1.6465,-1.6369,-1.5676,-1.5133,-1.4928,-1.4965,-1.5209,-1.5721,-1.5722,-1.6004,-1.6725,-1.7513,-1.7968,-1.7968,-1.8739,-1.9491,-2.0209,-2.0303,-2.0588,-2.1107,-2.1087,-2.1153,-2.1342,-2.1342,-2.0993,-1.2187,-1.1684,-1.1566,0.0,-1.4584,-1.5509,-1.753,-1.8122,-1.8634,-1.9773,-2.0162,-2.0439,-2.0865,-2.1317,-2.1832,0.0,-2.1975,-2.1755,-2.2312,-2.1618,-2.1259,-2.1896,-2.1253,-2.1298,-2.2673,-2.2825,-2.2802,-2.2802,-2.2802,-2.2802,-2.2802,-2.3191,-2.3221,-2.2817,-2.346,-2.349,-2.2817,-2.3325,-2.3475,-2.3221,-2.3475,-2.3595,-2.361,-2.4014,-2.477,-2.5764,-2.614,-2.6587,-2.7054,-2.7282,-2.6911,-2.6234,-2.6234,-2.5795,-2.5084,-2.4675,-2.4103,-2.3663,-2.4303,-2.4431,-2.4409,-2.4847,-2.5177,-2.5403,-2.5544,-2.5603,-2.5493,-2.5016,-2.5097,-2.5223,-2.4892,-2.4708,-2.4645,-2.4774,-2.4542,-2.416,-2.3702,-2.3657,-2.3572,-2.3134,-2.2784,-2.2536,-2.2465,-2.1737,-2.0862,-2.0034,-1.8792,-1.7606,-1.6619,-1.6112,-1.5746,-1.5507,-1.5438,-1.5692,-1.6423,-1.6857,-1.7234,-1.7568,-1.8779,-1.9494,-1.9494,-2.0299,-2.0904,-2.1253,-2.1096,-2.1258,-2.1708,-2.1538,-2.1638,-2.1975,-2.1975,-2.1686,-1.3559,-1.3433,0.0,-1.6622,-1.7953,-1.8807,-1.9911,-2.0577,-2.1079,-2.1493,-2.1581,-2.1732,-2.2221,-2.2309,-2.2443,-2.2916,-2.2309,-2.182,-2.1824,-2.1118,-2.0694,-2.102,-2.0983,-2.1545,-2.2939,-2.3236,-2.3415,-2.3595,-2.3595,-2.3595,-2.3595,-2.4073,-2.4118,-2.361,-2.4088,-2.4103,-2.3595,-2.3789,-2.3879,-2.3879,-2.3879,-2.3879,-2.3894,-2.4403,-2.5525,-2.7095,-2.7129,-2.742,-2.7933,-2.8058,-2.7824,-2.7317,-2.7317,-2.6996,-2.6471,-2.593,-2.5217,-2.4574,-2.498,-2.5217,-2.5429,-2.572,-2.6117,-2.6469,-2.6573,-2.6612,-2.6429,-2.5642,-2.5579,-2.5622,-2.4968,-2.493,-2.5111,-2.5264,-2.5313,-2.5174,-2.4643,-2.4542,-2.4408,-2.3896,-2.3593,-2.3414,-2.3397,-2.2645,-2.2018,-2.191,-2.0623,-1.9088,-1.7414,-1.6827,-1.6479,-1.6262,-1.611,-1.6371,-1.7165,-1.7784,-1.8298,-1.8739,-1.9861,-2.0613,-2.0849,-2.1455,-2.1913,-2.2116,-2.1935,-2.201,-2.2329,-2.2218,-2.2235,-2.231,-2.2388,-2.2186,-1.1374,0.0,-1.4588,-1.6823,-1.9384,-2.1656,-2.2702,-2.3452,-2.3879,-2.3891,-2.3904,-2.3565,-2.251,-2.2309,-2.235,-2.2561,-2.2582,-2.2568,-2.2655,-2.2643,-2.2387,-2.1759,-2.167,-2.171,0.0,-2.2338,-2.2951,-2.355,-2.3595,-2.3595,-2.3595,-2.3625,-2.3625,-2.3595,-2.3625,-2.3625,-2.3595,-2.4253,-2.4552,-2.4552,-2.4552,-2.4552,-2.4552,-2.4567,-2.5303,-2.6567,-2.7052,-2.7632,-2.8219,-2.874,-2.896,-2.8943,-2.8943,-2.8943,-2.8873,-2.8856,-2.703,-2.4709,-2.6133,-2.5976,-2.5296,-2.6327,-2.6415,-2.6168,-2.649,-2.6612,-2.6429,-2.5642,-2.5689,-2.5816,-2.5016,-2.5037,-2.5284,-2.5303,-2.5357,-2.5398,-2.5367,-2.5401,-2.5468,-2.5517,-2.484,-2.4288,-2.4346,-2.3582,-2.2941,-2.2875,-2.2038,-2.0812,-1.9146,-1.7973,-1.7211,-1.7088,-1.6946,-1.7183,-1.8005,-1.8096,-1.8775,-2.0319,-2.0466,-2.0886,-2.1729,-2.1803,-2.2171,-2.296,-2.296,-2.3021,-2.3153,-2.3486,-2.3183,-2.231,-2.2563,-2.2537,-1.4362,0.0,-1.789,-2.01,-2.2184,-2.3703,-2.3703,-2.4142,-2.423,-2.3113,-2.1719,-2.0476,-1.9723,-1.897,-1.8872,-2.0061,-2.0615,-2.1152,-2.1866,-2.2014,-2.1639,-2.0506,-2.1159,0.0,0.0,0.0,0.0,-2.2981,-2.3789,-2.4283,-2.4283,-2.5106,-2.539,-2.4941,-2.4941,-2.4941,-2.4941,-2.4732,-2.4806,-2.527,-2.527,-2.551,-2.5914,-2.5819,-2.6519,-2.7829,-2.8361,-2.8665,-2.8923,-2.9496,-2.9431,-2.9011,-2.9011,-2.9011,-2.9011,-2.9011,-2.801,-2.6776,-2.7266,-2.7057,-2.6666,-2.7278,-2.7558,-2.7718,-2.8082,-2.8187,-2.7915,-2.6576,-2.6294,-2.6154,-2.5073,-2.4869,-2.5012,-2.5243,-2.5322,-2.5354,-2.5453,-2.5473,-2.5539,-2.5637,-2.5427,-2.5215,-2.5199,-2.4483,-2.3501,-2.2228,-2.1273,-2.0249,-1.903,-1.7937,-1.7466,-1.7925,-1.7802,-1.8229,-1.9567,-1.9677,-2.017,-2.129,-2.1859,-2.2299,-2.2575,-2.3107,-2.3511,-2.3786,-2.3804,-2.3702,-2.3522,-2.3414,-2.3087,-2.2563,-2.249,-2.2388,-1.6616,-1.8493,-2.0188,-2.2598,-2.4017,-2.477,-2.4607,-2.4544,-2.3991,-2.2108,-2.0288,-1.8632,-1.7526,-1.6559,-1.6376,-1.7873,-1.8652,-1.9483,-2.0737,-2.1155,-2.1129,-2.0477,-2.138,-2.2054,0.0,0.0,0.0,-2.3026,-2.4014,-2.4582,-2.4582,-2.5659,-2.6048,-2.5615,-2.5615,-2.5615,-2.5615,-2.542,-2.554,-2.5959,-2.5959,-2.6183,-2.6621,-2.6502,-2.7226,-2.8528,-2.9058,-2.9377,-2.9642,-3.023,-3.0209,-2.977,-2.977,-2.977,-2.977,-2.977,-2.9296,-2.8516,-2.7975,-2.7571,-2.7365,-2.7783,-2.8308,-2.8833,-2.8955,-2.9195,-2.9108,-2.7475,-2.6921,-2.6581,-2.5506,-2.5096,-2.5024,-2.5243,-2.5303,-2.5339,-2.5463,-2.5493,-2.5543,-2.5662,-2.5703,-2.5683,-2.5637,-2.518,-2.4316,-2.2757,-2.2054,-2.1105,-1.9438,-1.8611,-1.8471,-1.9175,-1.9077,-1.951,-2.0849,-2.096,-2.1327,-2.2171,-2.2721,-2.3144,-2.3419,-2.3933,-2.419,-2.419,-2.419,-2.4054,-2.3692,-2.3482,-2.3141,-2.2695,-2.2527,-2.2388,-1.8169,-2.0062,-2.1543,-2.4167,-2.4845,-2.4958,-2.5335,-2.4594,-2.3188,-2.097,-1.951,-1.7981,0.0,0.0,-1.5082,-1.6114,-1.6905,-1.8002,-1.9666,-2.0494,-2.1141,0.0,0.0,0.0,0.0,0.0,0.0,-2.3804,0.0,-2.4686,-2.4686,-2.536,-2.5704,-2.5704,-2.5674,-2.5674,-2.5704,-2.6333,-2.6632,-2.6632,-2.6632,-2.6632,-2.6632,-2.6632,-2.7303,-2.8511,-2.9134,-2.9717,-3.0293,-3.0935,-3.119,-3.119,-3.119,-3.119,-3.119,-3.119,-3.0734,-2.9905,-2.845,-2.7673,-2.7369,-2.7783,-2.8629,-2.9447,-2.9101,-2.9549,-2.9806,-2.8246,-2.7548,-2.7029,-2.6214,-2.5666,-2.5321,-2.5303,-2.5303,-2.5339,-2.5463,-2.5493,-2.5543,-2.5662,-2.5703,-2.5703,-2.5703,-2.5637,-2.5285,-2.4354,-2.4199,-2.3226,-2.0499,-2.0034,-2.0195,-2.083,-2.0714,-2.0937,-2.1801,-2.1875,-2.2224,-2.3015,-2.307,-2.34,-2.4171,-2.419,-2.419,-2.419,-2.419,-2.4036,-2.3732,-2.3692,-2.3346,-2.2721,-2.2721,-2.2563,-2.1481,-2.3188,-2.4418,-2.4745,-2.5109,-2.5008,-2.3489,-2.2297,-2.0765,-1.8116,-1.5718,-1.3672,0.0,0.0,0.0,-1.5688,-1.7614,0.0,-2.2243,-2.3167,0.0,-2.3146,0.0,-2.4866,-2.4866,-2.5166,0.0,0.0,-2.5989,-2.6093,-2.6093,-2.6722,-2.7066,-2.7066,-2.6602,-2.6572,-2.7066,-2.7245,-2.732,-2.732,-2.732,-2.732,-2.732,-2.732,-2.751,-2.7894,-2.895,-2.9496,-2.9717,-3.0757,-3.119,-3.119,-3.119,-3.119,-3.119,-3.119,-3.0734,-3.0057,-2.9668,-2.8725,-2.7691,-2.7841,-2.8106,-2.8425,-2.8846,-2.9122,-2.9108,-2.8081,-2.773,-2.7377,-2.6301,-2.591,-2.5728,-2.5386,-2.5303,-2.5339,-2.5463,-2.5493,-2.5543,-2.5662,-2.5703,-2.5703,-2.5703,-2.5637,-2.5325,-2.4469,-2.4258,-2.3693,-2.2275,-2.198,-2.1961,-2.2125,-2.196,-2.2135,-2.2864,-2.3023,-2.3297,-2.386,-2.4043,-2.4153,-2.4209,-2.419,-2.419,-2.419,-2.419,-2.4151,-2.4074,-2.3566,-2.3236,-2.3069,-2.2822,-2.2563,-2.3703,-2.5071,-2.585,-2.5297,-2.5021,-2.4255,-2.1769,-2.0175,-1.8367,-1.5341,-1.3094,0.0,-1.1173,0.0,0.0,0.0,0.0,0.0,-2.2748,-2.3759,-2.4253,0.0,-2.5929,0.0,-2.6497,-2.7006,-2.75,0.0,-2.7096,-2.6587,-2.6587,-2.7215,-2.7625,-2.7625,-2.7215,-2.72,-2.7625,-2.7625,-2.7625,-2.7625,-2.7625,-2.7625,-2.7625,-2.7625,-2.7625,-2.7675,0.0,-2.9406,-2.9496,-3.0699,-3.119,-3.119,-3.119,-3.119,-3.119,-3.119,-3.0937,-3.0569,-3.0421,-2.9793,-2.9059,-2.8943,-2.8906,-2.9052,-2.9831,-2.9824,-2.9439,-2.898,-2.8476,-2.7829,-2.6806,-2.6403,-2.6104,-2.5454,-2.5303,-2.5339,-2.5463,-2.5493,-2.5543,-2.5662,-2.5703,-2.5703,-2.5703,-2.5662,-2.5478,-2.5002,-2.4845,-2.4568,-2.4003,-2.316,-2.2732,-2.3084,-2.2955,-2.3135,-2.3904,-2.403,-2.4144,-2.4321,-2.4445,-2.441,-2.4209,-2.419,-2.419,-2.419,-2.419,-2.419,-2.419,-2.3671,-2.3414,-2.3414,-2.3069,-2.2764,-2.5172,-2.6076,-2.637,-2.5649,-2.4682,-2.3113,-2.015,-1.8216,-1.6107,-1.2768,0.0,-1.0797,-1.1362,-1.1497,-1.2643,-1.6173,0.0,-1.8789,-2.2536,-2.3535,-2.4358,-2.5719,-2.741,-2.8293,-2.7874,-2.8816,-2.952,-2.9699,-2.7934,-2.6856,-2.6856,-2.7305,-2.7625,-2.7625,-2.7625,-2.7625,-2.7625,-2.7625,-2.7625,-2.7625,-2.7625,-2.7625,-2.7625,-2.7625,-2.7625,-2.766,-2.8764,-2.9316,-2.9496,-3.0617,-3.1151,-3.119,-3.119,-3.119,-3.119,-3.119,-3.119,-3.1167,-3.0883,-3.0785,-3.0785,-3.0419,-3.0308,-3.0392,-3.106,-3.0742,-3.0173,-3.0081,-2.9314,-2.8344,-2.757,-2.7119,-2.6647,-2.5707,-2.5476,-2.5474,-2.5502,-2.5503,-2.5561,-2.5683,-2.5703,-2.5703,-2.5703,-2.5703,-2.5683,-2.5611,-2.5558,-2.5498,-2.5415,-2.3975,-2.3231,-2.3915,-2.3847,-2.4028,-2.4747,-2.4847,-2.476,-2.4478,-2.4512,-2.4445,-2.4209,-2.419,-2.419,-2.419,-2.419,-2.419,-2.419,-2.3858,-2.3692,-2.3692,-2.3369,-2.3021,-2.6076,-2.6445,-2.6214,-2.5209,-2.4117,-2.2322,-1.8643,-1.6509,0.0,0.0,-1.0182,-1.0219,-1.0772,-1.1231,-1.2996,-1.7372,0.0,0.0,0.0,0.0,-2.5749,0.0,0.0,0.0,0.0,0.0,0.0,0.0,0.0,-2.8248,-2.8248,-2.7814,-2.7625,-2.7625,-2.7625,-2.7625,-2.7625,-2.7625,-2.7625,-2.7625,-2.7625,-2.7625,-2.7625,-2.7625,-2.7625,-2.7625,-2.8367,0.0,-2.9451,-3.0166,-3.074,-3.119,-3.119,-3.119,-3.119,-3.119,-3.119,-3.1173,-3.1138,-3.1339,-3.1533,-3.0969,-3.08,-3.073,-3.0472,-3.032,-3.0063,-2.9402,-2.9225,-2.9063,-2.8365,-2.8302,-2.8071,-2.6705,-2.637,-2.6207,-2.5632,-2.5595,-2.5662,-2.5703,-2.5703,-2.5703,-2.5703,-2.5703,-2.5703,-2.5683,-2.5631,-2.5558,-2.5484,-2.51,-2.4889,-2.5023,-2.5003,-2.4931,-2.4814,-2.5037,-2.4949,-2.4303,-2.4559,-2.4575,-2.4209,-2.419,-2.419,-2.419,-2.419,-2.419,-2.419,-2.3858,-2.3692,-2.3692,-2.3369,-2.3021,-2.5598,-2.5799,-2.5749,-2.4669,-2.3326,-2.1192,-1.7024,0.0,0.0,0.0,-0.9305,-0.9574,-1.0931,-1.1622,0.0,0.0,0.0,0.0,0.0,0.0,0.0,0.0,0.0,0.0,0.0,0.0,0.0,0.0,0.0,-2.9295,-2.8637,-2.7949,-2.7625,-2.7625,-2.7625,-2.7625,-2.7625,-2.7625,-2.7754,-2.8113,-2.8113,-2.8278,-2.8607,-2.8263,-2.8113,-2.8135,-2.8391,0.0,-2.9451,-3.0038,-3.0658,-3.119,-3.119,-3.119,-3.119,-3.119,-3.119,-3.123,-3.1449,-3.1806,-3.2159,-3.2104,-3.1524,-3.0912,-3.1338,-3.0577,-2.9677,-3.0118,-2.9901,-2.9476,-2.9116,-2.8992,-2.8663,-2.7542,-2.7324,-2.7276,-2.6932,-2.6969,-2.7051,-2.7051,-2.7051,-2.6914,-2.6445,-2.6387,-2.6211,-2.5762,-2.5637,-2.559,-2.5517,-2.5408,-2.5348,-2.5293,-2.5303,-2.5233,-2.508,-2.5212,-2.5072,-2.4561,-2.47,-2.4623,-2.4209,-2.419,-2.419,-2.419,-2.419,-2.419,-2.419,-2.4036,-2.3976,-2.3976,-2.3795,-2.3455,-2.4968,-2.5285,-2.5335,-2.4268,-2.2648,-2.0175,-1.5761,-1.3693,0.0,0.0,-0.8705,-0.9165,-1.1109,0.0,-1.2462,0.0,-1.6221,0.0,0.0,0.0,0.0,0.0,0.0,0.0,0.0,0.0,0.0,0.0,0.0,0.0,-2.8667,-2.7949,-2.7625,-2.7625,-2.7625,-2.7625,-2.7625,-2.7724,-2.8068,-2.8607,-2.8742,-2.9086,-2.9564,-2.9041,-2.8801,-2.8824,-2.8625,0.0,0.0,-2.9957,-3.0518,-3.119,-3.119,-3.119,-3.119,-3.119,-3.119,-3.1269,-3.1565,-3.2039,-3.255,-3.2921,-3.2198,-3.1356,-3.2308,-3.1035,-2.9567,-3.0999,-3.0714,-2.996,-2.9906,-2.9775,-2.939,-2.839,-2.812,-2.8073,-2.811,-2.819,-2.828,-2.8301,-2.8301,-2.8027,-2.7148,-2.6992,-2.6699,-2.582,-2.5659,-2.5601,-2.5539,-2.5451,-2.5406,-2.5321,-2.5303,-2.5274,-2.5253,-2.5274,-2.5149,-2.4818,-2.4804,-2.4639,-2.4266,-2.4228,-2.419,-2.419,-2.419,-2.419,-2.419,-2.419,-2.419,-2.419,-2.4132,-2.3774,-2.5128,-2.5561,-2.5335,-2.4268,-2.2359,-1.9659,-1.5318,0.0,0.0,-0.8752,-0.8462,-0.9232,-1.0755,-1.0298,-1.0853,0.0,0.0,-1.559,0.0,0.0,0.0,0.0,0.0,0.0,0.0,0.0,0.0,0.0,0.0,0.0,-2.8637,-2.7949,-2.7625,-2.7625,-2.7625,-2.7625,-2.7625,-2.8188,-2.8547,-2.8607,-2.9205,-2.952,-2.9579,-2.952,-2.949,-2.9445,-2.8839,0.0,0.0,-2.9707,-3.0166,-3.119,-3.119,-3.119,-3.119,-3.119,-3.119,-3.119,-3.1252,-3.1787,-3.2517,-3.255,-3.2529,-3.247,-3.257,-3.1421,-3.0265,-3.1146,-3.1163,-3.0882,-3.0808,-3.1123,-3.1044,-2.9371,-2.8493,-2.8032,-2.8098,-2.8166,-2.8227,-2.8281,-2.8301,-2.8027,-2.7148,-2.6992,-2.6699,-2.582,-2.5683,-2.5661,-2.5601,-2.5539,-2.5477,-2.5406,-2.5339,-2.5224,-2.5034,-2.5184,-2.5149,-2.4818,-2.4804,-2.47,-2.4478,-2.4303,-2.419,-2.419,-2.419,-2.419,-2.419,-2.419,-2.419,-2.419,-2.3896,-2.3544,-2.2273,-2.3604,-2.428,-2.2849,-2.1066,-1.8646,-1.4715,0.0,-1.1209,-0.8962,-0.8492,-0.8755,-0.9534,-0.9338,-0.9524,0.0,0.0,0.0,0.0,0.0,0.0,0.0,0.0,0.0,0.0,0.0,0.0,0.0,0.0,0.0,-2.9759,-2.8368,-2.7625,-2.7625,-2.7625,-2.7625,-2.7625,-2.7844,-2.8382,-2.919,-2.946,-2.9998,-3.0746,-3.0328,-3.0133,-3.0073,-2.9041,0.0,0.0,-2.987,-3.0369,-3.1799,-3.136,-3.1461,-3.1799,-3.136,-3.1461,-3.1782,-3.1343,-3.1582,-3.2144,-3.2417,-3.2384,-3.2283,-3.2517,-3.1806,-3.1091,-3.1898,-3.1924,-3.1826,-3.2298,-3.2419,-3.2122,-3.0948,-3.0481,-3.0156,-2.9712,-2.9663,-2.9747,-2.9843,-2.9863,-2.9414,-2.8027,-2.7773,-2.7305,-2.5918,-2.5703,-2.5682,-2.5605,-2.559,-2.5526,-2.5401,-2.5339,-2.5264,-2.5192,-2.5253,-2.5192,-2.4943,-2.493,-2.485,-2.4685,-2.4591,-2.4559,-2.4559,-2.4426,-2.4375,-2.4375,-2.4266,-2.419,-2.4208,-2.4074,-2.3816,-1.9637,-2.144,-2.2745,-2.1525,-1.9709,-1.7309,0.0,0.0,-1.0271,-0.8778,-0.828,-0.8233,-0.8578,-0.8662,-0.8679,0.0,0.0,-1.1925,-1.4297,0.0,0.0,0.0,0.0,0.0,0.0,0.0,0.0,0.0,0.0,0.0,-3.0507,-2.9011,-2.821,-2.821,-2.7835,-2.7805,-2.821,-2.7979,-2.8547,-2.9864,-2.9864,-3.0447,-3.1452,-3.1031,-3.0806,-3.0731,-2.9445,0.0,0.0,-2.9982,-3.0418,-3.1901,-3.1393,-3.1512,-3.1901,-3.1376,-3.1512,-3.1884,-3.1376,-3.147,-3.1897,-3.235,-3.2451,-3.2412,-3.2838,-3.2228,-3.1623,-3.2669,-3.2761,-3.2713,-3.3448,-3.3276,-3.2756,-3.2199,-3.1915,-3.1613,-3.1072,-3.0803,-3.0707,-3.0816,-3.0878,-3.043,-2.8945,-2.8476,-2.7793,-2.6309,-2.5879,-2.5683,-2.5634,-2.5607,-2.5561,-2.5471,-2.5376,-2.5312,-2.5313,-2.5303,-2.5253,-2.5099,-2.5034,-2.4962,-2.485,-2.4814,-2.4804,-2.4804,-2.4654,-2.4561,-2.4495,-2.4357,-2.4266,-2.419,-2.419,-2.4016,-1.7835,-1.9629,-2.0637,-2.0707,-1.846,-1.5654,0.0,0.0,-0.9006,-0.793,-0.7695,-0.7841,-0.8233,-0.8319,-0.8421,-0.8734,0.0,0.0,0.0,0.0,0.0,0.0,0.0,0.0,0.0,0.0,0.0,0.0,0.0,0.0,-3.0507,-2.9909,-2.9564,-2.9564,-2.8263,-2.8269,-2.9549,-2.8921,-2.9235,-3.0492,-3.0492,-3.0866,-3.1482,-3.1467,-3.1467,-3.1392,0.0,0.0,0.0,-2.9936,-3.0123,-3.1207,-3.119,-3.119,-3.1207,-3.119,-3.119,-3.1207,-3.119,-3.147,-3.1897,-3.235,-3.2809,-3.3255,-3.3662,-3.2669,-3.1733,-3.333,-3.3594,-3.3526,-3.4045,-3.3545,-3.2891,-3.2891,-3.2275,-3.1727,-3.1787,-3.1161,-3.0628,-3.0687,-3.0814,-3.0625,-2.9746,-2.8867,-2.8008,-2.7129,-2.625,-2.5703,-2.5703,-2.5636,-2.5601,-2.5601,-2.5488,-2.5368,-2.5322,-2.5303,-2.5303,-2.5303,-2.5111,-2.501,-2.501,-2.4864,-2.4804,-2.4804,-2.4804,-2.47,-2.4495,-2.4495,-2.4393,-2.419,-2.419,-2.4016,-1.3242,-1.4754,-1.5635,-1.5198,-1.4087,-1.2651,-1.0877,-0.9563,-0.8556,-0.7842,-0.7695,-0.7754,-0.787,-0.7889,-0.7918,-0.8023,-0.8578,0.0,0.0,0.0,0.0,0.0,0.0,0.0,0.0,0.0,0.0,0.0,0.0,0.0,-3.121,-3.0567,-3.0028,-2.9594,-2.9175,-2.9146,-2.9579,-2.937,-2.9475,-2.9879,-3.0298,-3.0612,-3.0851,-3.1315,-3.127,0.0,0.0,0.0,0.0,-3.0433,-3.0758,-3.1935,-3.1935,-3.2256,-3.2645,-3.2121,-3.2256,-3.256,-3.1546,-3.147,-3.1897,-3.235,-3.2809,-3.3273,-3.368,-3.344,-3.318,-3.387,-3.4188,-3.4377,-3.4721,-3.4755,-3.4526,-3.393,-3.3141,-3.2401,-3.1903,-3.1161,-3.0628,-3.0687,-3.0814,-3.0625,-2.9746,-2.8887,-2.8008,-2.7129,-2.6269,-2.5703,-2.5703,-2.5683,-2.5658,-2.5603,-2.5561,-2.5484,-2.5376,-2.5321,-2.5303,-2.5303,-2.5234,-2.5203,-2.5203,-2.516,-2.5138,-2.5138,-2.5005,-2.4898,-2.4845,-2.4604,-2.4393,-2.419,-2.419,-2.4151,-0.9934,-1.148,-1.24,-1.2247,-1.139,0.0,0.0,-0.8474,-0.7708,-0.7685,-0.7695,-0.7695,-0.7695,-0.7695,-0.7695,-0.7695,-0.8503,0.0,0.0,0.0,0.0,0.0,0.0,0.0,0.0,0.0,0.0,0.0,0.0,0.0,-3.1482,-3.0881,-3.0447,-3.0313,-2.9609,-2.9564,-3.0313,-2.9579,-2.9579,-3.0313,-3.0447,-3.0507,-3.0507,-3.0941,-3.0791,0.0,0.0,0.0,0.0,-3.0833,-3.1324,-3.2313,-3.2313,-3.256,-3.2899,-3.2154,-3.2171,-3.2442,-3.1512,-3.147,-3.1897,-3.235,-3.2903,-3.3465,-3.3734,-3.3807,-3.3868,-3.4123,-3.4423,-3.4754,-3.5016,-3.5055,-3.4968,-3.4737,-3.3545,-3.2396,-3.2237,-3.1329,-3.0581,-3.0657,-3.0743,-3.0661,-3.0176,-2.9082,-2.8125,-2.7578,-2.6465,-2.5703,-2.5703,-2.5703,-2.5683,-2.5637,-2.5627,-2.5564,-2.5473,-2.5391,-2.5321,-2.5313,-2.5303,-2.5303,-2.5303,-2.5303,-2.5303,-2.5303,-2.5173,-2.5077,-2.501,-2.4663,-2.4445,-2.4321,-2.4247,-2.419,0.0,-0.9387,-1.0432,0.0,0.0,0.0,0.0,0.0,0.0,-0.7511,-0.7695,-0.7705,-0.7744,-0.7725,-0.7705,-0.7744,-0.8797,0.0,0.0,0.0,0.0,0.0,0.0,0.0,0.0,0.0,0.0,0.0,0.0,0.0,-3.1407,-3.0851,-3.0776,-3.1375,-2.9624,-2.9594,-3.1452,-2.9729,-2.9684,-3.139,-3.0791,-3.0447,-3.0372,-3.0417,-3.0103,0.0,0.0,0.0,0.0,-3.1111,-3.1766,-3.229,-3.2432,-3.2432,-3.2313,-3.1596,-3.1309,-3.1258,-3.1207,-3.1487,-3.1915,-3.2433,-3.3118,-3.3807,-3.3807,-3.3807,-3.3868,-3.4099,-3.4401,-3.4734,-3.4999,-3.4661,-3.4455,-3.5224,-3.3545,-3.1968,-3.2679,-3.1639,-3.0591,-3.0581,-3.0696,-3.0801,-3.0878,-2.9453,-2.8301,-2.8301,-2.6816,-2.5703,-2.5703,-2.5703,-2.5703,-2.5703,-2.5637,-2.5603,-2.5601,-2.5488,-2.5368,-2.5313,-2.5293,-2.5303,-2.5303,-2.5303,-2.5303,-2.5303,-2.5303,-2.5203,-2.501,-2.4693,-2.451,-2.4495,-2.4303,-2.4209,-0.5733,0.0,-0.6074,-0.6526,-0.6303,-0.6162,0.0,0.0,0.0,0.0,0.0,0.0,0.0,-0.7949,-0.7802,-0.8174,-0.901,-0.9751,0.0,0.0,0.0,0.0,0.0,0.0,0.0,0.0,0.0,0.0,0.0,-3.13,-3.0776,-3.0597,-3.0357,-3.0058,-2.9594,-3.0058,-3.1467,-3.1076,-3.0567,-3.0043,-3.0357,-2.9998,-2.9056,-2.9564,-2.9445,0.0,0.0,0.0,-2.9739,-3.0898,-3.1766,-3.2391,-3.3525,-3.3643,-3.3119,-3.2949,-3.2527,-3.1935,-3.1393,-3.1694,-3.2466,-3.3255,-3.3634,-3.3807,-3.3807,-3.3807,-3.3815,-3.3876,-3.4093,-3.4401,-3.4714,-3.4829,-3.4818,-3.4576,-3.3545,-3.2506,-3.2064,-3.1736,-3.1301,-3.0649,-3.1168,-3.149,-3.086,-2.9391,-2.8301,-2.8301,-2.6816,-2.5703,-2.5703,-2.5703,-2.5703,-2.5703,-2.5683,-2.5659,-2.5603,-2.5488,-2.5379,-2.5376,-2.5321,-2.5303,-2.5303,-2.5303,-2.5303,-2.5303,-2.5303,-2.5203,-2.501,-2.4924,-2.4747,-2.4495,-2.4444,-2.4358,-0.4873,-0.5011,-0.5146,-0.5371,-0.5555,-0.5876,-0.6572,0.0,0.0,0.0,0.0,0.0,0.0,0.0,0.0,0.0,-0.9713,0.0,0.0,0.0,0.0,0.0,0.0,0.0,0.0,0.0,0.0,0.0,0.0,-3.0896,-3.0522,-2.9953,-2.9624,-2.9579,-2.928,-2.9624,-3.0627,-3.0642,-3.0283,-2.9579,-2.9924,-2.9564,-2.8607,-2.8966,-2.8771,0.0,0.0,0.0,-2.9499,-3.0833,-3.1766,-3.2357,-3.3169,-3.3237,-3.2848,-3.251,-3.2138,-3.1732,-3.1326,-3.175,-3.2648,-3.3504,-3.3807,-3.3807,-3.3807,-3.3807,-3.3807,-3.3807,-3.3986,-3.4288,-3.4593,-3.4604,-3.4544,-3.4754,-3.3833,-3.2891,-3.2852,-3.227,-3.1621,-3.1187,-3.1242,-3.1231,-3.0788,-2.9369,-2.8437,-2.8848,-2.707,-2.5996,-2.6797,-2.6191,-2.5859,-2.625,-2.5937,-2.5683,-2.5658,-2.5554,-2.5488,-2.5453,-2.5376,-2.5348,-2.5348,-2.5322,-2.5303,-2.5303,-2.5303,-2.5253,-2.5141,-2.5046,-2.4911,-2.4737,-2.4575,-2.4426,-0.4787,-0.5327,-0.5881,-0.5823,-0.6094,-0.6523,-0.6992,0.0,0.0,0.0,0.0,0.0,0.0,-0.8079,0.0,0.0,0.0,0.0,0.0,0.0,0.0,0.0,0.0,0.0,0.0,0.0,0.0,0.0,0.0,-3.0231,-3.0357,-2.9235,-2.8801,-2.9265,-2.8831,-2.8816,-2.9265,-2.9475,-2.9579,-2.9579,-2.949,-2.9086,-2.8442,-2.8442,-2.8128,-2.7625,0.0,0.0,-2.9499,-3.0833,-3.1766,-3.229,-3.2408,-3.2374,-3.2205,-3.1596,-3.1292,-3.119,-3.1252,-3.1737,-3.2488,-3.3411,-3.357,-3.3458,-3.3587,-3.3532,-3.3421,-3.3421,-3.3776,-3.42,-3.4379,-3.4188,-3.4151,-3.5038,-3.4134,-3.3256,-3.3872,-3.2891,-3.185,-3.1806,-3.1235,-3.0761,-3.0685,-2.9439,-2.873,-2.9472,-2.748,-2.6484,-2.8086,-2.6777,-2.6035,-2.6914,-2.6211,-2.5703,-2.5703,-2.5658,-2.5598,-2.552,-2.5459,-2.5413,-2.5398,-2.533,-2.5303,-2.5303,-2.5303,-2.5303,-2.5303,-2.5141,-2.5034,-2.4979,-2.4708,-2.4543,-0.5119,-0.5804,-0.6221,-0.5891,-0.6094,-0.6523,-0.6992,0.0,0.0,0.0,0.0,0.0,0.0,-0.9817,0.0,0.0,0.0,0.0,0.0,0.0,0.0,0.0,0.0,0.0,0.0,0.0,0.0,0.0,0.0,-2.9034,-2.9714,-2.9011,-2.8382,-2.794,-2.8353,-2.8368,-2.7889,-2.9011,-2.9579,-2.9564,-2.9011,-2.8382,-2.7724,-2.7724,-2.773,-2.7625,0.0,-2.8826,-2.9499,-3.0833,-3.1766,-3.2341,-3.2983,-3.2848,-3.2313,-3.2154,-3.1732,-3.1269,-3.1603,-3.1603,-3.1696,-3.2889,-3.2593,-3.1898,-3.2596,-3.2302,-3.177,-3.177,-3.2794,-3.3762,-3.338,-3.3909,-3.4472,-3.4151,-3.4031,-3.3833,-3.3237,-3.2891,-3.2519,-3.185,-3.1661,-3.1377,-3.0665,-2.9859,-2.9355,-2.9491,-2.7964,-2.7168,-2.8164,-2.6777,-2.6035,-2.6914,-2.6211,-2.5703,-2.5703,-2.5683,-2.5683,-2.5662,-2.5554,-2.5465,-2.5394,-2.5339,-2.5303,-2.5303,-2.5303,-2.5303,-2.5303,-2.5264,-2.5163,-2.501,-2.4949,-2.4762,-0.4497,-0.5218,-0.597,-0.6501,-0.6867,-0.7092,0.0,0.0,0.0,0.0,0.0,0.0,0.0,0.0,0.0,0.0,0.0,0.0,0.0,0.0,0.0,0.0,0.0,0.0,0.0,0.0,0.0,0.0,0.0,0.0,-2.9056,-2.8412,-2.7904,-2.7625,-2.7874,-2.8068,-2.8128,-2.8368,-2.8502,-2.8502,-2.8188,-2.7874,-2.7625,-2.7625,-2.7625,-2.7625,0.0,-2.8826,-2.9467,-3.0424,-3.1141,-3.1732,-3.207,-3.2002,-3.1698,-3.1698,-3.1478,-3.1201,-3.1177,-3.1235,-3.1363,-3.1804,-3.171,-3.1458,-3.1843,-3.1678,-3.1311,-3.087,-3.1916,-3.3132,-3.305,-3.3845,-3.466,-3.4539,-3.4711,-3.4661,-3.3795,-3.3237,-3.266,-3.1852,-3.1379,-3.0828,-2.9937,-2.957,-2.9401,-2.9448,-2.802,-2.7588,-2.9366,-2.7323,-2.6211,-2.7559,-2.6504,-2.5703,-2.5703,-2.5703,-2.5683,-2.5658,-2.5595,-2.5511,-2.5465,-2.5391,-2.5346,-2.5354,-2.5322,-2.5303,-2.5303,-2.5303,-2.5253,-2.5163,-2.5046,-2.4924,-0.4021,-0.4719,-0.5625,-0.6599,0.0,0.0,0.0,0.0,0.0,0.0,0.0,0.0,0.0,0.0,0.0,0.0,0.0,0.0,0.0,0.0,0.0,0.0,0.0,0.0,0.0,0.0,0.0,0.0,0.0,0.0,-2.8592,-2.7949,-2.7625,-2.7625,-2.7625,-2.7829,-2.8353,-2.7844,-2.77,-2.7814,-2.77,-2.7625,-2.7625,-2.7625,-2.7625,-2.7625,-2.8238,-2.8826,-2.9451,-3.0038,-3.0658,-3.119,-3.119,-3.119,-3.119,-3.119,-3.119,-3.115,-3.0707,-3.0698,-3.085,-3.076,-3.0722,-3.0734,-3.1029,-3.098,-3.0705,-3.0099,-3.1091,-3.2371,-3.2567,-3.3608,-3.4655,-3.4944,-3.5207,-3.5182,-3.4372,-3.3526,-3.266,-3.1852,-3.1039,-3.0202,-2.934,-2.9404,-2.9538,-2.9376,-2.8277,-2.8236,-3.0404,-2.7936,-2.6561,-2.8104,-2.6738,-2.5703,-2.5703,-2.5703,-2.5683,-2.5633,-2.5605,-2.559,-2.5535,-2.5447,-2.5406,-2.5394,-2.5339,-2.5303,-2.5303,-2.5303,-2.5303,-2.5303,-2.5152,-2.5149,-0.4433,-0.4974,-0.5423,-0.5524,-0.6966,0.0,-1.0838,-1.1302,0.0,-1.1816,0.0,0.0,0.0,0.0,0.0,0.0,0.0,0.0,0.0,0.0,0.0,0.0,0.0,0.0,0.0,0.0,0.0,0.0,0.0,0.0,-2.851,-2.7949,-2.7625,-2.7625,-2.7625,-2.764,-2.7685,-2.764,-2.7889,-2.8517,-2.7874,-2.7625,-2.7625,-2.7625,-2.7625,-2.7625,-2.8238,-2.8826,-2.9451,-3.0038,-3.0658,-3.119,-3.119,-3.119,-3.119,-3.119,-3.119,-3.1089,-3.0383,-2.9913,-2.9692,-3.0123,-2.9515,-2.883,-2.9948,-2.9769,-2.914,-2.9085,-3.0246,-3.1501,-3.1526,-3.2876,-3.4334,-3.4653,-3.4944,-3.4958,-3.4345,-3.3526,-3.266,-3.1852,-3.0987,-3.0133,-2.9259,-2.9835,-3.0148,-2.9334,-2.9156,-2.9497,-3.0475,-2.8381,-2.7162,-2.8118,-2.6695,-2.5703,-2.5703,-2.5703,-2.5703,-2.5683,-2.5634,-2.5601,-2.5598,-2.5477,-2.5394,-2.5394,-2.5339,-2.5303,-2.5303,-2.5303,-2.5303,-2.5303,-2.5293,-2.5614,-0.4113,-0.506,-0.6182,-0.7151,-0.829,0.0,0.0,-1.1022,-1.1943,-1.1836,-1.3129,0.0,0.0,0.0,0.0,0.0,0.0,0.0,0.0,0.0,0.0,0.0,0.0,0.0,0.0,0.0,0.0,0.0,0.0,0.0,-2.7897,-2.776,-2.7625,-2.7625,-2.7625,-2.743,-2.6961,-2.6961,-2.6886,-2.6752,-2.7305,-2.7625,-2.7625,-2.7625,-2.7625,-2.7625,-2.8238,-2.8654,-2.8888,-2.9404,-2.974,-2.9999,-3.0381,-3.0531,-3.0531,-3.0531,-3.0818,-3.0954,-2.9279,-2.904,-2.9433,-2.8934,-2.8612,-2.8525,-2.9253,-2.9232,-2.8994,-2.8994,-2.9806,-3.076,-3.1256,-3.2773,-3.4157,-3.3953,-3.4111,-3.399,-3.2872,-3.2391,-3.191,-3.1064,-3.0641,-3.0121,-2.9256,-2.9839,-2.9967,-2.8608,-2.8449,-2.8616,-2.8934,-2.7254,-2.6361,-2.7242,-2.6303,-2.5874,-2.6465,-2.6016,-2.5937,-2.6465,-2.5975,-2.5661,-2.5661,-2.5567,-2.5493,-2.5451,-2.5406,-2.5329,-2.5303,-2.5303,-2.5303,-2.5303,-2.587,-2.6243,-0.3774,-0.5033,-0.6544,-0.7628,0.0,0.0,-1.0376,-1.1445,-1.25,-1.2734,-1.401,0.0,0.0,0.0,0.0,0.0,0.0,0.0,0.0,0.0,0.0,0.0,0.0,0.0,0.0,0.0,0.0,0.0,0.0,0.0,0.0,-2.7091,-2.7171,-2.6961,-2.6946,-2.6737,-2.6288,-2.6273,-2.6048,-2.5615,-2.6512,-2.6946,-2.6946,-2.6946,-2.7066,-2.731,-2.7738,-2.7996,-2.8233,-2.8716,-2.8976,-2.917,-2.9568,-2.9888,-3.0108,-3.0108,-3.0429,-3.0598,-2.8805,-2.8509,-2.8835,-2.7979,-2.7964,-2.8316,-2.8682,-2.8905,-2.8994,-2.8994,-2.9586,-3.0338,-3.087,-3.2145,-3.3283,-3.3146,-3.3201,-3.2994,-3.1937,-3.1698,-3.1448,-3.0571,-3.0398,-3.0121,-2.9256,-2.9813,-2.9929,-2.8486,-2.856,-2.8763,-2.8762,-2.7535,-2.6804,-2.7162,-2.6727,-2.6668,-2.732,-2.6833,-2.6756,-2.7363,-2.6855,-2.6269,-2.5723,-2.5907,-2.598,-2.5929,-2.6143,-2.6226,-2.6149,-2.6149,-2.614,-2.614,-2.6736,-2.7159,-0.3519,-0.4903,-0.6329,0.0,0.0,0.0,-1.3187,-1.317,-1.3369,-1.5059,0.0,-1.6095,-1.7386,0.0,0.0,0.0,0.0,0.0,0.0,0.0,0.0,0.0,0.0,0.0,0.0,0.0,0.0,0.0,0.0,0.0,0.0,-2.5908,-2.6273,-2.563,-2.5615,-2.5615,-2.56,-2.56,-2.56,-2.5585,-2.5585,-2.56,-2.5615,-2.5615,-2.5974,-2.6587,-2.6572,-2.6927,-2.7534,-2.8056,-2.8543,-2.8958,-2.8975,-2.9431,-3.0091,-3.0091,-3.0091,-2.9989,-2.9228,-2.845,-2.7759,-2.742,-2.756,-2.7964,-2.8298,-2.8682,-2.8975,-2.8994,-2.9586,-3.0191,-3.0191,-3.0779,-3.1552,-3.231,-3.2329,-3.2103,-3.1757,-3.1698,-3.1429,-3.0571,-3.0398,-3.014,-2.9256,-2.9833,-3.0102,-2.9217,-2.9833,-3.0379,-3.0379,-2.9689,-2.8908,-2.8184,-2.8093,-2.8126,-2.8207,-2.8193,-2.8227,-2.8301,-2.8301,-2.7519,-2.5801,-2.6495,-2.691,-2.691,-2.7694,-2.8079,-2.7997,-2.7989,-2.7969,-2.7901,-2.7909,-2.8332,-0.5405,-0.7111,0.0,-0.946,0.0,0.0,0.0,-1.3627,0.0,0.0,-1.6847,-1.7755,-1.7945,0.0,0.0,0.0,0.0,0.0,0.0,0.0,0.0,0.0,0.0,0.0,0.0,0.0,0.0,0.0,0.0,0.0,0.0,-2.5063,-2.5398,-2.5615,-2.5615,-2.539,-2.4881,-2.4881,-2.4672,-2.4193,-2.4193,-2.4687,-2.5615,-2.5615,-2.5974,-2.6557,-2.6093,-2.6296,-2.6866,-2.6828,-2.686,-2.6978,-2.7801,-2.8298,-2.8465,-2.8465,-2.8839,-2.9127,-2.7824,-2.776,-2.8163,-2.7822,-2.7591,-2.7579,-2.8543,-2.8526,-2.8282,-2.8851,-2.9159,-2.9412,-2.9595,-2.9673,-2.9986,-3.1111,-3.1476,-3.1416,-3.0899,-3.0794,-3.0717,-3.0436,-3.0398,-3.0321,-3.0063,-3.0237,-3.0102,-2.9217,-2.9313,-2.9275,-2.8717,-2.8422,-2.8222,-2.8055,-2.8024,-2.8281,-2.8929,-2.8462,-2.8416,-2.9105,-2.8578,-2.8021,-2.7559,-2.7753,-2.7866,-2.7811,-2.8056,-2.8143,-2.806,-2.8015,-2.7992,-2.7978,-2.8501,-2.8871,-0.5804,-0.7849,0.0,-1.0648,-1.2234,-1.3662,-1.374,0.0,0.0,0.0,0.0,-1.8725,-1.8892,0.0,0.0,0.0,0.0,0.0,0.0,0.0,0.0,0.0,0.0,0.0,0.0,0.0,0.0,0.0,0.0,0.0,0.0,-2.4014,-2.444,-2.4761,-2.4807,-2.4627,-2.4223,-2.4223,-2.4014,-2.3595,-2.3595,-2.4029,-2.4807,-2.4807,-2.5315,-2.6168,-2.551,-2.5574,-2.6123,-2.5894,-2.5891,-2.6082,-2.7009,-2.7554,-2.7789,-2.7789,-2.8112,-2.8383,-2.7469,-2.7385,-2.7734,-2.7687,-2.7376,-2.7169,-2.804,-2.7821,-2.742,-2.7915,-2.8282,-2.8566,-2.8722,-2.8704,-2.8955,-3.0223,-3.0604,-3.062,-3.0445,-3.0398,-3.0398,-3.0398,-3.0398,-3.0398,-3.0398,-3.0398,-3.0217,-2.9698,-2.9621,-2.9448,-2.8967,-2.889,-2.8923,-2.8956,-2.8956,-2.9186,-2.9725,-2.9336,-2.9317,-2.9901,-2.9475,-2.9218,-2.9253,-2.8964,-2.8808,-2.8763,-2.9095,-2.924,-2.9121,-2.9099,-2.9059,-2.8996,-2.9439,-2.9638,-0.5423,0.0,0.0,-1.0611,-1.2801,0.0,-1.4443,0.0,-1.6356,-1.7334,0.0,0.0,0.0,0.0,0.0,0.0,0.0,0.0,0.0,0.0,0.0,0.0,0.0,0.0,0.0,0.0,0.0,0.0,0.0,0.0,0.0,-2.2838,-2.3516,-2.3523,-2.3551,-2.3565,-2.352,-2.352,-2.349,-2.343,-2.349,-2.355,-2.3595,-2.3595,-2.4268,-2.539,-2.4821,-2.4835,-2.5219,-2.5179,-2.5449,-2.5961,-2.6436,-2.708,-2.7688,-2.7688,-2.7688,-2.7671,-2.7603,-2.7199,-2.6706,-2.6988,-2.6842,-2.6606,-2.7004,-2.6809,-2.6521,-2.6594,-2.7126,-2.7677,-2.7677,-2.7835,-2.8278,-2.952,-2.9731,-2.9753,-3.0299,-3.0398,-3.0398,-3.0398,-3.0398,-3.0398,-3.0398,-3.0398,-3.0398,-3.0398,-3.0398,-3.0398,-3.0398,-3.0398,-3.0398,-3.0398,-3.0398,-3.0428,-3.0491,-3.0481,-3.0513,-3.0587,-3.0657,-3.0687,-3.0693,-3.0075,-2.9726,-2.9726,-3.0508,-3.0837,-3.0718,-3.0716,-3.0648,-3.0513,-3.0507,-3.0472,-0.7213,-0.8694,0.0,0.0,-1.4068,-1.543,-1.6035,-1.6113,-1.5674,0.0,0.0,0.0,0.0,0.0,0.0,0.0,0.0,0.0,0.0,0.0,0.0,0.0,0.0,0.0,0.0,0.0,0.0,0.0,0.0,0.0,-2.0966,-2.1705,-2.2381,-2.2889,-2.3363,-2.337,-2.2877,-2.2877,-2.2622,0.0,-2.2622,-2.3131,-2.3595,-2.3595,-2.3759,-2.4059,-2.4448,-2.4357,-2.4006,-2.441,-2.491,-2.5411,-2.5961,-2.6467,-2.6945,-2.6945,-2.6945,-2.686,-2.6285,-2.619,-2.6243,-2.5709,-2.5447,-2.5422,-2.6128,-2.6012,-2.5786,-2.6429,-2.6722,-2.6869,-2.6869,-2.6893,-2.7185,-2.826,-2.8761,-2.926,-3.0189,-3.0398,-3.0398,-3.0398,-3.0398,-3.0398,-3.0398,-3.0398,-3.0398,-3.0398,-3.0398,-3.0398,-3.0398,-3.0398,-3.0398,-3.0398,-3.0398,-3.0421,-3.0417,-3.0417,-3.0462,-3.0532,-3.0537,-3.0594,-3.0693,-3.0641,-3.0625,-3.0625,-3.0801,-3.0898,-3.0858,-3.0747,-3.0687,-3.0642,-3.054,-3.049,-0.719,0.0,0.0,-1.3426,0.0,-1.5791,-1.6045,-1.5918,0.0,0.0,0.0,0.0,0.0,0.0,0.0,0.0,0.0,0.0,0.0,0.0,0.0,0.0,0.0,0.0,0.0,0.0,0.0,0.0,0.0,-1.9022,-1.9938,-2.0533,-2.131,-2.2292,-2.2579,-2.2682,-2.2724,-2.2368,-2.2039,-2.171,-2.2368,-2.2996,-2.361,-2.3939,-2.3909,-2.3625,-2.3984,-2.3924,-2.3638,-2.4184,-2.4712,-2.5259,-2.5779,-2.6297,-2.6691,-2.6691,-2.6691,-2.659,-2.5862,-2.572,-2.5832,-2.5294,-2.4875,-2.473,-2.5348,-2.5193,-2.4905,-2.5328,-2.5731,-2.6025,-2.6025,-2.6025,-2.6291,-2.7288,-2.8012,-2.8787,-2.9964,-3.0209,-3.0254,-3.0386,-3.0398,-3.0398,-3.0398,-3.0398,-3.0398,-3.0398,-3.0398,-3.0398,-3.0398,-3.0398,-3.0398,-3.0398,-3.0398,-3.0398,-3.0398,-3.0398,-3.0425,-3.0462,-3.0491,-3.0537,-3.0611,-3.0732,-3.0837,-3.0898,-3.0898,-3.0898,-3.0898,-3.0836,-3.0769,-3.0693,-3.0638,-3.0561,-0.6421,0.0,-1.0837,-1.3737,-1.5098,0.0,-1.5273,-1.5137,0.0,0.0,0.0,0.0,0.0,0.0,0.0,0.0,0.0,0.0,0.0,0.0,0.0,0.0,0.0,0.0,0.0,0.0,0.0,0.0,0.0,-1.8312,-1.8904,-1.9462,-2.0311,-2.1528,-2.1583,-2.1809,-2.2338,-2.1799,-2.147,-2.135,-2.2024,-2.2667,-2.3295,-2.3864,-2.3939,-2.3595,-2.3595,-2.3595,-2.3638,-2.4074,-2.4514,-2.4968,-2.5603,-2.599,-2.6269,-2.6573,-2.6522,-2.6218,-2.5625,-2.5338,-2.5164,-2.4741,-2.4365,-2.4088,-2.4485,-2.4381,-2.4132,-2.417,-2.4667,-2.5201,-2.5201,-2.5201,-2.5444,-2.6414,-2.727,-2.8185,-2.9478,-2.9889,-3.0075,-3.0299,-3.0367,-3.0398,-3.0398,-3.0398,-3.0398,-3.0398,-3.0398,-3.0398,-3.0398,-3.0398,-3.0398,-3.0398,-3.0398,-3.0398,-3.0398,-3.0398,-3.0398,-3.0398,-3.0442,-3.05,-3.0498,-3.0617,-3.0735,-3.0858,-3.0898,-3.0898,-3.0898,-3.0898,-3.0837,-3.0723,-3.0718,-3.0633,0.0,0.0,-1.135,0.0,-1.3769,-1.4375,0.0,0.0,0.0,0.0,0.0,0.0,0.0,0.0,0.0,0.0,0.0,0.0,0.0,0.0,0.0,0.0,0.0,0.0,0.0,0.0,0.0,0.0,-1.7802,-1.7735,-1.8308,-1.8872,-1.9503,-2.0156,-2.0711,-2.0988,-2.0976,-2.0887,-2.0543,-1.9959,-2.0647,-2.1321,-2.1964,-2.2054,-2.2637,-2.3595,-2.3595,-2.3595,-2.3595,-2.3681,-2.3697,-2.3764,-2.4866,-2.4866,-2.4481,-2.6084,-2.5879,-2.4794,-2.4692,-2.4222,-2.3562,-2.2892,-2.2777,-2.2979,-2.3324,-2.3571,-2.3816,-2.4113,-2.4281,-2.4355,-2.4355,-2.4355,-2.4576,-2.5406,-2.6215,-2.7152,-2.8433,-2.938,-3.0013,-3.0061,-3.0241,-3.0398,-3.0398,-3.0398,-3.0398,-3.0398,-3.0398,-3.0398,-3.0398,-3.0398,-3.0398,-3.0398,-3.0398,-3.0398,-3.0398,-3.0398,-3.0398,-3.0398,-3.0402,-3.0441,-3.0498,-3.0513,-3.0587,-3.0721,-3.0837,-3.0898,-3.0898,-3.0898,-3.0898,-3.0878,-3.0747,-3.069,-0.5545,-0.8147,-1.0709,0.0,-1.2861,-1.3779,-1.3779,0.0,0.0,0.0,0.0,0.0,0.0,0.0,0.0,0.0,0.0,0.0,0.0,0.0,0.0,0.0,0.0,0.0,0.0,0.0,0.0,0.0,-1.7225,-1.7011,-1.7237,-1.7787,-1.8382,-1.8963,-1.9498,-1.9943,-2.0255,-2.0169,-2.0183,-2.0258,-2.0572,-2.1051,-2.1695,-2.1695,-2.2009,-2.2532,-2.2532,-2.2532,-2.2532,-2.2532,-2.2646,-2.2901,-2.3425,-2.3754,-2.3984,-2.483,-2.4874,-2.4455,-2.4019,-2.3663,-2.3274,-2.2547,-2.2473,-2.2721,-2.2933,-2.3318,-2.3714,-2.3876,-2.4054,-2.419,-2.419,-2.419,-2.4281,-2.463,-2.5328,-2.6199,-2.7213,-2.8614,-2.9731,-2.9954,-3.0089,-3.0222,-3.0367,-3.0398,-3.0398,-3.0398,-3.0398,-3.0398,-3.0398,-3.0398,-3.0398,-3.0398,-3.0398,-3.0398,-3.0398,-3.0398,-3.0398,-3.0398,-3.0398,-3.0414,-3.0441,-3.0482,-3.0529,-3.0594,-3.0729,-3.0817,-3.0898,-3.0898,-3.0898,-3.0898,-3.0837,-3.1024,0.0,0.0,-0.9189,-1.0381,-1.1659,-1.2677,0.0,0.0,0.0,0.0,0.0,0.0,0.0,0.0,0.0,0.0,0.0,0.0,0.0,0.0,0.0,0.0,0.0,0.0,0.0,0.0,0.0,0.0,-1.676,-1.6522,-1.6522,-1.6879,-1.7384,-1.8017,-1.846,-1.9008,-1.9627,-1.9694,-1.9944,-2.0453,-2.0453,-2.0707,-2.1186,-2.1186,-2.1186,-2.1201,-2.1545,-2.1695,-2.1695,-2.1695,-2.1795,-2.1993,-2.2298,-2.2687,-2.3227,-2.3737,-2.3927,-2.3883,-2.3528,-2.3274,-2.3038,-2.2496,-2.2453,-2.2625,-2.2747,-2.3105,-2.3477,-2.3649,-2.3876,-2.4094,-2.417,-2.419,-2.419,-2.419,-2.4961,-2.5935,-2.6809,-2.8266,-2.9494,-2.9861,-2.9924,-2.9984,-3.0254,-3.0299,-3.0311,-3.0398,-3.0398,-3.0398,-3.0398,-3.0398,-3.0398,-3.0398,-3.0398,-3.0398,-3.0398,-3.0398,-3.0398,-3.0398,-3.0398,-3.0398,-3.0398,-3.0451,-3.0491,-3.0498,-3.0606,-3.0729,-3.0857,-3.0857,-3.0878,-3.0918,-3.1133,-3.1521,0.0,-0.5913,0.0,-0.8765,0.0,0.0,0.0,0.0,0.0,0.0,0.0,0.0,0.0,0.0,0.0,0.0,0.0,0.0,0.0,0.0,0.0,0.0,0.0,0.0,0.0,0.0,0.0,0.0,-1.6534,-1.6522,-1.6522,-1.6522,-1.6808,-1.731,-1.7881,-1.8394,-1.8936,-1.9457,-1.9705,-1.9735,-1.9735,-1.975,-1.9794,-1.9794,-1.9794,-1.9854,-2.1141,-2.1695,-2.1695,-2.1695,-2.1321,-2.0888,-2.1978,-2.189,-2.136,-2.3227,-2.3262,-2.2513,-2.3173,-2.2936,-2.2361,-2.2327,-2.231,-2.236,-2.2625,-2.2721,-2.288,-2.3522,-2.3714,-2.3795,-2.4113,-2.419,-2.419,-2.419,-2.5401,-2.6825,-2.7808,-2.876,-2.9474,-2.9678,-2.9713,-2.978,-2.9984,-3.0013,-3.0122,-3.0367,-3.0398,-3.0398,-3.0398,-3.0398,-3.0398,-3.0398,-3.0398,-3.0398,-3.0398,-3.0398,-3.0398,-3.0398,-3.0398,-3.0398,-3.0398,-3.039,-3.0449,-3.0498,-3.0516,-3.0575,-3.0718,-3.0718,-3.0771,-3.0918,-3.1758,-3.2148,0.0,0.0,0.0,-0.6811,-0.7888,-0.8896,0.0,0.0,0.0,0.0,0.0,0.0,0.0,0.0,0.0,0.0,0.0,0.0,0.0,0.0,0.0,0.0,0.0,0.0,0.0,0.0,0.0,0.0,0.0,-1.6522,-1.6522,-1.6522,-1.6595,-1.6795,-1.7626,-1.8535,-1.9406,-1.9603,-1.969,-1.969,-1.969,-1.969,-1.969,-1.969,-1.969,-1.972,-2.0198,-2.0408,-2.0408,-2.0408,-2.0273,-2.01,-2.0788,-2.1023,-2.1119,-2.2049,-2.2365,-2.2344,-2.2598,-2.253,-2.231,-2.231,-2.231,-2.2338,-2.2398,-2.2563,-2.2746,-2.2996,-2.3369,-2.3714,-2.3855,-2.4036,-2.419,-2.419,-2.5438,-2.6688,-2.705,-2.8196,-2.9225,-2.9455,-2.9513,-2.957,-2.9763,-2.9813,-2.9829,-2.9946,-2.9962,-2.9962,-2.9962,-2.9962,-2.9962,-2.9962,-2.9962,-2.9988,-3.0136,-3.015,-3.0209,-3.0398,-3.0398,-3.0398,-3.0398,-3.0398,-3.0414,-3.0449,-3.0449,-3.0498,-3.0643,-3.068,-3.0721,-3.079,-3.1757,-3.248,-0.4195,0.0,0.0,0.0,0.0,-0.7287,0.0,0.0,0.0,0.0,0.0,0.0,0.0,0.0,0.0,0.0,0.0,0.0,0.0,0.0,0.0,0.0,0.0,0.0,0.0,0.0,0.0,0.0,0.0,0.0,-1.6522,-1.6522,-1.668,-1.7034,-1.7907,-1.8817,-1.969,-1.969,-1.969,-1.969,-1.969,-1.969,-1.969,-1.969,-1.969,-1.969,-1.969,-1.969,-1.969,-1.969,-1.969,-1.9726,-2.0,-2.0348,-2.0829,-2.1244,-2.1675,-2.2106,-2.2254,-2.231,-2.231,-2.231,-2.231,-2.231,-2.231,-2.2426,-2.2573,-2.2669,-2.3093,-2.3522,-2.3522,-2.3774,-2.4089,-2.4363,-2.534,-2.6264,-2.6539,-2.7658,-2.8713,-2.9169,-2.9045,-2.9016,-2.9495,-2.9607,-2.9607,-2.9696,-2.9696,-2.9696,-2.9696,-2.9696,-2.9696,-2.9696,-2.9696,-2.9746,-2.9893,-2.9908,-3.0003,-3.0254,-3.0267,-3.0311,-3.0398,-3.0398,-3.0398,-3.0398,-3.0398,-3.0441,-3.0529,-3.0606,-3.0665,-3.0735,-3.1984,-3.3182,0.0,0.0,0.0,0.0,0.0,0.0,-0.7519,0.0,-0.9347,0.0,0.0,0.0,0.0,0.0,0.0,0.0,0.0,0.0,0.0,0.0,0.0,0.0,0.0,0.0,0.0,0.0,0.0,0.0,-1.6522,-1.6522,-1.6522,-1.6522,-1.6993,-1.8066,-1.8612,-1.9169,-1.969,-1.969,-1.969,-1.969,-1.969,-1.969,-1.969,-1.969,-1.969,-1.969,-1.969,-1.969,-1.969,-1.969,-1.969,-1.969,-1.9711,-1.998,-2.0348,-2.0845,-2.126,-2.1658,-2.2123,-2.2299,-2.231,-2.231,-2.231,-2.231,-2.231,-2.231,-2.2332,-2.2608,-2.2923,-2.3189,-2.3189,-2.3437,-2.3891,-2.4667,-2.512,-2.5603,-2.6392,-2.7181,-2.797,-2.8792,-2.8338,-2.8132,-2.9202,-2.9392,-2.9435,-2.9643,-2.9678,-2.9678,-2.9678,-2.9678,-2.9678,-2.9678,-2.9678,-2.9678,-2.9696,-2.9696,-2.978,-2.9984,-2.9999,-3.0122,-3.0398,-3.0398,-3.0398,-3.0398,-3.0398,-3.0398,-3.0398,-3.0472,-3.0568,-3.0729,-3.2492,-3.4267,-0.4502,0.0,0.0,0.0,0.0,0.0,-0.5996,-0.6857,-0.776,0.0,0.0,0.0,0.0,0.0,0.0,0.0,0.0,0.0,0.0,0.0,0.0,0.0,0.0,0.0,0.0,0.0,0.0,0.0,-1.6522,-1.6522,-1.6522,-1.6879,-1.7394,-1.8066,-1.8612,-1.9169,-1.969,-1.969,-1.969,-1.969,-1.969,-1.969,-1.969,-1.969,-1.969,-1.969,-1.969,-1.969,-1.969,-1.969,-1.969,-1.9726,-2.0035,-2.0177,-2.041,-2.1351,-2.1681,-2.1694,-2.2283,-2.2408,-2.231,-2.231,-2.231,-2.231,-2.231,-2.231,-2.231,-2.2388,-2.2616,-2.288,-2.3141,-2.3259,-2.3445,-2.392,-2.4552,-2.5172,-2.5617,-2.5917,-2.6465,-2.786,-2.7952,-2.8066,-2.8942,-2.9112,-2.9134,-2.9185,-2.9185,-2.9185,-2.9185,-2.9185,-2.9185,-2.9185,-2.9185,-2.927,-2.9474,-2.9474,-2.9625,-2.9984,-2.9999,-3.0122,-3.0398,-3.0398,-3.0398,-3.0398,-3.0398,-3.0398,-3.0398,-3.0472,-3.0513,-3.0593,-3.2444,-3.4234,0.0,0.0,0.0,0.0,0.0,0.0,-0.5088,-0.5828,-0.6802,0.0,0.0,0.0,0.0,0.0,0.0,0.0,0.0,0.0,0.0,0.0,0.0,0.0,0.0,0.0,0.0,-1.6522,-1.6522,-1.6522,-1.6522,-1.6522,-1.6522,-1.7229,-1.7787,-1.8106,-1.8855,-1.9369,-1.969,-1.969,-1.969,-1.969,-1.969,-1.969,-1.969,-1.969,-1.969,-1.969,-1.969,-1.969,-1.969,-1.969,-1.969,-1.9711,-1.9965,-2.007,-2.0216,-2.1539,-2.1762,-2.1497,-2.2562,-2.2651,-2.231,-2.231,-2.231,-2.231,-2.231,-2.231,-2.231,-2.231,-2.2398,-2.2616,-2.2898,-2.2996,-2.3045,-2.3253,-2.3749,-2.4289,-2.4629,-2.4689,-2.5205,-2.6958,-2.7291,-2.7548,-2.8374,-2.8796,-2.8994,-2.8994,-2.8994,-2.8994,-2.8994,-2.8994,-2.8994,-2.8994,-2.8994,-2.9067,-2.9203,-2.9225,-2.9375,-2.9731,-2.9746,-2.9896,-3.0209,-3.0222,-3.0299,-3.0398,-3.0398,-3.0398,-3.0398,-3.0441,-3.0666,-3.1078,-3.2569,-3.4003,0.0,0.0,0.0,0.0,-0.4445,0.0,-0.48,-0.5447,-0.6321,-0.7453,0.0,0.0,0.0,0.0,0.0,0.0,0.0,0.0,0.0,0.0,0.0,0.0,0.0,0.0,-1.6509,-1.6522,-1.6522,-1.6522,-1.6522,-1.6522,-1.6595,-1.7544,-1.8145,-1.8185,-1.9169,-1.969,-1.969,-1.969,-1.969,-1.969,-1.969,-1.969,-1.969,-1.969,-1.969,-1.969,-1.969,-1.969,-1.969,-1.969,-1.969,-1.969,-1.969,-1.969,-1.9893,-2.1403,-2.155,-2.1231,-2.2731,-2.2815,-2.231,-2.231,-2.231,-2.231,-2.231,-2.231,-2.231,-2.231,-2.231,-2.2332,-2.2599,-2.266,-2.2643,-2.2695,-2.2923,-2.3253,-2.3566,-2.3631,-2.4169,-2.5938,-2.6463,-2.6869,-2.7658,-2.8484,-2.8994,-2.8994,-2.8994,-2.8994,-2.8994,-2.8994,-2.8994,-2.8994,-2.8994,-2.8994,-2.8994,-2.8994,-2.9112,-2.9392,-2.9412,-2.957,-2.9954,-2.9999,-3.0103,-3.0355,-3.0379,-3.0398,-3.0355,-3.0398,-3.0874,-3.1815,-3.2757,-3.3647,0.0,0.0,0.0,0.0,0.0,0.0,-0.5729,-0.5872,-0.6321,0.0,0.0,0.0,0.0,0.0,0.0,0.0,0.0,0.0,0.0,0.0,0.0,0.0,0.0,0.0,-1.6471,-1.6522,-1.6522,-1.6522,-1.6522,-1.668,-1.7105,-1.7747,-1.8302,-1.8727,-1.9369,-1.969,-1.969,-1.969,-1.969,-1.969,-1.969,-1.969,-1.969,-1.969,-1.969,-1.969,-1.969,-1.969,-1.969,-1.969,-1.969,-1.969,-1.969,-1.969,-1.9801,-2.0661,-2.0984,-2.1135,-2.1972,-2.2285,-2.231,-2.231,-2.231,-2.231,-2.231,-2.231,-2.231,-2.231,-2.231,-2.231,-2.236,-2.2388,-2.2426,-2.266,-2.2746,-2.2898,-2.323,-2.33,-2.3481,-2.4151,-2.5531,-2.6869,-2.7658,-2.8484,-2.8994,-2.8994,-2.8994,-2.8994,-2.8994,-2.8994,-2.8994,-2.8994,-2.8994,-2.8994,-2.8994,-2.8994,-2.9112,-2.9392,-2.9412,-2.9513,-2.9765,-2.9924,-3.0028,-3.0075,-3.0299,-3.0279,-3.0075,-3.0279,-3.0845,-3.1738,-3.2677,-3.3565,0.0,0.0,0.0,-0.5782,0.0,0.0,0.0,-0.5716,-0.5899,-0.7133,-0.6693,0.0,0.0,0.0,0.0,0.0,0.0,0.0,0.0,0.0,0.0,0.0,0.0,0.0,-1.6459,-1.6522,-1.6522,-1.6522,-1.6522,-1.671,-1.7271,-1.7827,-1.8341,-1.8893,-1.9406,-1.969,-1.969,-1.969,-1.969,-1.969,-1.969,-1.969,-1.969,-1.969,-1.969,-1.969,-1.969,-1.969,-1.969,-1.969,-1.969,-1.969,-1.969,-1.969,-1.9801,-2.0771,-2.0914,-2.081,-2.194,-2.2159,-2.2003,-2.2209,-2.231,-2.231,-2.231,-2.231,-2.231,-2.231,-2.231,-2.231,-2.231,-2.231,-2.2321,-2.2463,-2.25,-2.259,-2.2873,-2.2947,-2.3045,-2.3392,-2.4864,-2.6294,-2.7083,-2.7879,-2.8539,-2.892,-2.8994,-2.8994,-2.8994,-2.8994,-2.8994,-2.8994,-2.8994,-2.8994,-2.8994,-2.8994,-2.9044,-2.9181,-2.9181,-2.9312,-2.9533,-2.9643,-2.9765,-2.9845,-3.0095,-3.0136,-2.9999,-3.0267,-3.0852,-3.1718,-3.2601,-3.3445,0.0,0.0,0.0,0.0,0.0,-0.6087,0.0,0.0,0.0,-0.6641,0.0,0.0,0.0,0.0,0.0,0.0,0.0,0.0,0.0,0.0,0.0,0.0,0.0,0.0,-1.5969,-1.6341,-1.6522,-1.6522,-1.6522,-1.671,-1.7271,-1.7827,-1.8341,-1.8893,-1.9406,-1.969,-1.969,-1.969,-1.969,-1.969,-1.969,-1.969,-1.969,-1.969,-1.969,-1.969,-1.969,-1.969,-1.969,-1.969,-1.969,-1.969,-1.969,-1.969,-1.9822,-2.0783,-2.0791,-2.0494,-2.1795,-2.1966,-2.1658,-2.2032,-2.2237,-2.231,-2.231,-2.231,-2.231,-2.231,-2.231,-2.231,-2.231,-2.231,-2.231,-2.231,-2.231,-2.2377,-2.259,-2.2608,-2.2712,-2.3045,-2.4098,-2.5255,-2.6222,-2.7169,-2.8044,-2.87,-2.8791,-2.8791,-2.8791,-2.8791,-2.8791,-2.8791,-2.8839,-2.8887,-2.8887,-2.897,-2.8994,-2.8994,-2.8994,-2.9089,-2.931,-2.9372,-2.9493,-2.9625,-2.9845,-2.9924,-2.9893,-3.0142,-3.0676,-3.1468,-3.2449,-3.3276,0.0,0.0,0.0,0.0,-0.6963,0.0,0.0,0.0,-0.6201,-0.5999,0.0,0.0,0.0,0.0,0.0,0.0,0.0,0.0,0.0,0.0,0.0,0.0,0.0,0.0,0.0,-1.5711,-1.6522,-1.6522,-1.6522,-1.671,-1.7271,-1.7827,-1.8341,-1.8893,-1.9406,-1.969,-1.969,-1.969,-1.969,-1.969,-1.969,-1.969,-1.969,-1.969,-1.969,-1.969,-1.969,-1.969,-1.969,-1.969,-1.969,-1.969,-1.969,-1.969,-1.9726,-1.9837,-2.0076,-2.033,-2.0494,-2.1023,-2.1628,-2.1658,-2.1974,-2.231,-2.231,-2.231,-2.231,-2.231,-2.231,-2.231,-2.231,-2.231,-2.231,-2.231,-2.231,-2.231,-2.2349,-2.2349,-2.2426,-2.2712,-2.2911,-2.3579,-2.5311,-2.6872,-2.7931,-2.802,-2.8037,-2.8037,-2.8037,-2.8037,-2.8037,-2.8037,-2.829,-2.8471,-2.8471,-2.8815,-2.8994,-2.8994,-2.8994,-2.9017,-2.9044,-2.9267,-2.9412,-2.9434,-2.9625,-2.9662,-2.9474,-2.968,-3.003,-3.059,-3.2179,-3.2949,0.0,0.0,0.0,0.0,0.0,0.0,-0.6553,0.0,-0.6436,0.0,0.0,0.0,0.0,0.0,0.0,0.0,-0.6117,0.0,0.0,0.0,0.0,0.0,0.0,0.0,0.0,0.0,0.0,0.0,-1.4902,-1.5338,-1.5808,-1.7256,-1.8341,-1.8893,-1.9406,-1.969,-1.969,-1.969,-1.969,-1.969,-1.969,-1.969,-1.969,-1.969,-1.969,-1.969,-1.969,-1.969,-1.969,-1.969,-1.969,-1.969,-1.969,-1.969,-1.969,-1.969,-1.9818,-2.0,-2.0212,-2.0534,-2.0927,-2.143,-2.1928,-2.231,-2.231,-2.231,-2.231,-2.231,-2.231,-2.231,-2.231,-2.231,-2.231,-2.231,-2.231,-2.231,-2.231,-2.231,-2.2321,-2.2453,-2.2805,-2.3356,-2.4143,-2.5522,-2.6817,-2.7756,-2.7897,-2.7897,-2.7897,-2.7897,-2.7897,-2.7897,-2.8037,-2.8102,-2.8102,-2.8438,-2.8658,-2.8658,-2.8863,-2.8994,-2.8994,-2.9112,-2.9178,-2.9178,-2.9395,-2.9474,-2.9412,-2.9607,-2.9799,-3.003,-3.1346,-3.2493,-0.9189,0.0,0.0,0.0,0.0,0.0,0.0,0.0,0.0,0.0,0.0,0.0,0.0,0.0,0.0,0.0,0.0,-0.5723,0.0,0.0,0.0,0.0,0.0,0.0,0.0,0.0,0.0,-1.2585,-1.3123,-1.3839,-1.4734,-1.6459,-1.7847,-1.8878,-1.9406,-1.969,-1.969,-1.969,-1.969,-1.969,-1.969,-1.969,-1.969,-1.969,-1.969,-1.969,-1.969,-1.969,-1.969,-1.969,-1.969,-1.969,-1.969,-1.969,-1.969,-1.969,-1.969,-1.9747,-2.0035,-2.0227,-2.0434,-2.1321,-2.1823,-2.2135,-2.2254,-2.231,-2.231,-2.231,-2.231,-2.231,-2.231,-2.231,-2.231,-2.231,-2.231,-2.231,-2.231,-2.231,-2.231,-2.231,-2.2733,-2.3156,-2.3359,-2.443,-2.5687,-2.7052,-2.7262,-2.7332,-2.7542,-2.756,-2.756,-2.756,-2.7648,-2.7754,-2.7754,-2.8075,-2.8298,-2.8376,-2.8682,-2.8887,-2.8994,-2.8994,-2.8994,-2.8994,-2.9181,-2.9289,-2.9289,-2.9455,-2.9495,-2.9551,-3.0911,-3.2102,0.0,0.0,0.0,-0.9476,0.0,0.0,0.0,0.0,-0.708,0.0,0.0,0.0,0.0,0.0,0.0,0.0,0.0,0.0,0.0,0.0,0.0,0.0,0.0,0.0,0.0,0.0,-1.1222,-1.1259,-1.1529,-1.2609,-1.4703,-1.5353,-1.6683,-1.8835,-1.9406,-1.969,-1.969,-1.969,-1.969,-1.969,-1.969,-1.969,-1.969,-1.969,-1.969,-1.969,-1.969,-1.969,-1.969,-1.969,-1.969,-1.969,-1.969,-1.969,-1.969,-1.969,-1.969,-1.969,-1.9711,-1.9965,-2.0434,-2.1321,-2.1628,-2.1718,-2.2163,-2.231,-2.231,-2.231,-2.231,-2.231,-2.231,-2.231,-2.231,-2.231,-2.231,-2.231,-2.231,-2.231,-2.231,-2.231,-2.2327,-2.2564,-2.3274,-2.4032,-2.4791,-2.5556,-2.5675,-2.5929,-2.6673,-2.6758,-2.6758,-2.6758,-2.7083,-2.7334,-2.7334,-2.7678,-2.8047,-2.8394,-2.842,-2.859,-2.8975,-2.8994,-2.8994,-2.8994,-2.9017,-2.9017,-2.9017,-2.9017,-2.9021,-2.9058,-3.1182,-3.1895,0.0,0.0,-1.0773,-1.0869,0.0,0.0,0.0,0.0,0.0,0.0,0.0,0.0,0.0,0.0,0.0,0.0,0.0,0.0,0.0,0.0,0.0,0.0,0.0,0.0,0.0,0.0,0.0,-0.9206,-0.9679,-1.0893,-1.3101,-1.4718,-1.6612,-1.8835,-1.9406,-1.969,-1.969,-1.969,-1.969,-1.969,-1.969,-1.969,-1.969,-1.969,-1.969,-1.969,-1.969,-1.969,-1.969,-1.969,-1.969,-1.969,-1.969,-1.969,-1.969,-1.969,-1.969,-1.969,-1.969,-1.9965,-2.0348,-2.0634,-2.1134,-2.1628,-2.1794,-2.2032,-2.231,-2.231,-2.231,-2.231,-2.231,-2.231,-2.231,-2.231,-2.231,-2.231,-2.231,-2.231,-2.231,-2.231,-2.231,-2.2547,-2.3274,-2.3596,-2.4188,-2.5423,-2.6031,-2.642,-2.6657,-2.6691,-2.6691,-2.6691,-2.6808,-2.6906,-2.6906,-2.7272,-2.7678,-2.8047,-2.829,-2.8446,-2.8608,-2.8863,-2.8994,-2.8994,-2.8994,-2.8994,-2.8994,-2.8994,-2.8994,-2.9035,-3.0272,-3.1147,-1.193,-1.1851,0.0,-1.1998,-1.1152,0.0,-0.9971,0.0,0.0,0.0,0.0,0.0,0.0,0.0,0.0,0.0,0.0,0.0,0.0,-0.5645,0.0,0.0,0.0,0.0,0.0,0.0,-0.6497,-0.7481,-0.7968,-0.953,0.0,0.0,-1.6113,-1.9082,-1.953,-1.969,-1.969,-1.969,-1.969,-1.969,-1.969,-1.969,-1.969,-1.969,-1.969,-1.969,-1.969,-1.969,-1.969,-1.969,-1.969,-1.969,-1.969,-1.969,-1.969,-1.969,-1.969,-1.969,-1.969,-1.9874,-2.0124,-2.0246,-2.0667,-2.1197,-2.1521,-2.1794,-2.2077,-2.2237,-2.231,-2.231,-2.231,-2.231,-2.231,-2.231,-2.231,-2.231,-2.231,-2.231,-2.231,-2.231,-2.2513,-2.2852,-2.3325,-2.3833,-2.4509,-2.5473,-2.5998,-2.6404,-2.6657,-2.6691,-2.6691,-2.6691,-2.6691,-2.6691,-2.6691,-2.6939,-2.7272,-2.7648,-2.789,-2.8084,-2.821,-2.8583,-2.8901,-2.9217,-2.9075,-2.9122,-2.9439,-2.9122,-2.8994,-2.9012,-2.9843,-3.0715]},{"header":{"parameterUnit":"m.s-1","parameterCategory":1,"la1":30.6,"la2":29.2853,"lo1":-89.7004,"lo2":-87.6739,"dy":0.0162,"dx":0.0183,"nx":112,"ny":82,"refTime":"2023-11-07T06:00:00:Z","depth":0,"parameterNumber":3,"parameterNumberName":"V-component_of_WINDS"},"data":[0.0,0.0,0.0,0.0,0.0,0.0,0.0,0.0,0.0,0.0,0.0,0.0,0.0,0.0,0.0,0.0,0.0,0.0,0.0,0.0,0.0,0.0,0.0,0.0,0.0,0.0,0.0,0.0,0.0,0.0,0.0,0.0,0.0,0.0,0.0,0.0,0.0,0.0,0.0,0.0,0.0,0.0,0.0,0.0,0.0,0.0,0.0,0.0,0.0,0.0,0.0,0.0,0.0,0.0,0.0,0.0,0.0,0.0,0.0,0.0,0.0,0.0,0.0,0.0,0.0,0.0,0.0,0.0,0.0,0.0,0.0,0.0,0.0,0.0,0.0,0.0,0.0,0.0,0.0,0.0,0.0,0.0,0.0,0.0,0.0,0.0,0.0,0.0,0.0,0.0,0.7447,0.7284,0.8901,1.0424,1.15,1.212,1.1682,0.9934,0.0,0.0,0.0,0.0,0.0,0.0,0.0,0.0,0.0,0.0,0.0,0.0,0.0,0.0,0.0,0.0,0.0,0.0,0.0,0.0,0.0,0.0,0.0,0.0,0.0,0.0,0.0,0.0,0.0,0.0,0.0,0.0,0.0,0.0,0.0,0.0,0.0,0.0,0.0,0.0,0.0,0.0,0.0,0.0,0.0,0.0,0.0,0.0,0.0,0.0,0.0,0.0,0.0,0.0,0.0,0.0,0.0,0.0,0.0,0.0,0.0,0.0,0.0,0.0,0.0,0.0,0.0,0.0,0.0,0.0,0.0,0.0,0.0,0.0,0.0,0.0,0.0,0.0,0.0,0.0,0.0,0.0,0.0,0.0,0.0,0.0,0.0,0.0,0.0,0.0,0.0,0.0,0.0,0.0,0.0,0.0,0.0,0.0,0.0,0.0,0.0,0.0,0.0,0.0,0.7407,0.9525,0.9898,1.0424,1.15,1.1094,1.1027,1.1644,0.0,0.0,0.0,0.0,0.0,0.0,0.0,0.0,0.0,0.0,0.0,0.0,0.0,0.0,0.0,0.0,0.0,0.0,0.0,0.0,0.0,0.0,0.0,0.0,0.0,0.0,0.0,0.0,0.0,0.0,0.0,0.0,0.0,0.0,0.0,0.0,0.0,0.0,0.0,0.0,0.0,0.0,0.0,0.0,0.0,0.0,0.0,0.0,0.0,0.0,0.0,0.0,0.0,0.0,0.0,0.0,0.0,0.0,0.0,0.0,0.0,0.0,0.0,0.0,0.0,0.0,0.0,0.0,0.0,0.0,0.0,0.0,0.0,0.0,0.0,0.0,0.0,0.0,0.0,0.0,0.0,0.0,0.0,0.0,0.0,0.0,0.0,0.0,0.0,0.0,0.0,0.0,0.0,0.0,0.0,0.0,0.0,0.0,0.0,0.0,0.0,0.0,0.0,0.6616,0.7362,0.9581,0.9723,1.0059,1.0987,0.9996,0.9688,1.0576,0.8536,0.0,0.0,0.0,0.0,0.0,0.0,0.0,0.0,0.0,0.0,0.0,0.0,0.0,0.0,0.0,0.0,0.0,0.0,0.0,0.0,0.0,0.0,0.0,0.0,0.0,0.0,0.0,0.0,0.0,0.0,0.0,0.0,0.0,0.0,0.0,0.0,0.0,0.0,0.0,0.0,0.0,0.0,0.0,0.0,0.0,0.0,0.0,0.0,0.0,0.0,0.0,0.0,0.0,0.0,0.0,0.0,0.0,0.0,0.0,0.0,0.0,0.0,0.0,0.0,0.0,0.0,0.0,0.0,0.0,0.0,0.0,0.0,0.0,0.0,0.0,0.0,0.0,0.0,0.0,0.0,0.0,0.0,0.0,0.0,0.0,0.0,0.0,0.0,0.0,0.0,0.0,0.0,0.0,0.0,0.0,0.0,0.0,0.0,0.0,0.0,0.0,0.0,0.7241,0.7551,0.9,0.9112,0.9284,0.976,0.8862,0.8386,0.862,0.6819,0.0,0.0,0.0,0.0,0.0,0.0,0.0,0.0,0.0,0.0,0.0,0.0,0.0,0.0,0.0,0.0,0.0,0.0,0.0,0.0,0.0,0.0,0.0,0.0,0.0,0.0,0.0,0.0,0.0,0.0,0.0,0.0,0.0,0.0,0.0,0.0,0.0,0.0,0.0,0.0,0.0,0.0,0.0,0.0,0.0,0.0,0.0,0.0,0.0,0.0,0.0,0.0,0.0,0.0,0.0,0.0,0.0,0.0,0.0,0.0,0.0,0.0,0.0,0.0,0.0,0.0,0.0,0.0,0.0,0.0,0.0,0.0,0.0,0.0,0.0,0.0,0.0,0.0,0.0,0.0,0.0,0.0,0.0,0.0,0.0,0.0,0.0,0.0,0.0,0.0,0.0,0.0,0.0,0.0,0.0,0.0,0.0,0.0,0.0,0.0,0.0,0.0,0.7568,0.8258,0.8452,0.8305,0.7978,0.7488,0.7743,0.7497,0.6484,0.6084,0.0,0.0,0.0,0.0,0.0,0.0,0.0,0.0,0.0,0.0,0.0,0.0,0.0,0.0,0.0,0.0,0.0,0.0,0.0,0.0,0.0,0.0,0.0,0.0,0.0,0.0,0.0,0.0,0.0,0.0,0.0,0.0,0.0,0.0,0.0,0.0,0.0,0.0,0.0,0.0,0.0,0.0,0.0,0.0,0.0,0.0,0.0,0.0,0.0,0.0,0.0,0.0,0.0,0.0,0.0,0.0,0.0,0.0,0.0,0.0,0.0,0.0,0.0,0.0,0.0,0.0,0.0,0.0,0.0,0.0,0.0,0.0,0.0,0.0,0.0,0.0,0.0,0.0,0.0,0.0,0.0,0.0,0.0,0.0,0.0,0.0,0.0,0.0,0.0,0.0,0.0,0.0,0.0,0.0,0.0,0.0,0.0,0.0,0.0,0.0,0.0,0.0,0.6994,0.7635,0.0,0.7965,0.7543,0.7221,0.7171,0.6827,0.6069,0.0,0.0,0.0,0.0,0.0,0.0,0.0,0.0,0.0,0.0,0.0,0.0,0.0,0.0,0.0,0.0,0.0,0.0,0.0,0.0,0.0,0.0,0.0,0.0,0.0,0.0,0.0,0.0,0.0,0.0,0.0,0.0,0.0,0.0,0.0,0.0,0.0,0.0,0.0,0.0,0.0,0.0,0.0,0.0,0.0,0.0,0.0,0.0,0.0,0.0,0.0,0.0,0.0,0.0,0.0,0.0,0.0,0.0,0.0,0.0,0.0,0.0,0.0,0.0,0.0,0.0,0.0,0.0,0.0,0.0,0.0,0.0,0.0,0.0,0.0,0.0,0.0,0.0,0.0,0.0,0.0,0.0,0.0,0.0,0.0,0.0,0.0,0.0,0.0,0.0,0.0,0.0,0.0,0.0,0.0,0.0,0.0,0.0,0.0,0.0,0.0,0.0,0.6358,0.6789,0.7308,0.0,0.7479,0.6905,0.6564,0.6327,0.5859,0.5085,0.0,0.0,0.0,0.0,0.0,0.0,0.0,0.0,0.0,0.0,0.0,0.0,0.0,0.0,0.0,0.0,0.0,0.0,0.0,0.0,0.0,0.0,0.0,0.0,0.0,0.0,0.0,0.0,0.0,0.0,0.0,0.0,0.0,0.0,0.0,0.0,0.0,0.0,0.0,0.0,0.0,0.0,0.0,0.0,0.0,0.0,0.0,0.0,0.0,0.0,0.0,0.0,0.0,0.0,0.0,0.0,0.0,0.0,0.0,0.0,0.0,0.0,0.0,0.0,0.0,0.0,0.0,0.0,0.0,0.0,0.0,0.0,0.0,0.0,0.0,0.0,0.0,0.0,0.0,0.0,0.0,0.0,0.0,0.0,0.0,0.0,0.0,0.0,0.0,0.0,0.0,0.0,0.0,0.0,0.0,0.0,0.0,0.0,0.0,0.0,0.0,0.0,0.6562,0.714,0.7501,0.75,0.6771,0.5961,0.5158,0.5077,0.4543,0.0,0.0,0.0,0.0,0.0,0.0,0.0,0.0,0.0,0.0,0.0,0.0,0.0,0.0,0.0,0.0,0.0,0.0,0.0,0.0,0.0,0.0,0.0,0.0,0.0,0.0,0.0,0.0,0.0,0.0,0.0,0.0,0.0,0.0,0.0,0.0,0.0,0.0,0.0,0.0,0.0,0.0,0.0,0.0,0.0,0.0,0.0,0.0,0.0,0.0,0.0,0.0,0.0,0.0,0.0,0.0,0.0,0.0,0.0,0.0,0.0,0.0,0.0,0.0,0.0,0.0,0.0,0.0,0.0,0.0,0.0,0.0,0.0,0.0,0.0,0.0,0.0,0.0,0.0,0.0,0.0,0.0,0.0,0.0,0.0,0.0,0.0,0.0,0.0,0.0,0.0,0.0,0.0,0.0,0.0,0.0,0.0,0.0,0.0,0.0,0.0,0.0,0.0,0.7311,0.7739,0.7787,0.7265,0.6489,0.5702,0.4959,0.3857,0.3192,0.3204,0.0,0.0,0.0,0.0,0.0,0.0,0.0,0.0,0.0,0.0,0.0,0.0,0.0,0.0,0.0,0.0,0.0,0.0,0.0,0.0,0.0,0.0,0.0,0.0,0.0,0.0,0.0,0.0,0.0,0.0,0.0,0.0,0.0,0.0,0.0,0.0,0.0,0.0,0.0,0.0,0.0,0.0,0.0,0.0,0.0,0.0,0.0,0.0,0.0,0.0,0.0,0.0,0.0,0.0,0.0,0.0,0.0,0.0,0.0,0.0,0.0,0.0,0.0,0.0,0.0,0.0,0.0,0.0,0.0,0.0,0.0,0.0,0.0,0.0,0.0,0.0,0.0,0.0,0.0,0.0,0.0,0.0,0.0,0.0,0.0,0.0,0.0,0.0,0.0,0.0,0.0,0.0,0.0,0.0,0.0,0.0,0.0,0.0,0.0,0.0,0.0,0.0,0.7148,0.7809,0.8065,0.762,0.6696,0.5764,0.4945,0.4019,0.3029,0.1985,0.0,0.0,0.0,0.0,0.0,0.0,0.0,0.0,0.0,0.0,0.0,0.0,0.0,0.0,0.0,0.0,0.0,0.0,0.0,0.0,0.0,0.0,0.0,0.0,0.0,0.0,0.0,0.0,0.0,0.0,0.0,0.0,0.0,0.0,0.0,0.0,0.0,0.0,0.0,0.0,0.0,0.0,0.0,0.0,0.0,0.0,0.0,0.0,0.0,0.0,0.0,0.0,0.0,0.0,0.0,0.0,0.0,0.0,0.0,0.0,0.0,0.0,0.0,0.0,0.0,0.0,0.0,0.0,0.0,0.0,0.0,0.0,0.0,0.0,0.0,0.0,0.0,0.0,0.0,0.0,0.0,0.0,0.0,0.0,0.0,0.0,0.0,0.0,0.0,0.0,0.0,0.0,0.0,0.0,0.0,0.0,0.0,0.0,0.0,0.0,0.0,0.0,0.64,0.7421,0.8161,0.8087,0.7107,0.5985,0.484,0.4807,0.3456,0.0215,0.0,0.0,0.0,0.0,0.0,0.0,0.0,0.0,0.0,0.0,0.0,0.0,0.0,0.0,0.0,0.0,0.0,0.0,0.0,0.0,0.0,0.0,0.0,0.0,0.0,0.0,0.0,0.0,0.0,0.0,0.0,0.0,0.0,0.0,0.0,0.0,0.0,0.0,0.0,0.0,0.0,0.0,0.0,0.0,0.0,0.0,0.0,0.0,0.0,0.0,0.0,0.0,0.0,0.0,0.0,0.0,0.0,0.0,0.0,0.0,0.9065,0.0,0.0,0.0,0.0,0.0,0.0,0.0,0.0,0.0,0.0,0.0,0.0,0.0,0.0,0.0,0.0,0.0,0.0,0.0,0.0,0.0,0.0,0.0,0.0,0.0,0.0,0.0,0.0,0.0,0.0,0.0,0.0,0.0,0.0,0.0,0.0,0.0,0.0,0.0,0.0,0.0,0.6059,0.6776,0.7049,0.6471,0.6641,0.5714,0.303,0.291,0.2128,0.0133,0.0617,0.0,0.0,0.0,0.0,0.0,0.0,0.0,0.0,0.0,0.0,0.0,0.0,0.0,0.0,0.0,0.0,0.0,0.0,0.0,0.0,0.0,0.0,0.0,0.0,0.0,0.0,0.0,0.0,0.0,0.0,0.0,0.0,0.0,0.0,0.0,0.0,0.0,0.0,0.0,0.0,0.0,0.0,0.0,0.0,0.0,0.0,0.0,0.0,0.0,0.0,0.0,0.0,0.0,0.0,0.0,0.0,0.0,0.0,0.0,0.0,0.8999,0.0,0.0,0.0,0.0,0.0,0.0,0.0,0.0,0.0,0.0,0.0,0.0,0.0,0.0,0.0,0.0,0.0,0.0,0.0,0.0,0.0,0.0,0.0,0.0,0.0,0.0,0.0,0.0,0.0,0.0,0.0,0.0,0.0,0.0,0.0,0.0,0.0,0.0,0.0,0.0,0.5761,0.6543,0.6861,0.6472,0.6743,0.6538,0.5498,0.2855,0.0896,0.0055,0.0,0.0,0.0,0.0,0.0,0.0,0.0,0.0,0.0,0.0,0.0,0.0,0.0,0.0,0.0,0.0,0.0,0.0,0.0,0.0,0.0,0.0,0.0,0.0,0.0,0.0,0.0,0.0,0.0,0.0,0.0,0.0,0.0,0.0,0.0,0.0,0.0,0.0,0.0,0.0,0.0,0.0,0.0,0.0,0.0,0.0,0.0,0.0,0.0,0.0,0.0,0.0,0.0,0.0,1.389,1.4192,1.3825,1.3613,1.3463,1.3241,1.1088,1.0766,1.169,1.0095,0.0,0.0,0.0,0.0,0.0,0.0,0.0,0.0,0.0,0.0,0.0,0.0,0.0,0.0,0.0,0.0,0.0,0.0,0.0,0.0,0.0,0.0,0.0,0.0,0.8167,0.8407,0.0,0.0,0.0,0.0,0.0,0.0,0.0,0.0,0.0,0.0,0.0,0.0,0.5272,0.5926,0.6297,0.6503,0.6576,0.6928,0.7736,0.3959,0.1102,0.0068,0.0,0.0,0.0,0.0,0.0,0.0,0.0,0.0,0.0,0.0,0.0,0.0,0.0,0.0,0.0,0.0,0.0,0.0,0.0,0.0,0.0,0.0,0.0,0.0,0.0,0.0,0.0,0.0,0.0,0.0,0.0,0.0,0.0,0.0,1.4288,1.5709,0.0,0.0,0.0,0.0,0.0,0.0,0.0,0.0,0.0,0.0,0.0,0.0,0.0,1.2087,1.4082,1.413,1.4749,1.5924,1.5848,1.5594,1.515,1.4877,1.4493,1.3998,1.2498,0.0,1.2203,1.2066,0.0,0.0,0.0,0.0,0.0,0.0,0.0,0.0,0.0,0.0,0.0,0.0,0.0,0.0,0.0,0.0,0.0,0.0,0.0,0.0,0.0,0.0,0.8153,0.6803,0.6648,0.6761,0.0,0.7112,0.7522,0.7715,0.6872,0.0,0.0,0.0,0.0,0.0,0.0,0.0,0.4151,0.3666,0.3555,0.4545,0.4862,0.4574,0.3521,0.606,0.5521,0.0322,0.0,0.0,0.0,0.0588,0.0,0.0,0.0,0.0,0.0,0.0,0.0,0.0,0.0,0.0,0.0,0.0,0.0,0.0,0.0,0.0,0.0,0.0,0.0,0.0,0.0,0.0,0.0,0.0,0.0,0.0,0.0,0.0,0.0,1.4462,1.5394,1.5815,1.5398,1.4881,0.0,0.0,0.0,0.0,0.0,0.0,0.0,0.0,0.0,1.241,1.2547,1.3404,1.5123,1.5291,1.5562,1.595,1.664,1.6746,1.6352,1.6614,1.6589,1.6332,1.5366,1.474,1.4299,1.2596,1.2143,1.2408,0.0,0.0,0.0,0.0,0.9754,1.0142,0.9508,1.0364,0.0,1.0694,0.0,0.0,0.0,0.0,0.0,0.0,0.0,0.0,0.0,0.0,0.6967,0.6721,0.6183,0.567,0.5502,0.54,0.5527,0.0,0.5697,0.5121,0.4814,0.0,0.0,0.0,0.0,0.2278,0.3133,0.2876,0.2787,0.3289,0.4028,0.3968,0.2714,0.3398,0.2777,0.0169,0.0,0.0,0.0,0.0,0.1123,0.0,0.0,0.0,0.0,0.0,0.0,0.0,0.0,0.0,0.0,0.0,0.0,0.0,0.0,0.0,0.0,0.0,0.0,0.0,0.0,0.0,0.0,0.0,0.0,0.0,0.0,0.0,0.0,1.4985,1.5779,1.5286,1.5562,1.5518,0.0,0.0,0.0,0.0,0.0,0.0,1.1962,1.1921,1.2537,1.3953,1.4106,1.4758,1.6051,1.6265,1.6284,1.6173,1.7225,1.7539,1.7174,1.7663,1.7827,1.7639,1.7168,1.6648,1.6008,1.344,1.274,1.3173,1.2265,1.1806,1.1538,1.0789,1.1073,1.1651,1.0237,1.0975,1.2364,1.1324,1.119,1.127,1.0428,0.0,0.0,0.0,0.0,0.6869,0.745,0.6839,0.6155,0.6562,0.5889,0.5028,0.4649,0.4127,0.3943,0.0,0.4545,0.4103,0.3397,0.0,0.0,0.0,0.0,0.153,0.23,0.2118,0.2054,0.2356,0.2777,0.2825,0.2282,0.0863,0.0,0.0,0.0,0.0,0.0,0.0,0.0264,0.0832,0.0,0.0,0.0,0.0,0.0,0.0,0.0,0.0,0.0,0.0,0.0,0.0,0.0,0.0,0.0,0.0,0.0,0.0,0.0,0.0,0.0,0.0,0.0,0.0,0.0,0.0,0.0,0.0,0.0,1.4239,1.6248,0.0,0.0,0.0,0.0,1.2475,1.2916,1.314,1.2849,1.3431,1.4418,1.5811,1.5866,1.625,1.7005,1.7046,1.735,1.7954,1.8062,1.7813,1.73,1.734,1.7076,1.6595,1.6527,1.6502,1.638,1.5438,1.5032,1.4883,1.2927,1.255,1.3048,1.2636,1.213,1.1809,1.2591,1.2613,1.2283,1.2144,1.2235,1.2065,1.0565,0.9682,0.0,0.0,0.6742,0.6484,0.5899,0.6108,0.6352,0.5884,0.5464,0.4979,0.4121,0.3632,0.3452,0.0,0.3737,0.3432,0.3001,0.0,0.1709,0.1847,0.0851,0.0505,0.1695,0.0843,0.0579,0.172,0.0528,0.008,0.1182,0.0495,0.0,0.0,0.0,0.0,0.0,0.0,0.0983,0.3089,0.258,0.0,0.0,0.0,0.0,0.0,0.0,0.0,0.0,0.0,0.0,0.0,0.0,0.0,0.0,0.0,0.0,0.0,0.0,0.0,0.0,0.0,0.0,0.0,0.0,0.0,0.0,0.0,0.0,1.5583,1.6441,0.0,1.5921,1.5863,1.522,1.364,1.4443,1.4848,1.4405,1.4952,1.575,1.6675,1.6783,1.6964,1.7237,1.6887,1.6827,1.7076,1.7076,1.6951,1.6795,1.6795,1.668,1.6522,1.6522,1.6522,1.6471,1.6143,1.584,1.5414,1.4338,1.4082,1.4262,1.4131,1.3927,1.3712,1.367,1.3518,1.3193,1.2516,1.2105,1.1776,1.0894,0.9853,0.8866,0.8259,0.7606,0.7073,0.6811,0.6731,0.6548,0.5949,0.5306,0.4642,0.3976,0.3475,0.3082,0.2738,0.2664,0.2558,0.225,0.1633,0.1062,0.0686,0.0133,-0.0178,0.0044,-0.0311,-0.0423,0.0022,-0.0333,-0.0539,-0.0354,-0.0649,-0.0605,-0.0037,0.0,0.0,0.0,0.0,0.0369,0.1166,0.2272,0.1863,0.0,0.0,0.0,0.0,0.0,0.0,0.0,0.0,0.0,0.0,0.0,0.0,0.0,0.0,0.0,0.0,0.0,0.0,0.0,0.0,0.0,0.0,0.0,0.0,0.0,0.0,1.5873,1.5973,1.6719,1.7005,1.6386,1.6322,1.5904,1.4923,1.5778,1.6215,1.5866,1.6428,1.691,1.7151,1.7263,1.7188,1.7034,1.668,1.6522,1.6522,1.6522,1.6522,1.6522,1.6522,1.6522,1.6522,1.6522,1.638,1.6194,1.6194,1.5844,1.5362,1.5433,1.5337,1.5122,1.5122,1.5096,1.501,1.4413,1.3958,1.3435,1.2573,1.2093,1.1743,1.1035,1.009,0.9154,0.8731,0.8024,0.7397,0.7289,0.6773,0.6233,0.5914,0.5021,0.4141,0.3733,0.3233,0.2701,0.2007,0.2018,0.1994,0.1566,0.1043,0.0528,0.0123,-0.0204,-0.0491,-0.0695,-0.084,-0.0892,-0.0892,-0.0961,-0.1063,-0.121,-0.1386,-0.1166,-0.0486,-0.0438,-0.0435,-0.0436,-0.0437,-0.0401,-0.0297,0.1047,0.0511,-0.1995,0.0,0.0,0.0,0.0,0.0,0.0,0.0,0.0,0.0,0.0,0.0,0.0,0.0,0.0,0.0,0.0,0.0,0.0,0.0,0.0,0.0,0.0,0.0,1.4319,1.6586,1.7364,1.5457,1.7331,1.8085,1.6268,1.6618,1.6754,1.6172,1.6756,1.7123,1.7071,1.771,1.7827,1.7312,1.7271,1.7034,1.6522,1.6522,1.6522,1.6522,1.6522,1.6522,1.6522,1.6522,1.6522,1.6522,1.6522,1.6151,1.5588,1.5588,1.5231,1.4846,1.5976,1.6095,1.5588,1.5588,1.5543,1.5454,1.4835,1.3884,1.2812,1.2393,1.22,1.203,1.0949,1.0407,0.988,0.8671,0.7885,0.7334,0.7086,0.6182,0.5433,0.5636,0.4666,0.3585,0.3357,0.2892,0.2338,0.1708,0.1801,0.1745,0.1002,0.0501,0.019,0.0156,-0.0188,0.0,-0.0463,-0.075,-0.0964,-0.0936,-0.1486,-0.1725,-0.138,-0.1654,-0.1714,-0.1369,-0.1342,-0.1352,-0.1391,-0.1393,-0.1272,-0.1033,-0.1278,-0.1633,-0.2093,0.0,0.0,0.0,0.0,0.0,0.0,0.0,0.0,0.0,0.0,0.0,0.0,0.0,0.0,0.0,0.0,0.0,0.0,0.0,0.0,0.0,0.0,1.6004,1.6889,1.7455,1.8323,1.9687,2.004,1.982,1.8902,1.8561,1.7989,1.7023,1.7143,1.7074,1.669,1.6831,1.6879,1.671,1.671,1.6637,1.6522,1.6522,1.6522,1.6522,1.6522,1.6522,1.6522,1.6522,1.6522,1.6522,1.6522,1.6151,1.5588,1.5588,1.5231,1.4744,1.5073,1.5107,1.4971,1.4971,1.4687,1.4226,1.361,1.3152,1.2861,1.2744,1.2705,1.257,1.1737,1.0936,1.0115,0.9044,0.8135,0.7451,0.7365,0.7135,0.6692,0.5881,0.5322,0.4681,0.3546,0.3117,0.2675,0.1784,0.139,0.1047,0.0619,0.0273,-0.0119,-0.0669,-0.1043,0.0,-0.168,-0.2077,-0.2217,-0.1886,-0.257,-0.2889,-0.2497,-0.2948,-0.3079,-0.2697,-0.2445,-0.2588,-0.3233,-0.3254,-0.3391,-0.372,-0.3845,-0.3944,0.0,0.0,0.0,0.0,0.0,0.0,0.0,0.0,0.0,0.0,0.0,0.0,0.0,0.0,0.0,0.0,0.0,0.0,0.0,0.0,0.0,0.0,1.6314,1.7921,1.9718,1.9386,1.9522,2.1108,2.095,2.0382,1.96,1.8988,1.8262,1.7411,1.7093,1.6837,1.6522,1.6522,1.6522,1.6522,1.6522,1.6522,1.6522,1.676,1.6886,1.6886,1.7112,1.7225,1.7225,1.7225,1.7032,1.6736,1.6736,1.6207,1.5387,1.5161,1.4755,0.0,0.0,0.0,0.0,0.0,1.392,1.342,1.3334,1.289,1.2501,1.2774,1.2666,1.2295,1.1625,1.091,1.0148,0.9008,0.8212,0.7629,0.754,0.7141,0.6519,0.5739,0.5062,0.4329,0.3489,0.2986,0.2515,0.1734,0.0984,0.0,0.0,-0.0391,-0.0805,-0.1255,-0.1528,-0.1772,-0.201,-0.2366,-0.2511,-0.2237,-0.2918,-0.3312,-0.3089,-0.3557,0.0,0.0,0.0,-0.3463,-0.3982,-0.4105,0.0,0.0,0.0,-0.5001,-0.5262,0.0,0.0,0.0,-1.1951,-1.2673,0.0,0.0,0.0,0.0,0.0,0.0,0.0,0.0,0.0,0.0,0.0,0.0,0.0,0.0,0.0,0.0,1.73,1.9191,2.2166,2.1585,2.0868,2.0992,2.0865,2.0302,1.9203,1.85,1.787,1.7332,1.681,1.6522,1.6522,0.0,0.0,0.0,0.0,1.6584,1.6522,1.7149,1.7438,1.7388,1.794,1.8204,1.8204,1.8204,1.7834,1.7206,1.7157,1.6378,1.5205,1.4652,1.4073,1.3559,1.4253,1.4143,1.3684,1.3684,1.3372,1.2968,1.3505,0.0,0.0,1.2559,1.2295,1.1566,1.0914,1.0499,1.0051,0.877,0.8134,0.7773,0.7544,0.6613,0.5667,0.5336,0.4363,0.3434,0.3336,0.2777,0.214,0.1698,0.0669,-0.0311,-0.0741,-0.1261,-0.1656,-0.1649,-0.1779,-0.1885,-0.1902,-0.2146,-0.2329,-0.2321,0.0,0.0,-0.3456,-0.3822,-0.4089,-0.4156,-0.417,-0.4187,-0.4132,-0.4382,-0.4575,-0.4643,-0.486,-0.5306,-0.6034,-0.6977,-0.7826,-0.8618,-0.9979,-1.0958,0.0,0.0,0.0,0.0,0.0,0.0,0.0,0.0,0.0,0.0,0.0,0.0,0.0,0.0,0.0,1.7517,1.9502,2.1164,2.1786,2.1685,2.1886,2.2918,2.1766,2.0599,1.9956,1.8403,1.7245,1.6716,1.6584,1.6522,1.6522,1.6522,1.6522,1.6522,1.6974,1.6986,1.6479,1.7539,1.7827,1.7388,0.0,0.0,1.8204,1.8204,1.8097,1.7941,1.7376,1.6677,1.5924,1.5224,1.4368,1.3467,1.3322,1.3152,1.3055,1.3055,1.3017,1.2929,1.3017,1.2491,1.1814,1.1972,1.1566,1.0864,1.0218,0.9967,0.0,0.8682,0.7923,0.741,0.7356,0.664,0.5803,0.528,0.4883,0.4386,0.369,0.3066,0.2454,0.187,0.0867,-0.0204,-0.1247,-0.1709,-0.1907,-0.192,-0.2163,-0.2397,-0.252,-0.2865,-0.3072,-0.3096,-0.3564,-0.3993,-0.4313,-0.4418,-0.4653,-0.5017,-0.5261,-0.5228,-0.4898,-0.5245,-0.567,-0.6152,-0.6021,-0.6203,-0.6801,-0.7003,-0.759,-0.8539,-0.9217,-1.0261,0.0,0.0,0.0,0.0,0.0,0.0,0.0,0.0,0.0,0.0,0.0,1.5215,0.0,0.0,1.917,2.018,2.1654,2.275,2.3084,2.2878,2.2556,2.2257,2.1384,2.0612,2.0006,1.8871,1.8027,1.7777,1.7513,1.7363,1.7363,1.7363,1.7363,1.7363,1.7639,1.7652,1.7363,1.8191,1.848,1.8216,1.8744,1.9007,1.9007,1.9007,1.8797,1.8434,1.7686,1.6957,1.6267,1.5357,1.453,1.3799,1.3584,1.3252,1.2881,1.2881,1.2881,1.2881,1.2881,1.2206,1.1366,1.1715,1.1116,1.0269,0.9917,0.9814,0.9629,0.883,0.8061,0.7454,0.7326,0.6481,0.5517,0.5121,0.4735,0.4336,0.3809,0.3221,0.259,0.1917,0.0864,-0.0256,-0.139,-0.195,-0.2302,-0.2431,-0.2595,-0.2712,-0.2712,-0.2874,-0.3063,-0.3271,-0.3721,-0.4151,-0.4564,-0.4954,-0.526,-0.5498,-0.5772,-0.5861,-0.5647,-0.597,-0.6309,-0.6587,-0.688,-0.7433,-0.813,-0.8419,-0.907,-1.0048,-1.0282,-1.0996,0.0,0.0,0.0,0.0,0.0,0.0,0.0,0.0,1.4873,1.6425,1.6606,1.6999,1.8604,1.9858,2.1132,2.2604,2.3287,2.3703,2.3961,2.3463,2.2438,2.0782,2.0739,2.0575,1.9889,1.922,1.882,1.882,1.8455,1.8204,1.8204,1.8204,1.8204,1.8204,1.8304,1.8317,1.8204,1.8857,1.9083,1.8983,1.9547,1.9798,1.9798,1.9798,1.9475,1.8874,1.795,1.7191,1.6404,1.5322,1.4648,1.4258,1.4258,1.3799,1.3125,1.3125,1.3018,1.29,1.3066,1.2177,1.1074,1.1604,1.0871,0.9762,0.9666,0.9614,0.951,0.8956,0.8156,0.7463,0.7206,0.6132,0.5035,0.4797,0.4285,0.3784,0.3815,0.3262,0.2567,0.1932,0.0953,-0.0179,-0.1427,-0.205,-0.2511,-0.2884,-0.2927,-0.2866,-0.274,-0.2733,-0.2874,-0.3392,-0.3691,-0.4101,-0.4639,-0.5303,-0.5738,-0.5792,-0.6115,-0.6277,-0.6277,-0.652,-0.67,-0.676,-0.7453,-0.8288,-0.9224,-0.9649,-1.0467,-1.1547,-1.1547,-1.1914,1.1576,1.1922,1.2629,1.2357,1.3644,1.5664,0.0,0.0,1.9728,2.1512,2.2274,2.2517,2.2229,2.3191,2.3911,2.3493,2.358,2.3259,2.2099,2.1452,2.0832,2.0003,2.0465,2.0628,2.003,1.8929,1.8292,1.8292,1.8242,1.8204,1.8204,1.8204,1.8204,1.8204,1.8681,1.8694,1.8204,1.9208,1.9484,1.8983,1.9547,1.9798,1.9798,1.9798,1.9747,1.9592,1.8221,1.7191,1.6425,1.5641,1.5088,1.4717,1.4717,1.4424,1.3994,1.3994,1.3516,1.2988,1.374,1.2955,1.1669,1.1558,1.0773,0.9666,0.9106,0.891,0.891,0.8804,0.7777,0.6691,0.6666,0.5509,0.4295,0.4278,0.3652,0.321,0.3847,0.2995,0.2096,0.1988,0.145,0.0377,-0.1453,-0.1818,-0.2152,-0.2946,-0.2991,-0.2903,-0.2886,-0.2764,-0.301,-0.3826,-0.3593,-0.3827,-0.4957,-0.5452,-0.5825,-0.6129,-0.6418,-0.654,-0.654,-0.682,-0.7094,-0.7406,-0.749,-0.8006,-0.8959,-0.9005,-0.9864,-1.1407,-1.1407,-1.1998,1.4784,1.4364,1.4283,0.0,1.777,1.8982,2.0985,2.1789,2.2404,2.3565,2.4029,2.4358,2.4866,2.5405,2.5789,0.0,2.528,2.459,2.4032,2.2484,2.1167,2.0508,2.008,1.986,1.9883,1.9408,1.9133,1.9133,1.9133,1.9133,1.9133,1.9459,1.9484,1.9145,1.9685,1.971,1.9145,1.9572,1.9698,1.9484,1.9698,1.9798,1.9811,2.015,1.9969,1.9326,1.7966,1.6937,1.6256,1.591,1.5537,1.5146,1.5146,1.4893,1.4482,1.4175,1.3916,1.3662,1.3961,1.3127,1.1839,1.1785,1.0817,0.9688,0.9424,0.9319,0.9279,0.9105,0.8336,0.7411,0.6786,0.5761,0.4846,0.448,0.4107,0.3773,0.3542,0.301,0.2374,0.1516,0.1144,0.0344,-0.1571,-0.1854,-0.2193,-0.3353,-0.3314,-0.3065,-0.293,-0.3095,-0.3599,-0.452,-0.4683,-0.4985,-0.5695,-0.6052,-0.6273,-0.6438,-0.6881,-0.7143,-0.7143,-0.7388,-0.7609,-0.7736,-0.8045,-0.8697,-0.9779,-1.0101,-1.0966,-1.2244,-1.2244,-1.2711,1.6159,1.6009,0.0,1.9809,2.1395,2.2413,2.3729,2.4522,2.5121,2.5615,2.5719,2.5899,2.6482,2.6587,2.6628,2.6713,2.5663,2.4663,2.4345,2.2449,2.0876,2.021,1.9396,1.8977,1.9334,1.9497,1.9648,1.9798,1.9798,1.9798,1.9798,2.02,2.0238,1.9811,2.0213,2.0225,1.9798,1.9962,2.0037,2.0037,2.0037,2.0037,2.0049,2.0476,2.0213,1.9326,1.8213,1.7301,1.6536,1.6363,1.6064,1.5771,1.5771,1.5586,1.5283,1.4971,1.4486,1.4116,1.435,1.3479,1.2197,1.2131,1.1153,0.9962,0.9737,0.9686,0.9619,0.9269,0.8559,0.7711,0.6807,0.5928,0.5109,0.4625,0.4349,0.3987,0.3299,0.3013,0.2458,0.12,0.0979,0.0409,-0.138,-0.1782,-0.2217,-0.3372,-0.3497,-0.3323,-0.3031,-0.35,-0.4223,-0.5127,-0.5586,-0.5959,-0.629,-0.6473,-0.666,-0.682,-0.7278,-0.7553,-0.7589,-0.7809,-0.7922,-0.8049,-0.842,-0.923,-1.0531,-1.0717,-1.1513,-1.2881,-1.2666,-1.2939,1.3555,0.0,1.7386,2.0049,2.3101,2.5809,2.7175,2.7949,2.8457,2.8472,2.8487,2.8083,2.6826,2.6587,2.6169,2.4838,2.359,2.2372,2.1126,1.9858,1.8868,1.8339,1.8264,1.8216,0.0,1.8744,1.9258,1.9761,1.9798,1.9798,1.9798,1.9823,1.9823,1.9798,1.9823,1.9823,1.9798,2.0351,2.0693,2.0693,2.0693,2.0693,2.0693,2.0706,2.049,2.0111,1.9386,1.855,1.7719,1.7014,1.6636,1.6626,1.6626,1.6626,1.667,1.666,1.5527,1.4194,1.5088,1.4251,1.282,1.2628,1.1692,1.0572,0.9904,0.9686,0.9619,0.9269,0.8223,0.7038,0.6703,0.555,0.4515,0.4519,0.3959,0.34,0.334,0.2726,0.2004,0.1226,0.1085,0.0636,-0.0691,-0.1546,-0.2209,-0.2809,-0.3441,-0.367,-0.3333,-0.4026,-0.4813,-0.5429,-0.5918,-0.6297,-0.6553,-0.6587,-0.6834,-0.7446,-0.75,-0.7602,-0.7855,-0.7882,-0.807,-0.8357,-0.8414,-0.9184,-1.0797,-1.0151,-1.0872,-1.2881,-1.2187,-1.2236,1.7116,0.0,2.1321,2.3954,2.6437,2.8248,2.8248,2.8771,2.8876,2.7545,2.5884,2.4403,2.3505,2.2607,2.1999,2.1989,2.201,2.1903,2.1582,2.0439,1.9313,1.8382,1.8231,0.0,0.0,0.0,0.0,1.9284,1.9962,2.0376,2.0376,2.1066,2.1305,2.0928,2.0928,2.0928,2.0928,2.0752,2.0907,2.1204,2.1204,2.1405,2.1744,2.0908,2.0812,2.1258,1.9492,1.8616,1.8249,1.7461,1.6992,1.6665,1.6665,1.6665,1.6665,1.6665,1.6172,1.5459,1.5742,1.4921,1.366,1.3084,1.2198,1.1269,1.0499,1.0329,1.016,0.9673,0.9182,0.8498,0.7012,0.6258,0.566,0.4736,0.4294,0.3846,0.2788,0.2397,0.1842,0.0615,0.0388,0.0055,-0.088,-0.1176,-0.1592,-0.2631,-0.3274,-0.3707,-0.3742,-0.4265,-0.4844,-0.5566,-0.613,-0.668,-0.717,-0.7211,-0.7341,-0.7749,-0.7956,-0.8116,-0.8216,-0.841,-0.8557,-0.8657,-0.8664,-0.9158,-1.0167,-1.0364,-1.1074,-1.2187,-1.2403,-1.2666,1.9891,2.2039,2.4059,2.6931,2.8622,2.952,2.9325,2.925,2.8592,2.6348,2.4178,2.2304,2.0887,1.9735,1.9173,1.9676,1.9914,2.0175,2.0557,1.9727,1.8858,1.8356,1.8423,1.8505,0.0,0.0,0.0,1.9321,2.015,2.0718,2.0718,2.1531,2.1857,2.1493,2.1493,2.1493,2.1493,2.133,2.143,2.1782,2.1782,2.197,2.2239,2.1461,2.1367,2.1791,2.0065,1.9169,1.8793,1.7985,1.7441,1.7187,1.7187,1.7187,1.7187,1.7187,1.6914,1.6547,1.6233,1.5283,1.4094,1.3252,1.253,1.1796,1.0898,1.0698,1.0595,1.0,0.9401,0.8573,0.7133,0.6315,0.5605,0.4736,0.4519,0.407,0.2508,0.2174,0.1786,0.028,0.0,-0.0168,-0.0615,-0.0879,-0.1381,-0.2643,-0.3198,-0.3579,-0.4087,-0.4554,-0.5166,-0.5954,-0.6569,-0.7101,-0.7589,-0.7629,-0.7762,-0.807,-0.827,-0.8424,-0.8524,-0.8711,-0.8804,-0.8804,-0.8804,-0.9113,-0.9814,-1.021,-1.0914,-1.1814,-1.2295,-1.2666,2.1749,2.3909,2.5674,2.8801,2.9609,2.9744,3.0193,2.931,2.7634,2.4881,2.3251,2.1524,0.0,0.0,1.7581,1.7896,1.7506,1.746,1.8259,1.7894,1.7739,0.0,0.0,0.0,0.0,0.0,0.0,1.9974,0.0,2.0806,2.0806,2.128,2.1568,2.1568,2.1543,2.1543,2.1568,2.2096,2.2347,2.2347,2.2347,2.2347,2.2347,2.2347,2.2209,2.1877,2.0974,2.0139,1.9299,1.8405,1.8008,1.8008,1.8008,1.8008,1.8008,1.8008,1.7744,1.7266,1.6426,1.534,1.4172,1.3252,1.2672,1.2047,1.0953,1.0755,1.0848,1.0281,0.8884,0.7559,0.7208,0.5867,0.4636,0.4519,0.4519,0.407,0.2508,0.2174,0.1786,0.028,0.0,0.0,0.0,-0.0615,-0.1546,-0.2775,-0.3079,-0.3419,-0.4264,-0.4902,-0.5601,-0.6418,-0.7031,-0.7517,-0.7828,-0.7854,-0.7979,-0.8377,-0.8397,-0.8517,-0.8798,-0.8804,-0.8804,-0.8804,-0.8804,-0.9106,-0.9769,-0.9814,-1.0517,-1.1765,-1.1765,-1.2187,2.56,2.7634,2.9101,2.949,2.9924,2.9804,2.7993,2.6572,2.4747,2.159,1.8732,1.6293,0.0,0.0,0.0,1.5552,1.7159,0.0,1.9336,1.9699,0.0,1.9422,0.0,2.0865,2.0865,2.1117,0.0,0.0,2.1807,2.1895,2.1895,2.2422,2.2711,2.2711,2.2322,2.2297,2.2711,2.2862,2.2924,2.2924,2.2924,2.2924,2.2924,2.2924,2.288,2.2689,2.1227,2.0462,2.0139,1.8664,1.8008,1.8008,1.8008,1.8008,1.8008,1.8008,1.7744,1.7353,1.7129,1.6418,1.5349,1.3579,1.2883,1.2507,1.1073,1.0672,1.0595,1.0221,0.9752,0.9094,0.748,0.6761,0.6117,0.482,0.4519,0.407,0.2508,0.2174,0.1786,0.028,0.0,0.0,0.0,-0.0615,-0.1161,-0.1443,-0.2389,-0.333,-0.4028,-0.4622,-0.507,-0.5312,-0.5884,-0.6557,-0.7374,-0.6929,-0.7234,-0.8625,-0.8162,-0.814,-0.8752,-0.8804,-0.8804,-0.8804,-0.8804,-0.891,-0.9061,-1.0064,-1.0712,-1.1065,-1.1566,-1.2187,2.8248,2.9879,3.0806,3.0148,2.9819,2.8906,2.5944,2.4044,2.1889,1.8283,1.5605,0.0,1.3316,0.0,0.0,0.0,0.0,0.0,1.9257,1.9936,2.0351,0.0,2.1757,0.0,2.2234,2.2661,2.3075,0.0,2.2736,2.2309,2.2309,2.2836,2.3078,2.3078,2.2836,2.2824,2.3078,2.3078,2.3078,2.3078,2.3078,2.3078,2.3078,2.3078,2.3078,2.3017,0.0,2.059,2.0462,1.8721,1.8008,1.8008,1.8008,1.8008,1.8008,1.8008,1.7861,1.756,1.6949,1.643,1.5696,1.4038,1.3479,1.3163,1.1451,1.0855,1.0715,1.0548,0.9805,0.8774,0.756,0.6644,0.5787,0.4775,0.4519,0.407,0.2508,0.2174,0.1786,0.028,0.0,0.0,0.0,-0.0336,-0.0723,-0.0928,-0.1955,-0.2962,-0.3641,-0.4397,-0.4936,-0.5065,-0.5617,-0.6253,-0.6911,-0.6608,-0.6923,-0.8256,-0.7943,-0.8049,-0.8752,-0.8804,-0.8804,-0.8804,-0.8804,-0.8804,-0.8804,-0.9865,-1.0364,-1.0364,-1.1065,-1.1724,2.9998,3.1076,3.1287,3.0567,2.9415,2.7545,2.4014,2.171,1.9196,1.5216,0.0,1.2867,1.354,1.2881,1.315,1.5894,0.0,1.655,1.8994,1.9748,2.0439,2.1581,2.3,2.374,2.3389,2.418,2.477,2.4921,2.3439,2.2535,2.2535,2.2912,2.3078,2.3078,2.3078,2.3078,2.3078,2.3078,2.3078,2.3078,2.3078,2.3078,2.3078,2.3078,2.3078,2.3005,2.1479,2.0719,2.0462,1.8854,1.8076,1.8008,1.8008,1.8008,1.8008,1.8008,1.8008,1.7813,1.6594,1.6111,1.5771,1.4347,1.3892,1.3611,1.1845,1.1189,1.0982,1.0949,0.9454,0.7861,0.7581,0.6261,0.4879,0.4591,0.4549,0.4092,0.2512,0.2063,0.1507,0.0224,0.0,0.0,0.0,0.0,-0.0224,-0.0838,-0.1563,-0.2343,-0.3121,-0.4174,-0.4938,-0.5193,-0.567,-0.6158,-0.6573,-0.6426,-0.675,-0.7777,-0.767,-0.7943,-0.8752,-0.8804,-0.8804,-0.8804,-0.8804,-0.8804,-0.8804,-0.9458,-0.9814,-0.9814,-1.0466,-1.1166,3.1076,3.1377,3.124,3.0043,2.8742,2.6602,2.2218,1.9675,0.0,0.0,1.2134,1.2179,1.2837,1.3267,1.437,1.7071,0.0,0.0,0.0,0.0,2.1606,0.0,0.0,0.0,0.0,0.0,0.0,0.0,0.0,2.3703,2.3703,2.3339,2.3078,2.3078,2.3078,2.3078,2.3078,2.3078,2.3078,2.3078,2.3078,2.3078,2.3078,2.3078,2.3078,2.3078,2.2063,0.0,2.0526,1.9497,1.8654,1.8008,1.8008,1.8008,1.8008,1.8008,1.8008,1.7998,1.7707,1.7104,1.6067,1.3707,1.2916,1.2729,1.1469,1.1035,1.0942,1.0701,0.9849,0.8816,0.7933,0.686,0.5839,0.4889,0.465,0.4209,0.2581,0.1229,0.028,0.0056,0.0,0.0,0.0,0.0,-0.0056,-0.0168,-0.0839,-0.1563,-0.2286,-0.3695,-0.4613,-0.4638,-0.4747,-0.5299,-0.6475,-0.555,-0.5932,-0.8427,-0.745,-0.7396,-0.8752,-0.8804,-0.8804,-0.8804,-0.8804,-0.8804,-0.8804,-0.9458,-0.9814,-0.9814,-1.0466,-1.1166,3.0507,3.0746,3.0687,2.94,2.7799,2.5255,2.0288,0.0,0.0,0.0,1.1389,1.1875,1.3086,1.337,0.0,0.0,0.0,0.0,0.0,0.0,0.0,0.0,0.0,0.0,0.0,0.0,0.0,0.0,0.0,2.4582,2.4029,2.3452,2.3078,2.3078,2.3078,2.3078,2.3078,2.3078,2.3288,2.359,2.359,2.3728,2.4004,2.3715,2.359,2.3503,2.2382,0.0,2.0526,1.9694,1.8787,1.8008,1.8008,1.8008,1.8008,1.8008,1.8008,1.794,1.7432,1.6645,1.5598,1.3793,1.3058,1.2646,1.1717,1.1129,1.0802,1.0962,0.986,0.8522,0.8075,0.6827,0.5571,0.498,0.4145,0.3349,0.2534,0.1119,0.0,0.0,0.0,0.0,0.0,0.0,0.0,0.0,-0.0615,-0.1341,-0.212,-0.3176,-0.4015,-0.446,-0.4519,-0.4791,-0.5445,-0.4901,-0.5386,-0.7509,-0.6966,-0.7235,-0.8752,-0.8804,-0.8804,-0.8804,-0.8804,-0.8804,-0.8804,-0.9106,-0.9263,-0.9263,-0.9614,-1.032,2.9888,3.0133,3.0193,2.8921,2.6991,2.4044,1.8951,1.6909,0.0,0.0,1.1243,1.1998,1.3597,0.0,1.3482,0.0,1.5733,0.0,0.0,0.0,0.0,0.0,0.0,0.0,0.0,0.0,0.0,0.0,0.0,0.0,2.4054,2.3452,2.3078,2.3078,2.3078,2.3078,2.3078,2.3263,2.3552,2.4004,2.4117,2.4406,2.4808,2.4368,2.4167,2.4079,2.2872,0.0,0.0,1.9922,1.8977,1.8008,1.8008,1.8008,1.8008,1.8008,1.8008,1.7872,1.7139,1.6149,1.5092,1.4314,1.3419,1.2589,1.2079,1.1296,1.0762,1.1283,0.9758,0.8098,0.8223,0.6737,0.5182,0.5006,0.3827,0.2703,0.2521,0.1354,0.0247,0.0062,0.0,0.0,0.0,0.0,0.0,0.0,-0.0504,-0.1118,-0.1842,-0.2619,-0.3345,-0.4181,-0.4405,-0.457,-0.468,-0.457,-0.5117,-0.6534,-0.6588,-0.7182,-0.8533,-0.8699,-0.8804,-0.8804,-0.8804,-0.8804,-0.8804,-0.8804,-0.8804,-0.8804,-0.8962,-0.9666,3.0213,3.0462,3.0193,2.8921,2.6647,2.3533,1.9086,0.0,0.0,1.2158,1.2029,1.2823,1.3953,1.3121,1.3049,0.0,0.0,1.5121,0.0,0.0,0.0,0.0,0.0,0.0,0.0,0.0,0.0,0.0,0.0,0.0,2.4029,2.3452,2.3078,2.3078,2.3078,2.3078,2.3078,2.3653,2.3954,2.4004,2.4506,2.477,2.482,2.477,2.4745,2.4707,2.4092,0.0,0.0,2.0705,1.9497,1.8008,1.8008,1.8008,1.8008,1.8008,1.8008,1.8008,1.7862,1.6724,1.5163,1.5092,1.3641,1.1979,1.1935,1.1436,1.1015,1.1336,0.9826,0.8203,0.8327,0.6971,0.5474,0.5179,0.4385,0.3442,0.2644,0.1784,0.0924,0.0123,0.0,0.0,0.0,0.0,0.0,0.0,-0.0056,-0.0392,-0.1118,-0.1842,-0.2565,-0.3345,-0.407,-0.4732,-0.5378,-0.4838,-0.5117,-0.6534,-0.6588,-0.6966,-0.7777,-0.8427,-0.8804,-0.8804,-0.8804,-0.8804,-0.8804,-0.8804,-0.8804,-0.8804,-0.9413,-1.0115,2.7628,2.8634,2.8936,2.723,2.5106,2.2419,1.8417,0.0,1.5079,1.268,1.253,1.2918,1.3183,1.2794,1.2754,0.0,0.0,0.0,0.0,0.0,0.0,0.0,0.0,0.0,0.0,0.0,0.0,0.0,0.0,0.0,2.4971,2.3803,2.3078,2.3078,2.3078,2.3078,2.3078,2.3364,2.3816,2.4494,2.472,2.5172,2.5799,2.5448,2.5285,2.5234,2.4368,0.0,0.0,2.0915,1.9722,1.8359,1.8105,1.8164,1.8359,1.8105,1.8164,1.835,1.8096,1.7148,1.5939,1.5376,1.4081,1.2635,1.2077,1.1577,1.1316,1.161,1.0142,0.8528,0.873,0.7261,0.5664,0.5457,0.4691,0.3769,0.2796,0.1944,0.1039,0.0195,0.0,0.0,0.0,0.0,0.0,0.0,0.0,-0.028,-0.1006,-0.1341,-0.2009,-0.3231,-0.407,-0.4625,-0.4897,-0.468,-0.4897,-0.5873,-0.5928,-0.6253,-0.702,-0.7343,-0.745,-0.745,-0.7937,-0.8156,-0.8156,-0.8593,-0.8804,-0.8811,-0.9061,-0.9562,2.4909,2.6594,2.747,2.5766,2.3593,2.1092,0.0,0.0,1.4601,1.3138,1.2997,1.3049,1.2778,1.2722,1.2687,0.0,0.0,1.3779,1.5879,0.0,0.0,0.0,0.0,0.0,0.0,0.0,0.0,0.0,0.0,0.0,2.5598,2.4343,2.3566,2.3566,2.3253,2.3228,2.3566,2.3477,2.3954,2.5059,2.5059,2.5548,2.6508,2.6038,2.585,2.5787,2.4707,0.0,0.0,2.0994,1.9754,1.8418,1.8125,1.8193,1.8418,1.8115,1.8193,1.8408,1.8115,1.7354,1.6428,1.5517,1.4364,1.326,1.2278,1.173,1.151,1.1891,1.0408,0.8689,0.8262,0.6997,0.5776,0.5677,0.5126,0.4373,0.3334,0.2424,0.1475,0.0538,0.0202,0.0,0.0,0.0,0.0,0.0,0.0,-0.0168,-0.0727,-0.095,-0.1507,-0.2621,-0.3566,-0.4236,-0.4463,-0.4519,-0.468,-0.5164,-0.5378,-0.5706,-0.6253,-0.6475,-0.6588,-0.6588,-0.7128,-0.7509,-0.7723,-0.8209,-0.8593,-0.8804,-0.8804,-0.9159,2.2624,2.4567,2.6061,2.4897,2.2295,1.9592,0.0,0.0,1.3737,1.3463,1.3396,1.3311,1.3049,1.2995,1.2906,1.2649,0.0,0.0,0.0,0.0,0.0,0.0,0.0,0.0,0.0,0.0,0.0,0.0,0.0,0.0,2.5598,2.5096,2.4808,2.4808,2.3715,2.3616,2.4795,2.4268,2.4531,2.5586,2.5586,2.59,2.6533,2.6521,2.6521,2.6458,0.0,0.0,0.0,2.1059,1.9562,1.8018,1.8008,1.8008,1.8018,1.8008,1.8008,1.8018,1.8008,1.7354,1.6428,1.5517,1.4522,1.352,1.2586,1.1891,1.155,1.2131,1.0754,0.8592,0.6541,0.5915,0.58,0.58,0.5691,0.5309,0.4397,0.3413,0.241,0.1474,0.0605,0.0,0.0,0.0,0.0,0.0,0.0,0.0,0.0,-0.0671,-0.1118,-0.1118,-0.2454,-0.3622,-0.4408,-0.4519,-0.4519,-0.4519,-0.5109,-0.5487,-0.5487,-0.6199,-0.6588,-0.6588,-0.6588,-0.6966,-0.7723,-0.7723,-0.8103,-0.8804,-0.8804,-0.9159,1.8142,1.9403,1.9832,1.9107,1.7869,1.6487,1.5249,1.4046,1.3238,1.3379,1.3396,1.3363,1.3294,1.326,1.3243,1.3157,1.2778,0.0,0.0,0.0,0.0,0.0,0.0,0.0,0.0,0.0,0.0,0.0,0.0,0.0,2.6189,2.5649,2.5197,2.4833,2.4481,2.4456,2.482,2.4644,2.4732,2.5071,2.5423,2.5686,2.5887,2.6276,2.6239,0.0,0.0,0.0,0.0,2.0335,1.922,1.8437,1.8437,1.8623,1.8848,1.8545,1.8623,1.8799,1.8213,1.7354,1.6428,1.5517,1.4522,1.3528,1.2592,1.2171,1.1913,1.1415,1.0289,0.889,0.7618,0.6677,0.6088,0.5983,0.5844,0.5422,0.4413,0.3413,0.241,0.1474,0.0605,0.0,0.0,0.0,0.0,0.0,0.0,0.0,0.0,-0.0224,-0.056,-0.1062,-0.1507,-0.2286,-0.3566,-0.4181,-0.4519,-0.4519,-0.4677,-0.4842,-0.4842,-0.5062,-0.5171,-0.5171,-0.5601,-0.5977,-0.6195,-0.723,-0.8103,-0.8804,-0.8804,-0.891,1.4454,1.5946,1.653,1.6033,1.5115,0.0,0.0,1.2987,1.2456,1.3244,1.3396,1.3396,1.3396,1.3396,1.3396,1.3396,1.3156,0.0,0.0,0.0,0.0,0.0,0.0,0.0,0.0,0.0,0.0,0.0,0.0,0.0,2.6533,2.5912,2.5548,2.5435,2.4845,2.4808,2.5435,2.482,2.482,2.5435,2.5548,2.5598,2.5598,2.5963,2.5837,0.0,0.0,0.0,0.0,2.0119,1.9196,1.8562,1.8562,1.8799,1.8994,1.8564,1.8574,1.873,1.8193,1.7354,1.6428,1.5517,1.4307,1.3098,1.2445,1.2305,1.2077,1.1087,1.0115,0.9069,0.8084,0.6973,0.6166,0.6125,0.5915,0.5567,0.4962,0.3986,0.2945,0.2009,0.1074,0.0401,0.0066,0.0,0.0,0.0,0.0,0.0,0.0,0.0,-0.0168,-0.0615,-0.0951,-0.1452,-0.2397,-0.3456,-0.4181,-0.4463,-0.4519,-0.4519,-0.4519,-0.4519,-0.4519,-0.4519,-0.4893,-0.5273,-0.5487,-0.6956,-0.7943,-0.8374,-0.8646,-0.8804,0.0,1.3787,1.525,0.0,0.0,0.0,0.0,0.0,0.0,1.3074,1.3396,1.3413,1.3481,1.3447,1.3413,1.3481,1.3546,0.0,0.0,0.0,0.0,0.0,0.0,0.0,0.0,0.0,0.0,0.0,0.0,0.0,2.6471,2.5887,2.5824,2.6327,2.4858,2.4833,2.6508,2.4946,2.4908,2.6339,2.5837,2.5548,2.5485,2.5523,2.5259,0.0,0.0,0.0,0.0,2.03,1.9371,1.8643,1.863,1.863,1.8562,1.8242,1.8076,1.8047,1.8018,1.7364,1.6349,1.5296,1.3803,1.2305,1.2305,1.2305,1.2077,1.1162,1.019,0.9145,0.8161,0.7052,0.6153,0.629,0.5915,0.5637,0.5762,0.487,0.3756,0.2945,0.2012,0.1076,0.0202,0.0064,0.0,0.0,0.0,0.0,0.0,0.0,0.0,0.0,-0.0615,-0.1062,-0.1118,-0.2454,-0.3622,-0.4349,-0.446,-0.4519,-0.4519,-0.4519,-0.4519,-0.4519,-0.4519,-0.4842,-0.5487,-0.6848,-0.761,-0.7723,-0.8427,-0.8752,0.9589,0.0,0.9816,1.0293,1.0087,1.0105,0.0,0.0,0.0,0.0,0.0,0.0,0.0,1.3768,1.3583,1.4157,1.3874,1.3797,0.0,0.0,0.0,0.0,0.0,0.0,0.0,0.0,0.0,0.0,0.0,2.6264,2.5824,2.5674,2.5473,2.5222,2.4833,2.5222,2.6521,2.6076,2.5649,2.5209,2.5473,2.5172,2.4381,2.4808,2.4707,0.0,0.0,0.0,2.0727,2.0162,1.9371,1.8701,1.9355,1.9424,1.9121,1.9023,1.8779,1.8437,1.8125,1.6941,1.5226,1.352,1.2659,1.2305,1.2305,1.2305,1.2224,1.1996,1.1242,1.019,0.9221,0.8201,0.7163,0.6252,0.5915,0.5732,0.5654,0.4885,0.4051,0.3763,0.2521,0.1444,0.1078,0.0449,0.0,0.0,0.0,0.0,0.0,0.0,0.0,0.0,-0.0168,-0.0504,-0.1062,-0.2454,-0.3398,-0.3566,-0.4181,-0.4519,-0.4519,-0.4519,-0.4519,-0.4519,-0.4519,-0.4842,-0.5487,-0.5869,-0.6573,-0.7723,-0.7883,-0.8268,0.9022,0.8901,0.8914,0.9303,0.967,1.0229,1.1383,0.0,0.0,0.0,0.0,0.0,0.0,0.0,0.0,0.0,1.4744,0.0,0.0,0.0,0.0,0.0,0.0,0.0,0.0,0.0,0.0,0.0,0.0,2.5925,2.5611,2.5134,2.4858,2.482,2.4569,2.4858,2.5699,2.5711,2.541,2.482,2.5109,2.4808,2.4004,2.4305,2.4142,0.0,0.0,0.0,2.056,2.0119,1.9371,1.8682,1.915,1.9189,1.8965,1.8769,1.8555,1.832,1.8086,1.6793,1.4879,1.2945,1.2305,1.2305,1.2305,1.2305,1.2305,1.2305,1.162,1.0565,0.9593,0.8468,0.7421,0.6363,0.5966,0.58,0.5793,0.5256,0.4726,0.4175,0.3008,0.191,0.1412,0.0577,0.0,0.0,0.0,0.0,0.0,0.0,0.0,0.0,0.0,-0.0168,-0.056,-0.1619,-0.2454,-0.2788,-0.3566,-0.4015,-0.4015,-0.4294,-0.4519,-0.4519,-0.4519,-0.468,-0.5058,-0.5324,-0.5923,-0.6686,-0.7396,-0.7937,0.9244,0.9709,1.0136,1.0035,1.0555,1.1299,1.2111,0.0,0.0,0.0,0.0,0.0,0.0,1.3715,0.0,0.0,0.0,0.0,0.0,0.0,0.0,0.0,0.0,0.0,0.0,0.0,0.0,0.0,0.0,2.5593,2.5473,2.4531,2.4167,2.4556,2.4192,2.418,2.4556,2.4732,2.482,2.482,2.4745,2.4406,2.3866,2.3866,2.3602,2.3078,0.0,0.0,2.056,2.0119,1.9371,1.8643,1.8711,1.8691,1.8594,1.8242,1.8066,1.8008,1.7862,1.6609,1.4806,1.3077,1.2384,1.2178,1.2225,1.2204,1.2164,1.2164,1.163,1.0783,0.9777,0.8603,0.7571,0.6652,0.6172,0.5864,0.5973,0.58,0.5401,0.4541,0.3628,0.2691,0.1877,0.0899,0.0188,0.0193,0.006,0.0,0.0,0.0,0.0,0.0,0.0,0.0,0.0,-0.056,-0.1174,-0.184,-0.2732,-0.3289,-0.34,-0.4125,-0.4519,-0.4519,-0.4519,-0.4519,-0.4519,-0.5058,-0.5378,-0.5538,-0.6794,-0.7503,0.9886,1.0471,1.0775,1.0153,1.0555,1.1299,1.2111,0.0,0.0,0.0,0.0,0.0,0.0,1.519,0.0,0.0,0.0,0.0,0.0,0.0,0.0,0.0,0.0,0.0,0.0,0.0,0.0,0.0,0.0,2.5574,2.4933,2.4343,2.3816,2.3341,2.3791,2.3803,2.3401,2.4343,2.482,2.4808,2.4343,2.3816,2.3263,2.3263,2.3165,2.3078,0.0,2.1428,2.056,2.0119,1.9371,1.8672,1.9043,1.8965,1.8562,1.8564,1.832,1.7872,1.707,1.5929,1.4612,1.3792,1.2593,1.161,1.1864,1.1757,1.1563,1.1563,1.1774,1.179,1.0525,0.9643,0.8755,0.7571,0.6615,0.5966,0.5861,0.58,0.5661,0.5401,0.4591,0.3922,0.3629,0.2219,0.1089,0.1094,0.0488,0.0,0.0,0.0,0.0,0.0,0.0,0.0,0.0,-0.0112,-0.0224,-0.0336,-0.1619,-0.2676,-0.3287,-0.407,-0.4519,-0.4519,-0.4519,-0.4519,-0.4519,-0.4625,-0.4948,-0.5487,-0.576,-0.6519,0.9755,1.058,1.1469,1.1849,1.2137,1.2346,0.0,0.0,0.0,0.0,0.0,0.0,0.0,0.0,0.0,0.0,0.0,0.0,0.0,0.0,0.0,0.0,0.0,0.0,0.0,0.0,0.0,0.0,0.0,0.0,2.4381,2.3841,2.3414,2.3078,2.3389,2.3552,2.3602,2.3803,2.3916,2.3916,2.3653,2.3389,2.3078,2.3078,2.3078,2.3078,0.0,2.1428,2.0537,1.9852,1.9083,1.832,1.8516,1.8477,1.8301,1.8301,1.8174,1.7833,1.6665,1.5573,1.4542,1.35,1.2331,1.145,1.159,1.153,1.1396,1.1236,1.1617,1.1814,1.0659,0.9865,0.9044,0.7895,0.6904,0.6112,0.5959,0.5861,0.5759,0.5616,0.476,0.4059,0.3941,0.2847,0.2056,0.193,0.1223,0.0722,0.0705,0.0298,0.0,0.0,0.0,0.0,0.0,0.0,-0.0168,-0.056,-0.1229,-0.1952,-0.2676,-0.3456,-0.3901,-0.3846,-0.4294,-0.4519,-0.4519,-0.4519,-0.468,-0.4948,-0.5324,-0.5869,0.9708,1.0662,1.1859,1.2881,0.0,0.0,0.0,0.0,0.0,0.0,0.0,0.0,0.0,0.0,0.0,0.0,0.0,0.0,0.0,0.0,0.0,0.0,0.0,0.0,0.0,0.0,0.0,0.0,0.0,0.0,2.3991,2.3452,2.3078,2.3078,2.3078,2.3351,2.3791,2.3364,2.314,2.3339,2.314,2.3078,2.3078,2.3078,2.3078,2.3078,2.2261,2.1428,2.0526,1.9694,1.8787,1.8008,1.8008,1.8008,1.8008,1.8008,1.8008,1.7804,1.6673,1.5641,1.4715,1.3455,1.2335,1.1491,1.137,1.1276,1.1176,1.0955,1.1316,1.1622,1.0818,1.0115,0.9367,0.8389,0.7403,0.6521,0.6061,0.5911,0.5759,0.5616,0.4916,0.4312,0.4124,0.348,0.2974,0.2829,0.2163,0.1603,0.166,0.0854,0.029,0.0307,0.0117,0.0,0.0,0.0,-0.0224,-0.0783,-0.1006,-0.1341,-0.1898,-0.2843,-0.3345,-0.3287,-0.407,-0.4519,-0.4519,-0.4519,-0.4519,-0.4519,-0.5003,-0.5403,1.0318,1.1041,1.163,1.1712,1.3746,0.0,1.8866,1.9478,0.0,2.0467,0.0,0.0,0.0,0.0,0.0,0.0,0.0,0.0,0.0,0.0,0.0,0.0,0.0,0.0,0.0,0.0,0.0,0.0,0.0,0.0,2.4029,2.3452,2.3078,2.3078,2.3078,2.309,2.3128,2.309,2.3401,2.3929,2.3389,2.3078,2.3078,2.3078,2.3078,2.3078,2.2261,2.1428,2.0526,1.9694,1.8787,1.8008,1.8008,1.8008,1.8008,1.8008,1.8008,1.7949,1.7453,1.6496,1.5292,1.4287,1.2987,1.1648,1.1197,1.0835,1.0678,1.0658,1.1009,1.1388,1.1319,1.1,1.0415,0.9448,0.8389,0.7351,0.6211,0.5911,0.5759,0.5616,0.5464,0.5245,0.5028,0.4392,0.3835,0.3732,0.3064,0.2581,0.2599,0.1798,0.1186,0.1228,0.0466,0.0,0.0,0.0,0.0,-0.0056,-0.0727,-0.1118,-0.1174,-0.2565,-0.3287,-0.3287,-0.407,-0.4519,-0.4519,-0.4519,-0.4519,-0.4519,-0.4574,-0.4979,1.0576,1.192,1.3409,1.4744,1.6184,0.0,0.0,1.9481,2.0686,2.05,2.1114,0.0,0.0,0.0,0.0,0.0,0.0,0.0,0.0,0.0,0.0,0.0,0.0,0.0,0.0,0.0,0.0,0.0,0.0,0.0,2.3513,2.319,2.3078,2.3078,2.3078,2.2915,2.2623,2.2623,2.256,2.2447,2.2912,2.3078,2.3078,2.3078,2.3078,2.3078,2.2261,2.169,2.1279,1.9554,1.8674,1.8293,1.7807,1.7627,1.7627,1.7627,1.7793,1.7871,1.6904,1.6097,1.524,1.3878,1.2664,1.167,1.0937,1.0712,1.0624,1.0624,1.0848,1.1196,1.1376,1.1125,1.0525,0.9416,0.8347,0.7302,0.6018,0.5711,0.5627,0.5477,0.5403,0.5311,0.5159,0.4993,0.4813,0.4531,0.3872,0.3324,0.3297,0.2444,0.1843,0.1845,0.1148,0.0508,0.0058,0.0,0.0,0.0,-0.0283,-0.0392,-0.0392,-0.1396,-0.2174,-0.2619,-0.3345,-0.4012,-0.4519,-0.4519,-0.4519,-0.4519,-0.4562,-0.4805,1.037,1.2227,1.436,1.5815,0.0,0.0,1.9413,2.0542,2.1651,2.2057,2.2751,0.0,0.0,0.0,0.0,0.0,0.0,0.0,0.0,0.0,0.0,0.0,0.0,0.0,0.0,0.0,0.0,0.0,0.0,0.0,0.0,2.2833,2.2799,2.2623,2.2611,2.2435,2.2058,2.2046,2.1857,2.1493,2.2246,2.2611,2.2611,2.2611,2.2711,2.2815,2.2262,2.1873,2.1469,1.9736,1.8638,1.7963,1.7417,1.7256,1.7383,1.7383,1.7568,1.7666,1.6631,1.6047,1.5412,1.3874,1.2818,1.202,1.1226,1.0807,1.0624,1.0624,1.0768,1.1042,1.1236,1.1147,1.0574,0.8959,0.8201,0.7466,0.5919,0.5589,0.5545,0.5459,0.5428,0.5311,0.5159,0.5257,0.5277,0.5023,0.4587,0.4299,0.417,0.332,0.264,0.2376,0.1928,0.1281,0.0477,0.041,0.0292,0.0,0.0,0.0,0.0,-0.0735,-0.1362,-0.187,-0.2575,-0.3395,-0.42,-0.42,-0.4374,-0.4609,-0.4714,-0.4789,0.9735,1.1837,1.405,0.0,0.0,0.0,2.4288,2.3516,2.3156,2.6082,0.0,2.4433,2.2454,0.0,0.0,0.0,0.0,0.0,0.0,0.0,0.0,0.0,0.0,0.0,0.0,0.0,0.0,0.0,0.0,0.0,0.0,2.2324,2.2046,2.1506,2.1493,2.1493,2.1481,2.1481,2.1481,2.1468,2.1468,2.1481,2.1493,2.1493,2.1794,2.2309,2.2297,2.1805,2.0937,2.0198,1.8625,1.6719,1.6728,1.6992,1.7373,1.7373,1.7373,1.7314,1.6875,1.6426,1.5865,1.4579,1.3666,1.2818,1.2012,1.1226,1.0618,1.0624,1.0768,1.0989,1.0989,1.1202,1.071,0.7981,0.7986,0.8004,0.6029,0.5589,0.5542,0.5459,0.5428,0.5315,0.5159,0.526,0.5308,0.5152,0.526,0.5425,0.5425,0.457,0.3678,0.2776,0.2705,0.2337,0.1417,0.1293,0.0924,0.0062,0.0,0.0,0.0,-0.0694,-0.1116,-0.1116,-0.1815,-0.2642,-0.3562,-0.3623,-0.4055,-0.4857,-0.4921,-0.4996,1.258,1.4742,0.0,1.8173,0.0,0.0,0.0,2.3841,0.0,0.0,2.5575,2.524,2.3281,0.0,0.0,0.0,0.0,0.0,0.0,0.0,0.0,0.0,0.0,0.0,0.0,0.0,0.0,0.0,0.0,0.0,0.0,2.2369,2.2078,2.1493,2.1493,2.1305,2.097,2.097,2.0702,2.03,2.03,2.0715,2.1493,2.1493,2.1794,2.2284,2.1895,2.1773,2.1756,1.9761,1.7947,1.6532,1.6376,1.6338,1.6517,1.6517,1.665,1.6816,1.6064,1.5546,1.5053,1.3796,1.2647,1.1707,1.11,1.0594,1.0294,1.0501,1.0685,1.056,0.9974,1.029,1.0398,0.8482,0.7775,0.7181,0.5727,0.543,0.5416,0.5435,0.5428,0.5415,0.5301,0.5332,0.5308,0.5152,0.5169,0.5162,0.5064,0.482,0.4344,0.3569,0.3503,0.316,0.234,0.2302,0.1862,0.0953,0.0936,0.0611,0.0,-0.0182,-0.0547,-0.1093,-0.1286,-0.1845,-0.264,-0.3254,-0.3747,-0.3994,-0.4706,-0.5091,1.2959,1.5488,0.0,1.951,2.1735,2.3663,2.3799,0.0,0.0,0.0,0.0,2.6252,2.4844,0.0,0.0,0.0,0.0,0.0,0.0,0.0,0.0,0.0,0.0,0.0,0.0,0.0,0.0,0.0,0.0,0.0,0.0,2.2101,2.1718,2.0869,2.0815,2.0665,2.0326,2.0326,2.015,1.9798,1.9798,2.0162,2.0815,2.0815,2.1242,2.1958,2.1405,2.1176,2.106,1.8987,1.7464,1.6457,1.5989,1.5908,1.6125,1.6125,1.623,1.6387,1.5859,1.5415,1.4902,1.3804,1.2693,1.1673,1.1045,1.0471,0.998,1.016,1.0294,1.0256,0.975,0.9744,0.9548,0.8098,0.7559,0.7069,0.5711,0.5428,0.5428,0.5428,0.5428,0.5428,0.5428,0.5428,0.5328,0.5237,0.5223,0.5192,0.5108,0.5094,0.4905,0.4457,0.4457,0.4102,0.3255,0.3213,0.2823,0.1894,0.148,0.1084,0.0511,0.019,-0.0189,-0.0628,-0.0635,-0.1021,-0.1845,-0.2418,-0.3054,-0.3753,-0.44,-0.4893,1.2038,0.0,0.0,1.9241,2.2626,0.0,2.5017,0.0,2.7767,2.7607,0.0,0.0,0.0,0.0,0.0,0.0,0.0,0.0,0.0,0.0,0.0,0.0,0.0,0.0,0.0,0.0,0.0,0.0,0.0,0.0,0.0,2.1672,2.1081,1.9914,1.985,1.9773,1.9736,1.9736,1.971,1.966,1.971,1.9761,1.9798,1.9798,2.0363,2.1305,2.092,2.0291,1.9526,1.821,1.7246,1.6539,1.5806,1.5713,1.6066,1.6066,1.6066,1.6056,1.6017,1.5624,1.5109,1.435,1.331,1.2265,1.1462,1.0493,0.9653,0.9679,0.9873,1.0074,1.0074,0.9449,0.8578,0.7223,0.7344,0.7418,0.5752,0.5428,0.5428,0.5428,0.5428,0.5428,0.5428,0.5428,0.5428,0.5428,0.5428,0.5428,0.5428,0.5428,0.5428,0.5428,0.5428,0.5024,0.4217,0.4148,0.3747,0.2878,0.2009,0.1474,0.134,0.0459,0.0,0.0,0.0,-0.0404,-0.1207,-0.1274,-0.2143,-0.3747,-0.3949,-0.4486,1.4627,1.6524,0.0,0.0,2.4489,2.6725,2.7774,2.7909,2.7012,0.0,0.0,0.0,0.0,0.0,0.0,0.0,0.0,0.0,0.0,0.0,0.0,0.0,0.0,0.0,0.0,0.0,0.0,0.0,0.0,0.0,2.2483,2.1991,2.1331,2.061,2.0042,1.961,1.9196,1.9196,1.8982,0.0,1.8982,1.9409,1.9798,1.9798,1.9936,2.0188,2.0514,2.0348,1.9701,1.8815,1.8015,1.7302,1.6539,1.5982,1.5557,1.5557,1.5557,1.5508,1.5176,1.4592,1.388,1.3383,1.2069,1.0791,1.0823,1.0116,0.9385,0.9619,0.9726,0.978,0.978,0.9656,0.9294,0.8505,0.7438,0.6353,0.5595,0.5428,0.5428,0.5428,0.5428,0.5428,0.5428,0.5428,0.5428,0.5428,0.5428,0.5428,0.5428,0.5428,0.5428,0.5428,0.5428,0.5296,0.509,0.509,0.4688,0.3749,0.3547,0.2811,0.134,0.0468,0.0,0.0,0.0,-0.0067,-0.0269,-0.0939,-0.1474,-0.1941,-0.3345,-0.4082,1.442,0.0,0.0,2.3371,0.0,2.7351,2.7791,2.7571,0.0,0.0,0.0,0.0,0.0,0.0,0.0,0.0,0.0,0.0,0.0,0.0,0.0,0.0,0.0,0.0,0.0,0.0,0.0,0.0,0.0,2.2076,2.1758,2.117,2.0669,2.0338,1.9455,1.9032,1.8983,1.8769,1.8493,1.8216,1.8769,1.9296,1.9811,2.0087,2.0062,1.9823,2.0125,2.0075,1.9747,1.898,1.8286,1.7523,1.6821,1.6036,1.541,1.541,1.541,1.5352,1.4932,1.4551,1.4026,1.3167,1.1998,1.0817,1.0564,0.9797,0.9065,0.9218,0.9365,0.9472,0.9472,0.9472,0.931,0.8735,0.8032,0.7177,0.6233,0.6009,0.5881,0.5495,0.5428,0.5428,0.5428,0.5428,0.5428,0.5428,0.5428,0.5428,0.5428,0.5428,0.5428,0.5428,0.5428,0.5428,0.5428,0.5428,0.516,0.4688,0.4217,0.3547,0.2611,0.1342,0.0404,0.0,0.0,0.0,0.0,-0.0471,-0.0873,-0.134,-0.2277,-0.3145,1.3166,0.0,1.945,2.3913,2.615,0.0,2.6454,2.6218,0.0,0.0,0.0,0.0,0.0,0.0,0.0,0.0,0.0,0.0,0.0,0.0,0.0,0.0,0.0,0.0,0.0,0.0,0.0,0.0,0.0,2.1346,2.0903,2.0331,1.9959,1.9813,1.8845,1.8462,1.8744,1.8292,1.8016,1.7915,1.848,1.902,1.9547,2.0024,2.0087,1.9798,1.9798,1.9798,1.9747,1.915,1.8389,1.7564,1.6946,1.6162,1.532,1.5419,1.5312,1.5137,1.4795,1.4629,1.4382,1.3294,1.2281,1.1425,1.0646,0.9727,0.8962,0.8857,0.8978,0.911,0.911,0.911,0.901,0.8646,0.8729,0.855,0.7145,0.6763,0.6461,0.5752,0.5491,0.5428,0.5428,0.5428,0.5428,0.5428,0.5428,0.5428,0.5428,0.5428,0.5428,0.5428,0.5428,0.5428,0.5428,0.5428,0.5428,0.5428,0.4686,0.4151,0.4015,0.2544,0.1275,0.0269,0.0067,0.0,0.0,0.0,-0.0404,-0.1073,-0.1207,-0.2075,0.0,0.0,2.0372,0.0,2.3849,2.4898,0.0,0.0,0.0,0.0,0.0,0.0,0.0,0.0,0.0,0.0,0.0,0.0,0.0,0.0,0.0,0.0,0.0,0.0,0.0,0.0,0.0,0.0,2.1216,2.1042,2.153,2.0959,2.0373,1.9894,1.9229,1.8487,1.7601,1.7526,1.7237,1.6748,1.7325,1.789,1.843,1.8505,1.8995,1.9798,1.9798,1.9798,1.9798,1.9695,1.8934,1.7826,1.7574,1.6537,1.5149,1.5365,1.4941,1.4243,1.4184,1.3984,1.3603,1.3084,1.2367,1.1645,1.0938,1.0249,0.9562,0.8956,0.8838,0.8864,0.8864,0.8864,0.8884,0.9059,0.9348,0.9151,0.7685,0.7053,0.6654,0.6527,0.5947,0.5428,0.5428,0.5428,0.5428,0.5428,0.5428,0.5428,0.5428,0.5428,0.5428,0.5428,0.5428,0.5428,0.5428,0.5428,0.5428,0.5428,0.5292,0.4821,0.4015,0.3747,0.2878,0.114,0.0404,0.0,0.0,0.0,-0.0067,-0.0202,-0.0939,-0.1407,1.2454,1.5818,1.932,0.0,2.2502,2.3866,2.3866,0.0,0.0,0.0,0.0,0.0,0.0,0.0,0.0,0.0,0.0,0.0,0.0,0.0,0.0,0.0,0.0,0.0,0.0,0.0,0.0,0.0,2.0528,2.0273,2.0543,2.0016,1.9712,1.9809,1.8665,1.7957,1.7841,1.7226,1.6936,1.6999,1.7262,1.7664,1.8204,1.8204,1.8468,1.8907,1.8907,1.8907,1.8907,1.8907,1.8339,1.7414,1.7333,1.6402,1.5133,1.5216,1.4725,1.4048,1.3867,1.3662,1.3437,1.3018,1.2393,1.1765,1.1434,1.0626,0.9762,0.9465,0.9113,0.8804,0.8804,0.8804,0.8838,0.8965,0.9218,0.9277,0.8842,0.8408,0.7897,0.6915,0.6396,0.5943,0.5491,0.5428,0.5428,0.5428,0.5428,0.5428,0.5428,0.5428,0.5428,0.5428,0.5428,0.5428,0.5428,0.5428,0.5428,0.5428,0.5428,0.5226,0.4821,0.4284,0.3613,0.2811,0.1409,0.0471,0.0,0.0,0.0,0.0,-0.0404,-0.0812,0.0,0.0,1.7102,1.8921,2.0713,2.218,0.0,0.0,0.0,0.0,0.0,0.0,0.0,0.0,0.0,0.0,0.0,0.0,0.0,0.0,0.0,0.0,0.0,0.0,0.0,0.0,0.0,0.0,1.9974,1.969,1.969,1.9332,1.9223,1.9491,1.822,1.7648,1.7985,1.6969,1.6735,1.7162,1.7162,1.7375,1.7777,1.7777,1.7777,1.779,1.8078,1.8204,1.8204,1.8204,1.7807,1.7183,1.7109,1.6257,1.5012,1.5049,1.452,1.3789,1.3584,1.3437,1.3301,1.2988,1.251,1.203,1.1841,1.1082,1.0269,0.9917,0.9465,0.9008,0.8857,0.8804,0.8804,0.8804,0.9085,0.9376,0.9428,0.9389,0.8877,0.7307,0.7046,0.6785,0.5881,0.5752,0.5686,0.5428,0.5428,0.5428,0.5428,0.5428,0.5428,0.5428,0.5428,0.5428,0.5428,0.5428,0.5428,0.5428,0.5428,0.5428,0.5428,0.4755,0.4217,0.4015,0.2678,0.1409,0.0337,0.0337,0.0202,0.0,0.0,-0.0344,0.0,1.2974,0.0,1.6398,0.0,0.0,0.0,0.0,0.0,0.0,0.0,0.0,0.0,0.0,0.0,0.0,0.0,0.0,0.0,0.0,0.0,0.0,0.0,0.0,0.0,0.0,0.0,0.0,1.9705,1.969,1.969,1.969,1.942,1.8974,1.8355,1.7841,1.7352,1.6765,1.6534,1.6559,1.6559,1.6572,1.6609,1.6609,1.6609,1.666,1.7739,1.8204,1.8204,1.8204,1.789,1.7372,1.7171,1.6124,1.4749,1.5012,1.4185,1.2998,1.3379,1.3242,1.291,1.2891,1.2881,1.2715,1.203,1.1765,1.1408,1.0167,0.9762,0.9614,0.8956,0.8804,0.8804,0.8804,0.9245,0.9499,0.8968,0.9068,0.9011,0.8091,0.7962,0.7632,0.6785,0.6654,0.6334,0.5491,0.5428,0.5428,0.5428,0.5428,0.5428,0.5428,0.5428,0.5428,0.5428,0.5428,0.5428,0.5428,0.5428,0.5428,0.5428,0.5359,0.4891,0.4015,0.3882,0.3011,0.1207,0.1207,0.0806,0.0,0.0,0.0,0.0,0.0,0.0,1.3888,1.5072,1.6216,0.0,0.0,0.0,0.0,0.0,0.0,0.0,0.0,0.0,0.0,0.0,0.0,0.0,0.0,0.0,0.0,0.0,0.0,0.0,0.0,0.0,0.0,0.0,1.969,1.969,1.969,1.9603,1.9406,1.8574,1.7666,1.6795,1.6595,1.6522,1.6522,1.6522,1.6522,1.6522,1.6522,1.6522,1.6547,1.6948,1.7124,1.7124,1.7124,1.7011,1.6792,1.6315,1.5556,1.4651,1.4387,1.3705,1.29,1.3047,1.3008,1.2881,1.2881,1.2881,1.2832,1.2608,1.2187,1.1715,1.1216,1.0466,0.9762,0.9517,0.9106,0.8804,0.8804,0.9259,0.9648,0.9446,0.9778,0.9849,0.9005,0.8812,0.8549,0.7697,0.7502,0.7437,0.712,0.7055,0.7055,0.7055,0.7055,0.7055,0.7055,0.7055,0.6854,0.6268,0.6203,0.6009,0.5428,0.5428,0.5428,0.5428,0.5428,0.5226,0.4891,0.4891,0.4015,0.221,0.1608,0.114,0.0806,0.0277,0.0,1.1526,0.0,0.0,0.0,0.0,1.3998,0.0,0.0,0.0,0.0,0.0,0.0,0.0,0.0,0.0,0.0,0.0,0.0,0.0,0.0,0.0,0.0,0.0,0.0,0.0,0.0,0.0,0.0,0.0,0.0,1.969,1.969,1.953,1.9169,1.8302,1.7394,1.6522,1.6522,1.6522,1.6522,1.6522,1.6522,1.6522,1.6522,1.6522,1.6522,1.6522,1.6522,1.6522,1.6522,1.6522,1.6479,1.6051,1.5543,1.4926,1.4329,1.3742,1.3152,1.2978,1.2881,1.2881,1.2881,1.2881,1.2881,1.2881,1.2559,1.2129,1.1864,1.1015,1.0167,1.0167,0.9666,0.9187,0.9291,0.9411,0.9559,0.9659,1.0067,1.0309,0.9831,0.9648,0.9358,0.8597,0.842,0.835,0.8027,0.8027,0.8027,0.8027,0.8027,0.8027,0.8027,0.8027,0.7762,0.7177,0.7111,0.6789,0.5881,0.5815,0.5686,0.5428,0.5428,0.5428,0.5428,0.5428,0.4821,0.3613,0.2678,0.1876,0.1275,0.0698,0.029,0.0,0.0,0.0,0.0,0.0,0.0,1.4141,0.0,1.6949,0.0,0.0,0.0,0.0,0.0,0.0,0.0,0.0,0.0,0.0,0.0,0.0,0.0,0.0,0.0,0.0,0.0,0.0,0.0,1.969,1.969,1.969,1.969,1.9207,1.8145,1.7585,1.7034,1.6522,1.6522,1.6522,1.6522,1.6522,1.6522,1.6522,1.6522,1.6522,1.6522,1.6522,1.6522,1.6522,1.6522,1.6522,1.6522,1.6466,1.6107,1.5543,1.4937,1.434,1.3732,1.3162,1.2939,1.2881,1.2881,1.2881,1.2881,1.2881,1.2881,1.2764,1.2021,1.1366,1.0813,1.0813,1.0312,0.9896,1.0217,0.9769,0.9319,0.9606,0.9893,1.018,1.0551,1.0314,0.9962,0.9418,0.9338,0.9069,0.8221,0.8091,0.8091,0.8091,0.8091,0.8091,0.8091,0.8091,0.8091,0.8027,0.8027,0.7632,0.6785,0.6719,0.6334,0.5428,0.5428,0.5428,0.5428,0.5428,0.5428,0.5428,0.4486,0.3078,0.1409,0.1348,0.0823,1.2121,0.0,0.0,0.0,0.0,0.0,1.2026,1.3033,1.4144,0.0,0.0,0.0,0.0,0.0,0.0,0.0,0.0,0.0,0.0,0.0,0.0,0.0,0.0,0.0,0.0,0.0,0.0,0.0,1.969,1.969,1.969,1.9332,1.8817,1.8145,1.7585,1.7034,1.6522,1.6522,1.6522,1.6522,1.6522,1.6522,1.6522,1.6522,1.6522,1.6522,1.6522,1.6522,1.6522,1.6522,1.6522,1.6479,1.6008,1.5764,1.5591,1.5371,1.4624,1.3821,1.4059,1.3598,1.2881,1.2881,1.2881,1.2881,1.2881,1.2881,1.2881,1.2666,1.2089,1.1408,1.0914,1.0661,1.0438,1.003,0.9982,0.9852,0.9451,0.9369,0.9633,1.014,1.0174,1.0146,1.0249,1.0238,1.0174,0.9907,0.9907,0.9907,0.9907,0.9907,0.9907,0.9907,0.9907,0.9652,0.9011,0.8941,0.8285,0.6785,0.6719,0.6334,0.5428,0.5428,0.5428,0.5428,0.5428,0.5428,0.5428,0.4486,0.3747,0.3215,0.1913,0.127,0.0,0.0,0.0,0.0,0.0,0.0,1.0318,1.1256,1.2464,0.0,0.0,0.0,0.0,0.0,0.0,0.0,0.0,0.0,0.0,0.0,0.0,0.0,0.0,0.0,0.0,1.969,1.969,1.969,1.969,1.969,1.969,1.8968,1.8419,1.8106,1.7353,1.6837,1.6522,1.6522,1.6522,1.6522,1.6522,1.6522,1.6522,1.6522,1.6522,1.6522,1.6522,1.6522,1.6522,1.6522,1.6522,1.6466,1.6095,1.5964,1.5937,1.5578,1.4887,1.4161,1.4167,1.361,1.2881,1.2881,1.2881,1.2881,1.2881,1.2881,1.2881,1.2881,1.2608,1.2089,1.1416,1.1216,1.1116,1.072,1.0574,1.031,0.9578,0.9477,0.9549,0.9879,0.9933,1.0027,1.0327,1.0481,1.0624,1.0624,1.0624,1.0624,1.0624,1.0624,1.0624,1.0624,1.0624,1.0364,0.9913,0.9849,0.9262,0.7897,0.7762,0.7246,0.6009,0.5943,0.5752,0.5428,0.5428,0.5428,0.5428,0.4821,0.4378,0.3954,0.2635,0.2005,0.0,0.0,0.0,0.0,0.9478,0.0,0.9369,1.0354,1.1703,1.3107,0.0,0.0,0.0,0.0,0.0,0.0,0.0,0.0,0.0,0.0,0.0,0.0,0.0,0.0,1.9675,1.969,1.969,1.969,1.969,1.969,1.9603,1.865,1.8066,1.8027,1.7034,1.6522,1.6522,1.6522,1.6522,1.6522,1.6522,1.6522,1.6522,1.6522,1.6522,1.6522,1.6522,1.6522,1.6522,1.6522,1.6522,1.6522,1.6522,1.6522,1.6399,1.5765,1.5159,1.4592,1.393,1.3372,1.2881,1.2881,1.2881,1.2881,1.2881,1.2881,1.2881,1.2881,1.2881,1.2764,1.208,1.1922,1.1913,1.1814,1.1366,1.072,1.0064,0.9909,0.9888,0.9763,0.9697,0.978,1.0067,1.0367,1.0624,1.0624,1.0624,1.0624,1.0624,1.0624,1.0624,1.0624,1.0624,1.0624,1.0624,1.0624,1.0238,0.9338,0.9274,0.8549,0.6915,0.6719,0.633,0.5557,0.5425,0.5428,0.5557,0.5428,0.4959,0.4189,0.3371,0.3092,0.0,0.0,0.0,0.0,0.0,0.0,1.0889,1.1101,1.1703,0.0,0.0,0.0,0.0,0.0,0.0,0.0,0.0,0.0,0.0,0.0,0.0,0.0,0.0,0.0,1.963,1.969,1.969,1.969,1.969,1.953,1.908,1.8458,1.7907,1.7463,1.6837,1.6522,1.6522,1.6522,1.6522,1.6522,1.6522,1.6522,1.6522,1.6522,1.6522,1.6522,1.6522,1.6522,1.6522,1.6522,1.6522,1.6522,1.6522,1.6522,1.6541,1.688,1.6029,1.473,1.503,1.4129,1.2881,1.2881,1.2881,1.2881,1.2881,1.2881,1.2881,1.2881,1.2881,1.2881,1.2715,1.2666,1.2559,1.1922,1.1715,1.1416,1.0771,1.0618,1.0454,0.988,0.9736,0.978,1.0067,1.0367,1.0624,1.0624,1.0624,1.0624,1.0624,1.0624,1.0624,1.0624,1.0624,1.0624,1.0624,1.0624,1.0238,0.9338,0.9274,0.8812,0.7767,0.7046,0.6588,0.6461,0.5752,0.5749,0.6461,0.5749,0.5369,0.524,0.4375,0.4047,0.0,0.0,0.0,1.0817,0.0,0.0,0.0,1.0364,1.0642,1.248,1.1652,0.0,0.0,0.0,0.0,0.0,0.0,0.0,0.0,0.0,0.0,0.0,0.0,0.0,1.9615,1.969,1.969,1.969,1.969,1.9479,1.893,1.838,1.7867,1.7312,1.6795,1.6522,1.6522,1.6522,1.6522,1.6522,1.6522,1.6522,1.6522,1.6522,1.6522,1.6522,1.6522,1.6522,1.6522,1.6522,1.6522,1.6522,1.6522,1.6522,1.6541,1.6745,1.6121,1.5119,1.5008,1.4253,1.3286,1.3017,1.2881,1.2881,1.2881,1.2881,1.2881,1.2881,1.2881,1.2881,1.2881,1.2881,1.2822,1.2452,1.2344,1.2138,1.1466,1.1316,1.1116,1.0415,1.0554,1.0624,0.9991,1.0147,1.0388,1.0598,1.0624,1.0624,1.0624,1.0624,1.0624,1.0624,1.0624,1.0624,1.0624,1.0624,1.0428,0.9977,0.9977,0.9524,0.8678,0.8221,0.7767,0.7372,0.6465,0.6268,0.6719,0.5815,0.544,0.5593,0.5164,0.5073,0.0,0.0,0.0,0.0,0.0,1.0491,0.0,0.0,0.0,1.1502,0.0,0.0,0.0,0.0,0.0,0.0,0.0,0.0,0.0,0.0,0.0,0.0,0.0,0.0,1.9286,1.9561,1.969,1.969,1.969,1.9479,1.893,1.838,1.7867,1.7312,1.6795,1.6522,1.6522,1.6522,1.6522,1.6522,1.6522,1.6522,1.6522,1.6522,1.6522,1.6522,1.6522,1.6522,1.6522,1.6522,1.6522,1.6522,1.6522,1.6522,1.6485,1.6384,1.6025,1.5513,1.484,1.4265,1.3732,1.3238,1.2968,1.2881,1.2881,1.2881,1.2881,1.2881,1.2881,1.2881,1.2881,1.2881,1.2881,1.2881,1.2881,1.2725,1.2138,1.2021,1.1823,1.1116,1.1494,1.1509,1.0329,1.0429,1.0765,1.1017,1.1052,1.1052,1.1052,1.1052,1.1052,1.1052,1.0926,1.08,1.08,1.0688,1.0624,1.0624,1.0624,1.0301,0.9594,0.9402,0.8947,0.8285,0.7372,0.7046,0.7177,0.6338,0.5755,0.5549,0.5722,0.5867,0.0,0.0,0.0,0.0,1.206,0.0,0.0,0.0,1.0741,1.0339,0.0,0.0,0.0,0.0,0.0,0.0,0.0,0.0,0.0,0.0,0.0,0.0,0.0,0.0,0.0,1.9144,1.969,1.969,1.969,1.9479,1.893,1.838,1.7867,1.7312,1.6795,1.6522,1.6522,1.6522,1.6522,1.6522,1.6522,1.6522,1.6522,1.6522,1.6522,1.6522,1.6522,1.6522,1.6522,1.6522,1.6522,1.6522,1.6522,1.6522,1.6479,1.6498,1.6113,1.5599,1.5513,1.472,1.3779,1.3732,1.3334,1.2881,1.2881,1.2881,1.2881,1.2881,1.2881,1.2881,1.2881,1.2881,1.2881,1.2881,1.2881,1.2881,1.2774,1.2774,1.2559,1.1823,1.1737,1.1756,1.1668,1.2246,1.2655,1.2696,1.2704,1.2704,1.2704,1.2704,1.2704,1.2704,1.2081,1.1648,1.1648,1.0989,1.0624,1.0624,1.0624,1.0561,1.0428,0.9722,0.9274,0.9139,0.8285,0.8226,0.9011,0.8161,0.6933,0.5463,0.5674,0.581,0.0,0.0,0.0,0.0,0.0,0.0,1.135,0.0,1.1147,0.0,0.0,0.0,0.0,0.0,0.0,0.0,1.0541,0.0,0.0,0.0,0.0,0.0,0.0,0.0,0.0,0.0,0.0,0.0,1.776,1.7722,1.7251,1.7791,1.7867,1.7312,1.6795,1.6522,1.6522,1.6522,1.6522,1.6522,1.6522,1.6522,1.6522,1.6522,1.6522,1.6522,1.6522,1.6522,1.6522,1.6522,1.6522,1.6522,1.6522,1.6522,1.6522,1.6522,1.6337,1.6051,1.572,1.5264,1.4721,1.405,1.3372,1.2881,1.2881,1.2881,1.2881,1.2881,1.2881,1.2881,1.2881,1.2881,1.2881,1.2881,1.2881,1.2881,1.2881,1.2881,1.2822,1.251,1.2641,1.2814,1.2837,1.2586,1.2505,1.2943,1.3009,1.3009,1.3009,1.3009,1.3009,1.3009,1.2704,1.2512,1.2512,1.1779,1.1288,1.1288,1.0863,1.0624,1.0624,1.0238,1.0047,1.0047,0.9198,0.8941,0.9274,0.842,0.7637,0.6933,0.6591,0.6537,1.5917,0.0,0.0,0.0,0.0,0.0,0.0,0.0,0.0,0.0,0.0,0.0,0.0,0.0,0.0,0.0,0.0,0.9912,0.0,0.0,0.0,0.0,0.0,0.0,0.0,0.0,0.0,1.5267,1.5709,1.592,1.6009,1.6822,1.731,1.7299,1.6795,1.6522,1.6522,1.6522,1.6522,1.6522,1.6522,1.6522,1.6522,1.6522,1.6522,1.6522,1.6522,1.6522,1.6522,1.6522,1.6522,1.6522,1.6522,1.6522,1.6522,1.6522,1.6522,1.6423,1.6008,1.5732,1.5398,1.4179,1.3505,1.3104,1.2978,1.2881,1.2881,1.2881,1.2881,1.2881,1.2881,1.2881,1.2881,1.2881,1.2881,1.2881,1.2881,1.2881,1.2881,1.2881,1.3125,1.3369,1.3486,1.2921,1.2737,1.3414,1.3518,1.3553,1.3657,1.3666,1.3666,1.3666,1.3485,1.3312,1.3312,1.2573,1.2012,1.1826,1.1226,1.08,1.0624,1.0624,1.0624,1.0624,0.9977,0.9658,0.9658,0.9005,0.8737,0.8683,0.7779,0.7338,0.0,0.0,0.0,1.6495,0.0,0.0,0.0,0.0,1.2263,0.0,0.0,0.0,0.0,0.0,0.0,0.0,0.0,0.0,0.0,0.0,0.0,0.0,0.0,0.0,0.0,0.0,1.4108,1.4154,1.3986,1.4505,1.5906,1.5555,1.5901,1.7259,1.6795,1.6522,1.6522,1.6522,1.6522,1.6522,1.6522,1.6522,1.6522,1.6522,1.6522,1.6522,1.6522,1.6522,1.6522,1.6522,1.6522,1.6522,1.6522,1.6522,1.6522,1.6522,1.6522,1.6522,1.6466,1.6095,1.5398,1.4179,1.3779,1.3637,1.3055,1.2881,1.2881,1.2881,1.2881,1.2881,1.2881,1.2881,1.2881,1.2881,1.2881,1.2881,1.2881,1.2881,1.2881,1.2881,1.2891,1.3027,1.3437,1.3805,1.4169,1.4681,1.4749,1.4895,1.5245,1.5294,1.5294,1.5294,1.4628,1.4154,1.4154,1.3425,1.2634,1.1834,1.1772,1.1406,1.0618,1.0624,1.0624,1.0624,1.0561,1.0561,1.0561,1.0561,1.0491,1.0504,0.9162,0.7952,0.0,0.0,1.8566,1.8826,0.0,0.0,0.0,0.0,0.0,0.0,0.0,0.0,0.0,0.0,0.0,0.0,0.0,0.0,0.0,0.0,0.0,0.0,0.0,0.0,0.0,0.0,0.0,1.1268,1.1638,1.2476,1.3927,1.4782,1.5833,1.7259,1.6795,1.6522,1.6522,1.6522,1.6522,1.6522,1.6522,1.6522,1.6522,1.6522,1.6522,1.6522,1.6522,1.6522,1.6522,1.6522,1.6522,1.6522,1.6522,1.6522,1.6522,1.6522,1.6522,1.6522,1.6522,1.6095,1.5543,1.5129,1.4457,1.3779,1.3552,1.3238,1.2881,1.2881,1.2881,1.2881,1.2881,1.2881,1.2881,1.2881,1.2881,1.2881,1.2881,1.2881,1.2881,1.2881,1.2881,1.3018,1.3437,1.3623,1.3965,1.4678,1.5029,1.5254,1.5391,1.541,1.541,1.541,1.5167,1.4991,1.4991,1.4273,1.3425,1.2634,1.2081,1.171,1.1413,1.0863,1.0624,1.0624,1.0624,1.0624,1.0624,1.0624,1.0624,1.0568,1.035,0.9746,2.0559,2.0424,0.0,2.0677,1.9316,0.0,1.727,0.0,0.0,0.0,0.0,0.0,0.0,0.0,0.0,0.0,0.0,0.0,0.0,0.9777,0.0,0.0,0.0,0.0,0.0,0.0,0.8506,0.9197,0.958,1.0631,0.0,0.0,1.5025,1.6957,1.668,1.6522,1.6522,1.6522,1.6522,1.6522,1.6522,1.6522,1.6522,1.6522,1.6522,1.6522,1.6522,1.6522,1.6522,1.6522,1.6522,1.6522,1.6522,1.6522,1.6522,1.6522,1.6522,1.6522,1.6522,1.6238,1.5864,1.5676,1.5084,1.4365,1.3909,1.3552,1.32,1.2968,1.2881,1.2881,1.2881,1.2881,1.2881,1.2881,1.2881,1.2881,1.2881,1.2881,1.2881,1.2881,1.2998,1.3193,1.3467,1.376,1.415,1.4707,1.501,1.5244,1.5391,1.541,1.541,1.541,1.541,1.541,1.541,1.4932,1.4273,1.3485,1.2931,1.2504,1.2266,1.1476,1.1094,1.1142,1.0798,1.0672,1.0715,1.0672,1.0624,1.0631,1.0862,1.0801]}]]